<?xml version="1.0" encoding="UTF-8" standalone="no" ?>
<gpx xmlns="http://www.topografix.com/GPX/1/1" xmlns:xsi="http://www.w3.org/2001/XMLSchema-instance" xsi:schemaLocation="http://www.topografix.com/GPX/1/1 http://www.topografix.com/GPX/1/1/gpx.xsd" version="1.1" creator="VisuGPX - https://www.visugpx.com">
  <metadata>
    <name>Montagne des Louquiers depuis Mons</name>
    <desc><![CDATA[Trace AlpineQuest 11/07/2015 09:04:52
Mons Renaud]]></desc>
  </metadata>
  <trk>
    <name><![CDATA[Mons Renaud]]></name>
    <desc><![CDATA[Mons Renaud]]></desc>
    <trkseg>
      <trkpt lat="43.69367" lon="6.71482">
        <ele>877</ele>
        <time>2015-07-11T07:04:52Z</time>
      </trkpt>
      <trkpt lat="43.69397" lon="6.71493">
        <ele>868</ele>
        <time>2015-07-11T07:05:01Z</time>
      </trkpt>
      <trkpt lat="43.69415" lon="6.71487">
        <ele>861</ele>
        <time>2015-07-11T07:05:07Z</time>
      </trkpt>
      <trkpt lat="43.69418" lon="6.71483">
        <ele>861</ele>
        <time>2015-07-11T07:05:08Z</time>
      </trkpt>
      <trkpt lat="43.69421" lon="6.71466">
        <ele>863</ele>
        <time>2015-07-11T07:05:13Z</time>
      </trkpt>
      <trkpt lat="43.69416" lon="6.71442">
        <ele>865</ele>
        <time>2015-07-11T07:05:20Z</time>
      </trkpt>
      <trkpt lat="43.69405" lon="6.71431">
        <ele>866</ele>
        <time>2015-07-11T07:05:25Z</time>
      </trkpt>
      <trkpt lat="43.69394" lon="6.71419">
        <ele>868</ele>
        <time>2015-07-11T07:05:30Z</time>
      </trkpt>
      <trkpt lat="43.69381" lon="6.71408">
        <ele>869</ele>
        <time>2015-07-11T07:05:35Z</time>
      </trkpt>
      <trkpt lat="43.6937" lon="6.71397">
        <ele>870</ele>
        <time>2015-07-11T07:05:40Z</time>
      </trkpt>
      <trkpt lat="43.6936" lon="6.71383">
        <ele>872</ele>
        <time>2015-07-11T07:05:45Z</time>
      </trkpt>
      <trkpt lat="43.69352" lon="6.7137">
        <ele>873</ele>
        <time>2015-07-11T07:05:50Z</time>
      </trkpt>
      <trkpt lat="43.69347" lon="6.71353">
        <ele>874</ele>
        <time>2015-07-11T07:05:55Z</time>
      </trkpt>
      <trkpt lat="43.69345" lon="6.71337">
        <ele>876</ele>
        <time>2015-07-11T07:06:00Z</time>
      </trkpt>
      <trkpt lat="43.69343" lon="6.71314">
        <ele>877</ele>
        <time>2015-07-11T07:06:07Z</time>
      </trkpt>
      <trkpt lat="43.6934" lon="6.71297">
        <ele>876</ele>
        <time>2015-07-11T07:06:12Z</time>
      </trkpt>
      <trkpt lat="43.69337" lon="6.71288">
        <ele>877</ele>
        <time>2015-07-11T07:06:15Z</time>
      </trkpt>
      <trkpt lat="43.69332" lon="6.71273">
        <ele>879</ele>
        <time>2015-07-11T07:06:20Z</time>
      </trkpt>
      <trkpt lat="43.69323" lon="6.71259">
        <ele>881</ele>
        <time>2015-07-11T07:06:25Z</time>
      </trkpt>
      <trkpt lat="43.69315" lon="6.71248">
        <ele>883</ele>
        <time>2015-07-11T07:06:30Z</time>
      </trkpt>
      <trkpt lat="43.69304" lon="6.71236">
        <ele>883</ele>
        <time>2015-07-11T07:06:35Z</time>
      </trkpt>
      <trkpt lat="43.6921" lon="6.71145">
        <ele>885</ele>
        <time>2015-07-11T07:07:22Z</time>
      </trkpt>
      <trkpt lat="43.69203" lon="6.71126">
        <ele>886</ele>
        <time>2015-07-11T07:07:28Z</time>
      </trkpt>
      <trkpt lat="43.69197" lon="6.71114">
        <ele>889</ele>
        <time>2015-07-11T07:07:33Z</time>
      </trkpt>
      <trkpt lat="43.69191" lon="6.711">
        <ele>889</ele>
        <time>2015-07-11T07:07:38Z</time>
      </trkpt>
      <trkpt lat="43.69184" lon="6.71087">
        <ele>890</ele>
        <time>2015-07-11T07:07:43Z</time>
      </trkpt>
      <trkpt lat="43.69178" lon="6.71073">
        <ele>889</ele>
        <time>2015-07-11T07:07:48Z</time>
      </trkpt>
      <trkpt lat="43.69171" lon="6.71062">
        <ele>890</ele>
        <time>2015-07-11T07:07:53Z</time>
      </trkpt>
      <trkpt lat="43.69165" lon="6.71051">
        <ele>890</ele>
        <time>2015-07-11T07:07:58Z</time>
      </trkpt>
      <trkpt lat="43.69156" lon="6.7104">
        <ele>889</ele>
        <time>2015-07-11T07:08:03Z</time>
      </trkpt>
      <trkpt lat="43.69146" lon="6.7103">
        <ele>889</ele>
        <time>2015-07-11T07:08:08Z</time>
      </trkpt>
      <trkpt lat="43.69137" lon="6.7102">
        <ele>891</ele>
        <time>2015-07-11T07:08:13Z</time>
      </trkpt>
      <trkpt lat="43.69127" lon="6.71011">
        <ele>891</ele>
        <time>2015-07-11T07:08:18Z</time>
      </trkpt>
      <trkpt lat="43.69117" lon="6.71">
        <ele>891</ele>
        <time>2015-07-11T07:08:23Z</time>
      </trkpt>
      <trkpt lat="43.69108" lon="6.7099">
        <ele>890</ele>
        <time>2015-07-11T07:08:28Z</time>
      </trkpt>
      <trkpt lat="43.69099" lon="6.70982">
        <ele>891</ele>
        <time>2015-07-11T07:08:33Z</time>
      </trkpt>
      <trkpt lat="43.6909" lon="6.70973">
        <ele>892</ele>
        <time>2015-07-11T07:08:38Z</time>
      </trkpt>
      <trkpt lat="43.69082" lon="6.70964">
        <ele>894</ele>
        <time>2015-07-11T07:08:43Z</time>
      </trkpt>
      <trkpt lat="43.69073" lon="6.70955">
        <ele>895</ele>
        <time>2015-07-11T07:08:48Z</time>
      </trkpt>
      <trkpt lat="43.69064" lon="6.70947">
        <ele>896</ele>
        <time>2015-07-11T07:08:53Z</time>
      </trkpt>
      <trkpt lat="43.69055" lon="6.70937">
        <ele>897</ele>
        <time>2015-07-11T07:08:58Z</time>
      </trkpt>
      <trkpt lat="43.69047" lon="6.70928">
        <ele>898</ele>
        <time>2015-07-11T07:09:03Z</time>
      </trkpt>
      <trkpt lat="43.69038" lon="6.70919">
        <ele>899</ele>
        <time>2015-07-11T07:09:08Z</time>
      </trkpt>
      <trkpt lat="43.69029" lon="6.7091">
        <ele>900</ele>
        <time>2015-07-11T07:09:13Z</time>
      </trkpt>
      <trkpt lat="43.69021" lon="6.709">
        <ele>900</ele>
        <time>2015-07-11T07:09:18Z</time>
      </trkpt>
      <trkpt lat="43.69011" lon="6.70889">
        <ele>898</ele>
        <time>2015-07-11T07:09:23Z</time>
      </trkpt>
      <trkpt lat="43.69003" lon="6.70877">
        <ele>898</ele>
        <time>2015-07-11T07:09:28Z</time>
      </trkpt>
      <trkpt lat="43.68993" lon="6.70866">
        <ele>899</ele>
        <time>2015-07-11T07:09:33Z</time>
      </trkpt>
      <trkpt lat="43.68983" lon="6.70855">
        <ele>898</ele>
        <time>2015-07-11T07:09:38Z</time>
      </trkpt>
      <trkpt lat="43.68976" lon="6.70846">
        <ele>898</ele>
        <time>2015-07-11T07:09:44Z</time>
      </trkpt>
      <trkpt lat="43.68968" lon="6.70832">
        <ele>899</ele>
        <time>2015-07-11T07:09:51Z</time>
      </trkpt>
      <trkpt lat="43.68962" lon="6.70818">
        <ele>899</ele>
        <time>2015-07-11T07:09:56Z</time>
      </trkpt>
      <trkpt lat="43.68959" lon="6.708">
        <ele>899</ele>
        <time>2015-07-11T07:10:01Z</time>
      </trkpt>
      <trkpt lat="43.6896" lon="6.70782">
        <ele>899</ele>
        <time>2015-07-11T07:10:06Z</time>
      </trkpt>
      <trkpt lat="43.68965" lon="6.70764">
        <ele>898</ele>
        <time>2015-07-11T07:10:11Z</time>
      </trkpt>
      <trkpt lat="43.68973" lon="6.7075">
        <ele>898</ele>
        <time>2015-07-11T07:10:16Z</time>
      </trkpt>
      <trkpt lat="43.68982" lon="6.7074">
        <ele>899</ele>
        <time>2015-07-11T07:10:21Z</time>
      </trkpt>
      <trkpt lat="43.68994" lon="6.70735">
        <ele>900</ele>
        <time>2015-07-11T07:10:26Z</time>
      </trkpt>
      <trkpt lat="43.69007" lon="6.7073">
        <ele>901</ele>
        <time>2015-07-11T07:10:31Z</time>
      </trkpt>
      <trkpt lat="43.6902" lon="6.70724">
        <ele>901</ele>
        <time>2015-07-11T07:10:36Z</time>
      </trkpt>
      <trkpt lat="43.69032" lon="6.70719">
        <ele>902</ele>
        <time>2015-07-11T07:10:41Z</time>
      </trkpt>
      <trkpt lat="43.69046" lon="6.70717">
        <ele>902</ele>
        <time>2015-07-11T07:10:46Z</time>
      </trkpt>
      <trkpt lat="43.69063" lon="6.70719">
        <ele>901</ele>
        <time>2015-07-11T07:10:51Z</time>
      </trkpt>
      <trkpt lat="43.69079" lon="6.70728">
        <ele>901</ele>
        <time>2015-07-11T07:10:56Z</time>
      </trkpt>
      <trkpt lat="43.69095" lon="6.70737">
        <ele>899</ele>
        <time>2015-07-11T07:11:01Z</time>
      </trkpt>
      <trkpt lat="43.69112" lon="6.70748">
        <ele>898</ele>
        <time>2015-07-11T07:11:06Z</time>
      </trkpt>
      <trkpt lat="43.69128" lon="6.70759">
        <ele>898</ele>
        <time>2015-07-11T07:11:11Z</time>
      </trkpt>
      <trkpt lat="43.69142" lon="6.70774">
        <ele>898</ele>
        <time>2015-07-11T07:11:16Z</time>
      </trkpt>
      <trkpt lat="43.69156" lon="6.70795">
        <ele>884</ele>
        <time>2015-07-11T07:11:23Z</time>
      </trkpt>
      <trkpt lat="43.69163" lon="6.70812">
        <ele>881</ele>
        <time>2015-07-11T07:11:28Z</time>
      </trkpt>
      <trkpt lat="43.69191" lon="6.70832">
        <ele>873</ele>
        <time>2015-07-11T07:11:34Z</time>
      </trkpt>
      <trkpt lat="43.69194" lon="6.70837">
        <ele>882</ele>
        <time>2015-07-11T07:11:35Z</time>
      </trkpt>
      <trkpt lat="43.69191" lon="6.70844">
        <ele>878</ele>
        <time>2015-07-11T07:11:36Z</time>
      </trkpt>
      <trkpt lat="43.6919" lon="6.70861">
        <ele>887</ele>
        <time>2015-07-11T07:11:38Z</time>
      </trkpt>
      <trkpt lat="43.69227" lon="6.70848">
        <ele>912</ele>
        <time>2015-07-11T07:11:44Z</time>
      </trkpt>
      <trkpt lat="43.69238" lon="6.7085">
        <ele>914</ele>
        <time>2015-07-11T07:11:45Z</time>
      </trkpt>
      <trkpt lat="43.6924" lon="6.70854">
        <ele>912</ele>
        <time>2015-07-11T07:11:46Z</time>
      </trkpt>
      <trkpt lat="43.69231" lon="6.70868">
        <ele>888</ele>
        <time>2015-07-11T07:11:48Z</time>
      </trkpt>
      <trkpt lat="43.6924" lon="6.70865">
        <ele>895</ele>
        <time>2015-07-11T07:11:50Z</time>
      </trkpt>
      <trkpt lat="43.69247" lon="6.70868">
        <ele>906</ele>
        <time>2015-07-11T07:11:55Z</time>
      </trkpt>
      <trkpt lat="43.69255" lon="6.70856">
        <ele>901</ele>
        <time>2015-07-11T07:11:56Z</time>
      </trkpt>
      <trkpt lat="43.69257" lon="6.7087">
        <ele>924</ele>
        <time>2015-07-11T07:11:58Z</time>
      </trkpt>
      <trkpt lat="43.6931" lon="6.70864">
        <ele>902</ele>
        <time>2015-07-11T07:12:20Z</time>
      </trkpt>
      <trkpt lat="43.69314" lon="6.70878">
        <ele>904</ele>
        <time>2015-07-11T07:12:27Z</time>
      </trkpt>
      <trkpt lat="43.69315" lon="6.70888">
        <ele>905</ele>
        <time>2015-07-11T07:12:32Z</time>
      </trkpt>
      <trkpt lat="43.69317" lon="6.70899">
        <ele>907</ele>
        <time>2015-07-11T07:12:37Z</time>
      </trkpt>
      <trkpt lat="43.6932" lon="6.70909">
        <ele>908</ele>
        <time>2015-07-11T07:12:42Z</time>
      </trkpt>
      <trkpt lat="43.69322" lon="6.7092">
        <ele>909</ele>
        <time>2015-07-11T07:12:47Z</time>
      </trkpt>
      <trkpt lat="43.69325" lon="6.70929">
        <ele>910</ele>
        <time>2015-07-11T07:12:52Z</time>
      </trkpt>
      <trkpt lat="43.69328" lon="6.70939">
        <ele>911</ele>
        <time>2015-07-11T07:12:57Z</time>
      </trkpt>
      <trkpt lat="43.69331" lon="6.70948">
        <ele>913</ele>
        <time>2015-07-11T07:13:02Z</time>
      </trkpt>
      <trkpt lat="43.69334" lon="6.70957">
        <ele>914</ele>
        <time>2015-07-11T07:13:07Z</time>
      </trkpt>
      <trkpt lat="43.6934" lon="6.70965">
        <ele>915</ele>
        <time>2015-07-11T07:13:13Z</time>
      </trkpt>
      <trkpt lat="43.6935" lon="6.70972">
        <ele>916</ele>
        <time>2015-07-11T07:13:22Z</time>
      </trkpt>
      <trkpt lat="43.69357" lon="6.7098">
        <ele>917</ele>
        <time>2015-07-11T07:13:28Z</time>
      </trkpt>
      <trkpt lat="43.6936" lon="6.70986">
        <ele>918</ele>
        <time>2015-07-11T07:13:32Z</time>
      </trkpt>
      <trkpt lat="43.69364" lon="6.70995">
        <ele>922</ele>
        <time>2015-07-11T07:13:38Z</time>
      </trkpt>
      <trkpt lat="43.6937" lon="6.71003">
        <ele>922</ele>
        <time>2015-07-11T07:13:45Z</time>
      </trkpt>
      <trkpt lat="43.69377" lon="6.71008">
        <ele>924</ele>
        <time>2015-07-11T07:13:52Z</time>
      </trkpt>
      <trkpt lat="43.69383" lon="6.71012">
        <ele>924</ele>
        <time>2015-07-11T07:13:58Z</time>
      </trkpt>
      <trkpt lat="43.6939" lon="6.71017">
        <ele>924</ele>
        <time>2015-07-11T07:14:05Z</time>
      </trkpt>
      <trkpt lat="43.69394" lon="6.71024">
        <ele>926</ele>
        <time>2015-07-11T07:14:12Z</time>
      </trkpt>
      <trkpt lat="43.69402" lon="6.71027">
        <ele>928</ele>
        <time>2015-07-11T07:14:15Z</time>
      </trkpt>
      <trkpt lat="43.69405" lon="6.71029">
        <ele>931</ele>
        <time>2015-07-11T07:14:18Z</time>
      </trkpt>
      <trkpt lat="43.69408" lon="6.7103">
        <ele>931</ele>
        <time>2015-07-11T07:14:25Z</time>
      </trkpt>
      <trkpt lat="43.69412" lon="6.71034">
        <ele>933</ele>
        <time>2015-07-11T07:14:30Z</time>
      </trkpt>
      <trkpt lat="43.69417" lon="6.7104">
        <ele>934</ele>
        <time>2015-07-11T07:14:37Z</time>
      </trkpt>
      <trkpt lat="43.69423" lon="6.71042">
        <ele>935</ele>
        <time>2015-07-11T07:14:43Z</time>
      </trkpt>
      <trkpt lat="43.69424" lon="6.71054">
        <ele>936</ele>
        <time>2015-07-11T07:14:52Z</time>
      </trkpt>
      <trkpt lat="43.69424" lon="6.71063">
        <ele>937</ele>
        <time>2015-07-11T07:14:58Z</time>
      </trkpt>
      <trkpt lat="43.69423" lon="6.71076">
        <ele>939</ele>
        <time>2015-07-11T07:15:07Z</time>
      </trkpt>
      <trkpt lat="43.69426" lon="6.71086">
        <ele>938</ele>
        <time>2015-07-11T07:15:12Z</time>
      </trkpt>
      <trkpt lat="43.6943" lon="6.71094">
        <ele>939</ele>
        <time>2015-07-11T07:15:17Z</time>
      </trkpt>
      <trkpt lat="43.69434" lon="6.71103">
        <ele>940</ele>
        <time>2015-07-11T07:15:22Z</time>
      </trkpt>
      <trkpt lat="43.6944" lon="6.71109">
        <ele>941</ele>
        <time>2015-07-11T07:15:27Z</time>
      </trkpt>
      <trkpt lat="43.69443" lon="6.71117">
        <ele>942</ele>
        <time>2015-07-11T07:15:33Z</time>
      </trkpt>
      <trkpt lat="43.69449" lon="6.71126">
        <ele>942</ele>
        <time>2015-07-11T07:15:40Z</time>
      </trkpt>
      <trkpt lat="43.69456" lon="6.71122">
        <ele>943</ele>
        <time>2015-07-11T07:15:47Z</time>
      </trkpt>
      <trkpt lat="43.69458" lon="6.71108">
        <ele>944</ele>
        <time>2015-07-11T07:15:55Z</time>
      </trkpt>
      <trkpt lat="43.69461" lon="6.71097">
        <ele>945</ele>
        <time>2015-07-11T07:16:00Z</time>
      </trkpt>
      <trkpt lat="43.69469" lon="6.71091">
        <ele>945</ele>
        <time>2015-07-11T07:16:07Z</time>
      </trkpt>
      <trkpt lat="43.69473" lon="6.71091">
        <ele>943</ele>
        <time>2015-07-11T07:16:10Z</time>
      </trkpt>
      <trkpt lat="43.69481" lon="6.71089">
        <ele>944</ele>
        <time>2015-07-11T07:16:15Z</time>
      </trkpt>
      <trkpt lat="43.69489" lon="6.71089">
        <ele>946</ele>
        <time>2015-07-11T07:16:20Z</time>
      </trkpt>
      <trkpt lat="43.69499" lon="6.71095">
        <ele>945</ele>
        <time>2015-07-11T07:16:27Z</time>
      </trkpt>
      <trkpt lat="43.69507" lon="6.711">
        <ele>945</ele>
        <time>2015-07-11T07:16:32Z</time>
      </trkpt>
      <trkpt lat="43.69514" lon="6.71102">
        <ele>946</ele>
        <time>2015-07-11T07:16:37Z</time>
      </trkpt>
      <trkpt lat="43.69523" lon="6.71104">
        <ele>946</ele>
        <time>2015-07-11T07:16:42Z</time>
      </trkpt>
      <trkpt lat="43.69531" lon="6.71107">
        <ele>946</ele>
        <time>2015-07-11T07:16:47Z</time>
      </trkpt>
      <trkpt lat="43.69536" lon="6.71113">
        <ele>947</ele>
        <time>2015-07-11T07:16:53Z</time>
      </trkpt>
      <trkpt lat="43.69542" lon="6.71112">
        <ele>947</ele>
        <time>2015-07-11T07:17:12Z</time>
      </trkpt>
      <trkpt lat="43.69548" lon="6.7111">
        <ele>947</ele>
        <time>2015-07-11T07:17:17Z</time>
      </trkpt>
      <trkpt lat="43.69558" lon="6.71111">
        <ele>946</ele>
        <time>2015-07-11T07:17:22Z</time>
      </trkpt>
      <trkpt lat="43.69572" lon="6.71114">
        <ele>946</ele>
        <time>2015-07-11T07:17:27Z</time>
      </trkpt>
      <trkpt lat="43.6959" lon="6.71119">
        <ele>945</ele>
        <time>2015-07-11T07:17:32Z</time>
      </trkpt>
      <trkpt lat="43.69606" lon="6.71125">
        <ele>944</ele>
        <time>2015-07-11T07:17:37Z</time>
      </trkpt>
      <trkpt lat="43.69619" lon="6.7112">
        <ele>945</ele>
        <time>2015-07-11T07:17:42Z</time>
      </trkpt>
      <trkpt lat="43.69634" lon="6.71112">
        <ele>946</ele>
        <time>2015-07-11T07:17:47Z</time>
      </trkpt>
      <trkpt lat="43.6964" lon="6.71112">
        <ele>948</ele>
        <time>2015-07-11T07:17:52Z</time>
      </trkpt>
      <trkpt lat="43.69649" lon="6.71109">
        <ele>946</ele>
        <time>2015-07-11T07:17:57Z</time>
      </trkpt>
      <trkpt lat="43.69659" lon="6.71103">
        <ele>947</ele>
        <time>2015-07-11T07:18:02Z</time>
      </trkpt>
      <trkpt lat="43.69662" lon="6.71102">
        <ele>948</ele>
        <time>2015-07-11T07:18:03Z</time>
      </trkpt>
      <trkpt lat="43.69665" lon="6.71101">
        <ele>949</ele>
        <time>2015-07-11T07:18:05Z</time>
      </trkpt>
      <trkpt lat="43.69675" lon="6.71097">
        <ele>949</ele>
        <time>2015-07-11T07:18:10Z</time>
      </trkpt>
      <trkpt lat="43.69685" lon="6.71094">
        <ele>950</ele>
        <time>2015-07-11T07:18:15Z</time>
      </trkpt>
      <trkpt lat="43.69693" lon="6.71094">
        <ele>951</ele>
        <time>2015-07-11T07:18:20Z</time>
      </trkpt>
      <trkpt lat="43.697" lon="6.71089">
        <ele>952</ele>
        <time>2015-07-11T07:18:25Z</time>
      </trkpt>
      <trkpt lat="43.6971" lon="6.71085">
        <ele>953</ele>
        <time>2015-07-11T07:18:30Z</time>
      </trkpt>
      <trkpt lat="43.6972" lon="6.71082">
        <ele>952</ele>
        <time>2015-07-11T07:18:35Z</time>
      </trkpt>
      <trkpt lat="43.69727" lon="6.71083">
        <ele>953</ele>
        <time>2015-07-11T07:18:40Z</time>
      </trkpt>
      <trkpt lat="43.69736" lon="6.71084">
        <ele>953</ele>
        <time>2015-07-11T07:18:45Z</time>
      </trkpt>
      <trkpt lat="43.69744" lon="6.71083">
        <ele>954</ele>
        <time>2015-07-11T07:18:50Z</time>
      </trkpt>
      <trkpt lat="43.69751" lon="6.71083">
        <ele>954</ele>
        <time>2015-07-11T07:18:55Z</time>
      </trkpt>
      <trkpt lat="43.6976" lon="6.71085">
        <ele>954</ele>
        <time>2015-07-11T07:19:00Z</time>
      </trkpt>
      <trkpt lat="43.69768" lon="6.71084">
        <ele>955</ele>
        <time>2015-07-11T07:19:05Z</time>
      </trkpt>
      <trkpt lat="43.69776" lon="6.71084">
        <ele>956</ele>
        <time>2015-07-11T07:19:10Z</time>
      </trkpt>
      <trkpt lat="43.6979" lon="6.71083">
        <ele>957</ele>
        <time>2015-07-11T07:19:18Z</time>
      </trkpt>
      <trkpt lat="43.69801" lon="6.71083">
        <ele>958</ele>
        <time>2015-07-11T07:19:25Z</time>
      </trkpt>
      <trkpt lat="43.69804" lon="6.71084">
        <ele>959</ele>
        <time>2015-07-11T07:19:27Z</time>
      </trkpt>
      <trkpt lat="43.69813" lon="6.71086">
        <ele>959</ele>
        <time>2015-07-11T07:19:33Z</time>
      </trkpt>
      <trkpt lat="43.69826" lon="6.71092">
        <ele>957</ele>
        <time>2015-07-11T07:19:40Z</time>
      </trkpt>
      <trkpt lat="43.69836" lon="6.71095">
        <ele>959</ele>
        <time>2015-07-11T07:19:45Z</time>
      </trkpt>
      <trkpt lat="43.69844" lon="6.71097">
        <ele>959</ele>
        <time>2015-07-11T07:19:50Z</time>
      </trkpt>
      <trkpt lat="43.69852" lon="6.71098">
        <ele>960</ele>
        <time>2015-07-11T07:19:55Z</time>
      </trkpt>
      <trkpt lat="43.6986" lon="6.71099">
        <ele>961</ele>
        <time>2015-07-11T07:20:00Z</time>
      </trkpt>
      <trkpt lat="43.69868" lon="6.71094">
        <ele>962</ele>
        <time>2015-07-11T07:20:05Z</time>
      </trkpt>
      <trkpt lat="43.69875" lon="6.71087">
        <ele>962</ele>
        <time>2015-07-11T07:20:10Z</time>
      </trkpt>
      <trkpt lat="43.69882" lon="6.7108">
        <ele>964</ele>
        <time>2015-07-11T07:20:15Z</time>
      </trkpt>
      <trkpt lat="43.69888" lon="6.71077">
        <ele>965</ele>
        <time>2015-07-11T07:20:20Z</time>
      </trkpt>
      <trkpt lat="43.69894" lon="6.71073">
        <ele>966</ele>
        <time>2015-07-11T07:20:25Z</time>
      </trkpt>
      <trkpt lat="43.69904" lon="6.71066">
        <ele>966</ele>
        <time>2015-07-11T07:20:32Z</time>
      </trkpt>
      <trkpt lat="43.6991" lon="6.71069">
        <ele>967</ele>
        <time>2015-07-11T07:20:38Z</time>
      </trkpt>
      <trkpt lat="43.69908" lon="6.71078">
        <ele>968</ele>
        <time>2015-07-11T07:20:45Z</time>
      </trkpt>
      <trkpt lat="43.69904" lon="6.71089">
        <ele>970</ele>
        <time>2015-07-11T07:20:52Z</time>
      </trkpt>
      <trkpt lat="43.69901" lon="6.71098">
        <ele>971</ele>
        <time>2015-07-11T07:20:57Z</time>
      </trkpt>
      <trkpt lat="43.69898" lon="6.71109">
        <ele>970</ele>
        <time>2015-07-11T07:21:02Z</time>
      </trkpt>
      <trkpt lat="43.69895" lon="6.71118">
        <ele>970</ele>
        <time>2015-07-11T07:21:07Z</time>
      </trkpt>
      <trkpt lat="43.69892" lon="6.71129">
        <ele>972</ele>
        <time>2015-07-11T07:21:13Z</time>
      </trkpt>
      <trkpt lat="43.69891" lon="6.7114">
        <ele>972</ele>
        <time>2015-07-11T07:21:20Z</time>
      </trkpt>
      <trkpt lat="43.6989" lon="6.71152">
        <ele>974</ele>
        <time>2015-07-11T07:21:27Z</time>
      </trkpt>
      <trkpt lat="43.69889" lon="6.71161">
        <ele>975</ele>
        <time>2015-07-11T07:21:33Z</time>
      </trkpt>
      <trkpt lat="43.69885" lon="6.71172">
        <ele>976</ele>
        <time>2015-07-11T07:21:40Z</time>
      </trkpt>
      <trkpt lat="43.69883" lon="6.71177">
        <ele>978</ele>
        <time>2015-07-11T07:21:45Z</time>
      </trkpt>
      <trkpt lat="43.69882" lon="6.71185">
        <ele>979</ele>
        <time>2015-07-11T07:21:50Z</time>
      </trkpt>
      <trkpt lat="43.69879" lon="6.71197">
        <ele>980</ele>
        <time>2015-07-11T07:21:57Z</time>
      </trkpt>
      <trkpt lat="43.69877" lon="6.71207">
        <ele>981</ele>
        <time>2015-07-11T07:22:03Z</time>
      </trkpt>
      <trkpt lat="43.69874" lon="6.71215">
        <ele>983</ele>
        <time>2015-07-11T07:22:08Z</time>
      </trkpt>
      <trkpt lat="43.69867" lon="6.71223">
        <ele>983</ele>
        <time>2015-07-11T07:22:15Z</time>
      </trkpt>
      <trkpt lat="43.69861" lon="6.7123">
        <ele>982</ele>
        <time>2015-07-11T07:22:22Z</time>
      </trkpt>
      <trkpt lat="43.69858" lon="6.71237">
        <ele>983</ele>
        <time>2015-07-11T07:22:28Z</time>
      </trkpt>
      <trkpt lat="43.69851" lon="6.71246">
        <ele>983</ele>
        <time>2015-07-11T07:22:35Z</time>
      </trkpt>
      <trkpt lat="43.69852" lon="6.71252">
        <ele>983</ele>
        <time>2015-07-11T07:22:38Z</time>
      </trkpt>
      <trkpt lat="43.69846" lon="6.71254">
        <ele>986</ele>
        <time>2015-07-11T07:22:42Z</time>
      </trkpt>
      <trkpt lat="43.69802" lon="6.71295">
        <ele>984</ele>
        <time>2015-07-11T07:23:20Z</time>
      </trkpt>
      <trkpt lat="43.69795" lon="6.71302">
        <ele>990</ele>
        <time>2015-07-11T07:23:26Z</time>
      </trkpt>
      <trkpt lat="43.69794" lon="6.71307">
        <ele>991</ele>
        <time>2015-07-11T07:23:29Z</time>
      </trkpt>
      <trkpt lat="43.69792" lon="6.71317">
        <ele>992</ele>
        <time>2015-07-11T07:23:35Z</time>
      </trkpt>
      <trkpt lat="43.69792" lon="6.71327">
        <ele>993</ele>
        <time>2015-07-11T07:23:40Z</time>
      </trkpt>
      <trkpt lat="43.69793" lon="6.7134">
        <ele>994</ele>
        <time>2015-07-11T07:23:47Z</time>
      </trkpt>
      <trkpt lat="43.69794" lon="6.7135">
        <ele>996</ele>
        <time>2015-07-11T07:23:53Z</time>
      </trkpt>
      <trkpt lat="43.69796" lon="6.71363">
        <ele>996</ele>
        <time>2015-07-11T07:24:00Z</time>
      </trkpt>
      <trkpt lat="43.69797" lon="6.71372">
        <ele>996</ele>
        <time>2015-07-11T07:24:05Z</time>
      </trkpt>
      <trkpt lat="43.69797" lon="6.71381">
        <ele>997</ele>
        <time>2015-07-11T07:24:10Z</time>
      </trkpt>
      <trkpt lat="43.69796" lon="6.71389">
        <ele>996</ele>
        <time>2015-07-11T07:24:27Z</time>
      </trkpt>
      <trkpt lat="43.69799" lon="6.71388">
        <ele>997</ele>
        <time>2015-07-11T07:25:15Z</time>
      </trkpt>
      <trkpt lat="43.69804" lon="6.71387">
        <ele>996</ele>
        <time>2015-07-11T07:25:22Z</time>
      </trkpt>
      <trkpt lat="43.69804" lon="6.71394">
        <ele>1003</ele>
        <time>2015-07-11T07:27:22Z</time>
      </trkpt>
      <trkpt lat="43.69806" lon="6.71403">
        <ele>1003</ele>
        <time>2015-07-11T07:27:27Z</time>
      </trkpt>
      <trkpt lat="43.69809" lon="6.71414">
        <ele>1003</ele>
        <time>2015-07-11T07:27:32Z</time>
      </trkpt>
      <trkpt lat="43.69813" lon="6.71424">
        <ele>1003</ele>
        <time>2015-07-11T07:27:37Z</time>
      </trkpt>
      <trkpt lat="43.69815" lon="6.71434">
        <ele>1003</ele>
        <time>2015-07-11T07:27:42Z</time>
      </trkpt>
      <trkpt lat="43.69819" lon="6.71446">
        <ele>1003</ele>
        <time>2015-07-11T07:27:47Z</time>
      </trkpt>
      <trkpt lat="43.69823" lon="6.71456">
        <ele>1002</ele>
        <time>2015-07-11T07:27:52Z</time>
      </trkpt>
      <trkpt lat="43.69827" lon="6.71465">
        <ele>1001</ele>
        <time>2015-07-11T07:27:57Z</time>
      </trkpt>
      <trkpt lat="43.6983" lon="6.71477">
        <ele>1001</ele>
        <time>2015-07-11T07:28:02Z</time>
      </trkpt>
      <trkpt lat="43.69833" lon="6.71488">
        <ele>1003</ele>
        <time>2015-07-11T07:28:07Z</time>
      </trkpt>
      <trkpt lat="43.69835" lon="6.71499">
        <ele>1003</ele>
        <time>2015-07-11T07:28:12Z</time>
      </trkpt>
      <trkpt lat="43.69838" lon="6.71512">
        <ele>1005</ele>
        <time>2015-07-11T07:28:17Z</time>
      </trkpt>
      <trkpt lat="43.69841" lon="6.71522">
        <ele>1005</ele>
        <time>2015-07-11T07:28:22Z</time>
      </trkpt>
      <trkpt lat="43.69844" lon="6.71531">
        <ele>1005</ele>
        <time>2015-07-11T07:28:27Z</time>
      </trkpt>
      <trkpt lat="43.69846" lon="6.71542">
        <ele>1007</ele>
        <time>2015-07-11T07:28:33Z</time>
      </trkpt>
      <trkpt lat="43.6985" lon="6.71555">
        <ele>1007</ele>
        <time>2015-07-11T07:28:40Z</time>
      </trkpt>
      <trkpt lat="43.69854" lon="6.71566">
        <ele>1007</ele>
        <time>2015-07-11T07:28:45Z</time>
      </trkpt>
      <trkpt lat="43.69857" lon="6.71576">
        <ele>1008</ele>
        <time>2015-07-11T07:28:50Z</time>
      </trkpt>
      <trkpt lat="43.69861" lon="6.71586">
        <ele>1009</ele>
        <time>2015-07-11T07:28:55Z</time>
      </trkpt>
      <trkpt lat="43.69864" lon="6.71596">
        <ele>1011</ele>
        <time>2015-07-11T07:29:00Z</time>
      </trkpt>
      <trkpt lat="43.69867" lon="6.71606">
        <ele>1012</ele>
        <time>2015-07-11T07:29:05Z</time>
      </trkpt>
      <trkpt lat="43.69871" lon="6.71615">
        <ele>1012</ele>
        <time>2015-07-11T07:29:10Z</time>
      </trkpt>
      <trkpt lat="43.69875" lon="6.71625">
        <ele>1013</ele>
        <time>2015-07-11T07:29:15Z</time>
      </trkpt>
      <trkpt lat="43.6988" lon="6.71636">
        <ele>1013</ele>
        <time>2015-07-11T07:29:22Z</time>
      </trkpt>
      <trkpt lat="43.69884" lon="6.71644">
        <ele>1014</ele>
        <time>2015-07-11T07:29:27Z</time>
      </trkpt>
      <trkpt lat="43.69888" lon="6.71654">
        <ele>1014</ele>
        <time>2015-07-11T07:29:32Z</time>
      </trkpt>
      <trkpt lat="43.69893" lon="6.71664">
        <ele>1015</ele>
        <time>2015-07-11T07:29:37Z</time>
      </trkpt>
      <trkpt lat="43.69899" lon="6.71673">
        <ele>1015</ele>
        <time>2015-07-11T07:29:42Z</time>
      </trkpt>
      <trkpt lat="43.69914" lon="6.71687">
        <ele>1008</ele>
        <time>2015-07-11T07:29:49Z</time>
      </trkpt>
      <trkpt lat="43.6992" lon="6.71698">
        <ele>1017</ele>
        <time>2015-07-11T07:29:56Z</time>
      </trkpt>
      <trkpt lat="43.69926" lon="6.71704">
        <ele>1018</ele>
        <time>2015-07-11T07:30:01Z</time>
      </trkpt>
      <trkpt lat="43.69932" lon="6.7171">
        <ele>1018</ele>
        <time>2015-07-11T07:30:06Z</time>
      </trkpt>
      <trkpt lat="43.69941" lon="6.71714">
        <ele>1018</ele>
        <time>2015-07-11T07:30:11Z</time>
      </trkpt>
      <trkpt lat="43.69949" lon="6.71716">
        <ele>1018</ele>
        <time>2015-07-11T07:30:16Z</time>
      </trkpt>
      <trkpt lat="43.69957" lon="6.71717">
        <ele>1017</ele>
        <time>2015-07-11T07:30:21Z</time>
      </trkpt>
      <trkpt lat="43.69964" lon="6.71718">
        <ele>1018</ele>
        <time>2015-07-11T07:30:26Z</time>
      </trkpt>
      <trkpt lat="43.69972" lon="6.71718">
        <ele>1018</ele>
        <time>2015-07-11T07:30:31Z</time>
      </trkpt>
      <trkpt lat="43.69979" lon="6.71718">
        <ele>1019</ele>
        <time>2015-07-11T07:30:36Z</time>
      </trkpt>
      <trkpt lat="43.69985" lon="6.71717">
        <ele>1019</ele>
        <time>2015-07-11T07:30:41Z</time>
      </trkpt>
      <trkpt lat="43.69994" lon="6.71713">
        <ele>1017</ele>
        <time>2015-07-11T07:30:48Z</time>
      </trkpt>
      <trkpt lat="43.70001" lon="6.71713">
        <ele>1019</ele>
        <time>2015-07-11T07:30:53Z</time>
      </trkpt>
      <trkpt lat="43.70008" lon="6.7171">
        <ele>1020</ele>
        <time>2015-07-11T07:30:59Z</time>
      </trkpt>
      <trkpt lat="43.70016" lon="6.71704">
        <ele>1021</ele>
        <time>2015-07-11T07:31:06Z</time>
      </trkpt>
      <trkpt lat="43.70022" lon="6.717">
        <ele>1021</ele>
        <time>2015-07-11T07:31:11Z</time>
      </trkpt>
      <trkpt lat="43.70031" lon="6.71698">
        <ele>1024</ele>
        <time>2015-07-11T07:31:18Z</time>
      </trkpt>
      <trkpt lat="43.7004" lon="6.71699">
        <ele>1026</ele>
        <time>2015-07-11T07:31:24Z</time>
      </trkpt>
      <trkpt lat="43.7005" lon="6.71704">
        <ele>1026</ele>
        <time>2015-07-11T07:31:31Z</time>
      </trkpt>
      <trkpt lat="43.70056" lon="6.7171">
        <ele>1028</ele>
        <time>2015-07-11T07:31:36Z</time>
      </trkpt>
      <trkpt lat="43.70063" lon="6.71714">
        <ele>1029</ele>
        <time>2015-07-11T07:31:41Z</time>
      </trkpt>
      <trkpt lat="43.70072" lon="6.71718">
        <ele>1031</ele>
        <time>2015-07-11T07:31:48Z</time>
      </trkpt>
      <trkpt lat="43.70077" lon="6.71724">
        <ele>1032</ele>
        <time>2015-07-11T07:31:53Z</time>
      </trkpt>
      <trkpt lat="43.70084" lon="6.71728">
        <ele>1033</ele>
        <time>2015-07-11T07:31:58Z</time>
      </trkpt>
      <trkpt lat="43.7009" lon="6.71732">
        <ele>1033</ele>
        <time>2015-07-11T07:32:03Z</time>
      </trkpt>
      <trkpt lat="43.70099" lon="6.71739">
        <ele>1033</ele>
        <time>2015-07-11T07:32:11Z</time>
      </trkpt>
      <trkpt lat="43.70105" lon="6.71743">
        <ele>1034</ele>
        <time>2015-07-11T07:32:16Z</time>
      </trkpt>
      <trkpt lat="43.70112" lon="6.71744">
        <ele>1035</ele>
        <time>2015-07-11T07:32:21Z</time>
      </trkpt>
      <trkpt lat="43.70118" lon="6.71746">
        <ele>1036</ele>
        <time>2015-07-11T07:32:26Z</time>
      </trkpt>
      <trkpt lat="43.70125" lon="6.71746">
        <ele>1037</ele>
        <time>2015-07-11T07:32:31Z</time>
      </trkpt>
      <trkpt lat="43.70132" lon="6.71744">
        <ele>1039</ele>
        <time>2015-07-11T07:32:36Z</time>
      </trkpt>
      <trkpt lat="43.7014" lon="6.71744">
        <ele>1040</ele>
        <time>2015-07-11T07:32:43Z</time>
      </trkpt>
      <trkpt lat="43.70146" lon="6.71741">
        <ele>1041</ele>
        <time>2015-07-11T07:32:48Z</time>
      </trkpt>
      <trkpt lat="43.70153" lon="6.71738">
        <ele>1043</ele>
        <time>2015-07-11T07:32:54Z</time>
      </trkpt>
      <trkpt lat="43.70162" lon="6.71737">
        <ele>1042</ele>
        <time>2015-07-11T07:33:01Z</time>
      </trkpt>
      <trkpt lat="43.70169" lon="6.71737">
        <ele>1043</ele>
        <time>2015-07-11T07:33:06Z</time>
      </trkpt>
      <trkpt lat="43.70175" lon="6.71735">
        <ele>1043</ele>
        <time>2015-07-11T07:33:11Z</time>
      </trkpt>
      <trkpt lat="43.70181" lon="6.71734">
        <ele>1044</ele>
        <time>2015-07-11T07:33:16Z</time>
      </trkpt>
      <trkpt lat="43.70188" lon="6.71734">
        <ele>1045</ele>
        <time>2015-07-11T07:33:21Z</time>
      </trkpt>
      <trkpt lat="43.70196" lon="6.71733">
        <ele>1046</ele>
        <time>2015-07-11T07:33:28Z</time>
      </trkpt>
      <trkpt lat="43.70202" lon="6.71731">
        <ele>1046</ele>
        <time>2015-07-11T07:33:33Z</time>
      </trkpt>
      <trkpt lat="43.7021" lon="6.71732">
        <ele>1048</ele>
        <time>2015-07-11T07:33:38Z</time>
      </trkpt>
      <trkpt lat="43.70212" lon="6.71727">
        <ele>1050</ele>
        <time>2015-07-11T07:33:41Z</time>
      </trkpt>
      <trkpt lat="43.70219" lon="6.71724">
        <ele>1050</ele>
        <time>2015-07-11T07:33:46Z</time>
      </trkpt>
      <trkpt lat="43.70226" lon="6.71722">
        <ele>1050</ele>
        <time>2015-07-11T07:33:51Z</time>
      </trkpt>
      <trkpt lat="43.70233" lon="6.71721">
        <ele>1050</ele>
        <time>2015-07-11T07:33:56Z</time>
      </trkpt>
      <trkpt lat="43.70242" lon="6.71721">
        <ele>1050</ele>
        <time>2015-07-11T07:34:01Z</time>
      </trkpt>
      <trkpt lat="43.70249" lon="6.71726">
        <ele>1051</ele>
        <time>2015-07-11T07:34:06Z</time>
      </trkpt>
      <trkpt lat="43.7025" lon="6.7173">
        <ele>1044</ele>
        <time>2015-07-11T07:35:16Z</time>
      </trkpt>
      <trkpt lat="43.70273" lon="6.71753">
        <ele>1049</ele>
        <time>2015-07-11T07:37:40Z</time>
      </trkpt>
      <trkpt lat="43.70284" lon="6.71758">
        <ele>1051</ele>
        <time>2015-07-11T07:37:47Z</time>
      </trkpt>
      <trkpt lat="43.70293" lon="6.7176">
        <ele>1052</ele>
        <time>2015-07-11T07:37:53Z</time>
      </trkpt>
      <trkpt lat="43.70302" lon="6.71755">
        <ele>1053</ele>
        <time>2015-07-11T07:37:59Z</time>
      </trkpt>
      <trkpt lat="43.70309" lon="6.71744">
        <ele>1053</ele>
        <time>2015-07-11T07:38:05Z</time>
      </trkpt>
      <trkpt lat="43.70315" lon="6.71731">
        <ele>1054</ele>
        <time>2015-07-11T07:38:11Z</time>
      </trkpt>
      <trkpt lat="43.70322" lon="6.71721">
        <ele>1055</ele>
        <time>2015-07-11T07:38:17Z</time>
      </trkpt>
      <trkpt lat="43.70329" lon="6.7171">
        <ele>1055</ele>
        <time>2015-07-11T07:38:23Z</time>
      </trkpt>
      <trkpt lat="43.70337" lon="6.71701">
        <ele>1055</ele>
        <time>2015-07-11T07:38:29Z</time>
      </trkpt>
      <trkpt lat="43.70345" lon="6.71692">
        <ele>1057</ele>
        <time>2015-07-11T07:38:35Z</time>
      </trkpt>
      <trkpt lat="43.70354" lon="6.71685">
        <ele>1058</ele>
        <time>2015-07-11T07:38:41Z</time>
      </trkpt>
      <trkpt lat="43.7036" lon="6.71679">
        <ele>1056</ele>
        <time>2015-07-11T07:38:46Z</time>
      </trkpt>
      <trkpt lat="43.70367" lon="6.71672">
        <ele>1057</ele>
        <time>2015-07-11T07:38:52Z</time>
      </trkpt>
      <trkpt lat="43.70374" lon="6.71667">
        <ele>1058</ele>
        <time>2015-07-11T07:38:58Z</time>
      </trkpt>
      <trkpt lat="43.70379" lon="6.71662">
        <ele>1059</ele>
        <time>2015-07-11T07:39:04Z</time>
      </trkpt>
      <trkpt lat="43.70384" lon="6.71656">
        <ele>1061</ele>
        <time>2015-07-11T07:39:09Z</time>
      </trkpt>
      <trkpt lat="43.7039" lon="6.71652">
        <ele>1060</ele>
        <time>2015-07-11T07:39:14Z</time>
      </trkpt>
      <trkpt lat="43.70398" lon="6.71647">
        <ele>1061</ele>
        <time>2015-07-11T07:39:20Z</time>
      </trkpt>
      <trkpt lat="43.70403" lon="6.71641">
        <ele>1061</ele>
        <time>2015-07-11T07:39:25Z</time>
      </trkpt>
      <trkpt lat="43.70407" lon="6.71635">
        <ele>1063</ele>
        <time>2015-07-11T07:39:31Z</time>
      </trkpt>
      <trkpt lat="43.70414" lon="6.7163">
        <ele>1062</ele>
        <time>2015-07-11T07:39:37Z</time>
      </trkpt>
      <trkpt lat="43.7042" lon="6.71627">
        <ele>1064</ele>
        <time>2015-07-11T07:39:43Z</time>
      </trkpt>
      <trkpt lat="43.70426" lon="6.71622">
        <ele>1064</ele>
        <time>2015-07-11T07:39:49Z</time>
      </trkpt>
      <trkpt lat="43.70432" lon="6.71612">
        <ele>1064</ele>
        <time>2015-07-11T07:39:56Z</time>
      </trkpt>
      <trkpt lat="43.7044" lon="6.71605">
        <ele>1066</ele>
        <time>2015-07-11T07:40:03Z</time>
      </trkpt>
      <trkpt lat="43.70447" lon="6.71601">
        <ele>1066</ele>
        <time>2015-07-11T07:40:09Z</time>
      </trkpt>
      <trkpt lat="43.70453" lon="6.71597">
        <ele>1069</ele>
        <time>2015-07-11T07:40:15Z</time>
      </trkpt>
      <trkpt lat="43.70459" lon="6.71593">
        <ele>1070</ele>
        <time>2015-07-11T07:40:20Z</time>
      </trkpt>
      <trkpt lat="43.70465" lon="6.71589">
        <ele>1071</ele>
        <time>2015-07-11T07:40:25Z</time>
      </trkpt>
      <trkpt lat="43.70473" lon="6.71584">
        <ele>1072</ele>
        <time>2015-07-11T07:40:31Z</time>
      </trkpt>
      <trkpt lat="43.7048" lon="6.71575">
        <ele>1071</ele>
        <time>2015-07-11T07:40:36Z</time>
      </trkpt>
      <trkpt lat="43.70487" lon="6.71568">
        <ele>1071</ele>
        <time>2015-07-11T07:40:42Z</time>
      </trkpt>
      <trkpt lat="43.70495" lon="6.71561">
        <ele>1071</ele>
        <time>2015-07-11T07:40:48Z</time>
      </trkpt>
      <trkpt lat="43.70502" lon="6.71557">
        <ele>1070</ele>
        <time>2015-07-11T07:40:54Z</time>
      </trkpt>
      <trkpt lat="43.70509" lon="6.71556">
        <ele>1073</ele>
        <time>2015-07-11T07:41:00Z</time>
      </trkpt>
      <trkpt lat="43.70515" lon="6.71556">
        <ele>1075</ele>
        <time>2015-07-11T07:41:05Z</time>
      </trkpt>
      <trkpt lat="43.70524" lon="6.71551">
        <ele>1077</ele>
        <time>2015-07-11T07:41:12Z</time>
      </trkpt>
      <trkpt lat="43.70531" lon="6.71545">
        <ele>1078</ele>
        <time>2015-07-11T07:41:18Z</time>
      </trkpt>
      <trkpt lat="43.70537" lon="6.71539">
        <ele>1079</ele>
        <time>2015-07-11T07:41:24Z</time>
      </trkpt>
      <trkpt lat="43.70542" lon="6.71535">
        <ele>1079</ele>
        <time>2015-07-11T07:41:29Z</time>
      </trkpt>
      <trkpt lat="43.70548" lon="6.71528">
        <ele>1080</ele>
        <time>2015-07-11T07:41:35Z</time>
      </trkpt>
      <trkpt lat="43.70551" lon="6.71521">
        <ele>1080</ele>
        <time>2015-07-11T07:41:40Z</time>
      </trkpt>
      <trkpt lat="43.70557" lon="6.71511">
        <ele>1080</ele>
        <time>2015-07-11T07:41:47Z</time>
      </trkpt>
      <trkpt lat="43.70563" lon="6.71499">
        <ele>1082</ele>
        <time>2015-07-11T07:41:54Z</time>
      </trkpt>
      <trkpt lat="43.70567" lon="6.71491">
        <ele>1083</ele>
        <time>2015-07-11T07:41:59Z</time>
      </trkpt>
      <trkpt lat="43.70572" lon="6.71481">
        <ele>1084</ele>
        <time>2015-07-11T07:42:05Z</time>
      </trkpt>
      <trkpt lat="43.70575" lon="6.71471">
        <ele>1085</ele>
        <time>2015-07-11T07:42:11Z</time>
      </trkpt>
      <trkpt lat="43.70579" lon="6.71463">
        <ele>1086</ele>
        <time>2015-07-11T07:42:16Z</time>
      </trkpt>
      <trkpt lat="43.70584" lon="6.71456">
        <ele>1086</ele>
        <time>2015-07-11T07:42:21Z</time>
      </trkpt>
      <trkpt lat="43.70587" lon="6.71448">
        <ele>1087</ele>
        <time>2015-07-11T07:42:26Z</time>
      </trkpt>
      <trkpt lat="43.70591" lon="6.7144">
        <ele>1087</ele>
        <time>2015-07-11T07:42:31Z</time>
      </trkpt>
      <trkpt lat="43.70596" lon="6.7143">
        <ele>1087</ele>
        <time>2015-07-11T07:42:38Z</time>
      </trkpt>
      <trkpt lat="43.70602" lon="6.71419">
        <ele>1087</ele>
        <time>2015-07-11T07:42:44Z</time>
      </trkpt>
      <trkpt lat="43.70606" lon="6.7141">
        <ele>1088</ele>
        <time>2015-07-11T07:42:50Z</time>
      </trkpt>
      <trkpt lat="43.70611" lon="6.71401">
        <ele>1090</ele>
        <time>2015-07-11T07:42:56Z</time>
      </trkpt>
      <trkpt lat="43.70618" lon="6.7139">
        <ele>1094</ele>
        <time>2015-07-11T07:43:03Z</time>
      </trkpt>
      <trkpt lat="43.70623" lon="6.71377">
        <ele>1093</ele>
        <time>2015-07-11T07:43:09Z</time>
      </trkpt>
      <trkpt lat="43.70628" lon="6.71367">
        <ele>1094</ele>
        <time>2015-07-11T07:43:15Z</time>
      </trkpt>
      <trkpt lat="43.70633" lon="6.71359">
        <ele>1094</ele>
        <time>2015-07-11T07:43:20Z</time>
      </trkpt>
      <trkpt lat="43.70638" lon="6.71353">
        <ele>1095</ele>
        <time>2015-07-11T07:43:25Z</time>
      </trkpt>
      <trkpt lat="43.70644" lon="6.71344">
        <ele>1098</ele>
        <time>2015-07-11T07:43:31Z</time>
      </trkpt>
      <trkpt lat="43.70648" lon="6.71337">
        <ele>1098</ele>
        <time>2015-07-11T07:43:36Z</time>
      </trkpt>
      <trkpt lat="43.70652" lon="6.71328">
        <ele>1100</ele>
        <time>2015-07-11T07:43:41Z</time>
      </trkpt>
      <trkpt lat="43.70655" lon="6.71321">
        <ele>1101</ele>
        <time>2015-07-11T07:43:46Z</time>
      </trkpt>
      <trkpt lat="43.70661" lon="6.71311">
        <ele>1100</ele>
        <time>2015-07-11T07:43:52Z</time>
      </trkpt>
      <trkpt lat="43.70669" lon="6.71304">
        <ele>1100</ele>
        <time>2015-07-11T07:43:58Z</time>
      </trkpt>
      <trkpt lat="43.70675" lon="6.71298">
        <ele>1101</ele>
        <time>2015-07-11T07:44:03Z</time>
      </trkpt>
      <trkpt lat="43.7068" lon="6.71291">
        <ele>1100</ele>
        <time>2015-07-11T07:44:08Z</time>
      </trkpt>
      <trkpt lat="43.70687" lon="6.71282">
        <ele>1101</ele>
        <time>2015-07-11T07:44:14Z</time>
      </trkpt>
      <trkpt lat="43.70693" lon="6.71278">
        <ele>1102</ele>
        <time>2015-07-11T07:44:19Z</time>
      </trkpt>
      <trkpt lat="43.707" lon="6.71274">
        <ele>1104</ele>
        <time>2015-07-11T07:44:25Z</time>
      </trkpt>
      <trkpt lat="43.70708" lon="6.71267">
        <ele>1104</ele>
        <time>2015-07-11T07:44:31Z</time>
      </trkpt>
      <trkpt lat="43.70714" lon="6.71263">
        <ele>1105</ele>
        <time>2015-07-11T07:44:36Z</time>
      </trkpt>
      <trkpt lat="43.70721" lon="6.71259">
        <ele>1105</ele>
        <time>2015-07-11T07:44:42Z</time>
      </trkpt>
      <trkpt lat="43.70726" lon="6.71253">
        <ele>1105</ele>
        <time>2015-07-11T07:44:47Z</time>
      </trkpt>
      <trkpt lat="43.70735" lon="6.71247">
        <ele>1105</ele>
        <time>2015-07-11T07:44:53Z</time>
      </trkpt>
      <trkpt lat="43.70745" lon="6.71244">
        <ele>1104</ele>
        <time>2015-07-11T07:44:59Z</time>
      </trkpt>
      <trkpt lat="43.70756" lon="6.71241">
        <ele>1106</ele>
        <time>2015-07-11T07:45:05Z</time>
      </trkpt>
      <trkpt lat="43.70765" lon="6.71239">
        <ele>1108</ele>
        <time>2015-07-11T07:45:11Z</time>
      </trkpt>
      <trkpt lat="43.70775" lon="6.71239">
        <ele>1108</ele>
        <time>2015-07-11T07:45:17Z</time>
      </trkpt>
      <trkpt lat="43.70784" lon="6.71244">
        <ele>1110</ele>
        <time>2015-07-11T07:45:23Z</time>
      </trkpt>
      <trkpt lat="43.7079" lon="6.71248">
        <ele>1111</ele>
        <time>2015-07-11T07:45:28Z</time>
      </trkpt>
      <trkpt lat="43.70799" lon="6.71251">
        <ele>1113</ele>
        <time>2015-07-11T07:45:34Z</time>
      </trkpt>
      <trkpt lat="43.70809" lon="6.71247">
        <ele>1113</ele>
        <time>2015-07-11T07:45:41Z</time>
      </trkpt>
      <trkpt lat="43.70815" lon="6.71244">
        <ele>1114</ele>
        <time>2015-07-11T07:45:46Z</time>
      </trkpt>
      <trkpt lat="43.70821" lon="6.71239">
        <ele>1115</ele>
        <time>2015-07-11T07:45:51Z</time>
      </trkpt>
      <trkpt lat="43.70828" lon="6.71232">
        <ele>1115</ele>
        <time>2015-07-11T07:45:57Z</time>
      </trkpt>
      <trkpt lat="43.70836" lon="6.71222">
        <ele>1114</ele>
        <time>2015-07-11T07:46:03Z</time>
      </trkpt>
      <trkpt lat="43.70845" lon="6.71221">
        <ele>1117</ele>
        <time>2015-07-11T07:46:36Z</time>
      </trkpt>
      <trkpt lat="43.70843" lon="6.71222">
        <ele>1118</ele>
        <time>2015-07-11T07:46:49Z</time>
      </trkpt>
      <trkpt lat="43.70845" lon="6.71219">
        <ele>1119</ele>
        <time>2015-07-11T07:50:02Z</time>
      </trkpt>
      <trkpt lat="43.70851" lon="6.71221">
        <ele>1117</ele>
        <time>2015-07-11T07:50:19Z</time>
      </trkpt>
      <trkpt lat="43.70854" lon="6.71221">
        <ele>1116</ele>
        <time>2015-07-11T07:50:51Z</time>
      </trkpt>
      <trkpt lat="43.70862" lon="6.71225">
        <ele>1116</ele>
        <time>2015-07-11T07:50:57Z</time>
      </trkpt>
      <trkpt lat="43.7087" lon="6.7123">
        <ele>1117</ele>
        <time>2015-07-11T07:51:03Z</time>
      </trkpt>
      <trkpt lat="43.70879" lon="6.71235">
        <ele>1118</ele>
        <time>2015-07-11T07:51:09Z</time>
      </trkpt>
      <trkpt lat="43.70888" lon="6.71241">
        <ele>1119</ele>
        <time>2015-07-11T07:51:15Z</time>
      </trkpt>
      <trkpt lat="43.70896" lon="6.7125">
        <ele>1119</ele>
        <time>2015-07-11T07:51:21Z</time>
      </trkpt>
      <trkpt lat="43.70904" lon="6.71259">
        <ele>1120</ele>
        <time>2015-07-11T07:51:27Z</time>
      </trkpt>
      <trkpt lat="43.7091" lon="6.71272">
        <ele>1121</ele>
        <time>2015-07-11T07:51:33Z</time>
      </trkpt>
      <trkpt lat="43.70913" lon="6.71284">
        <ele>1121</ele>
        <time>2015-07-11T07:51:39Z</time>
      </trkpt>
      <trkpt lat="43.70915" lon="6.71293">
        <ele>1121</ele>
        <time>2015-07-11T07:51:44Z</time>
      </trkpt>
      <trkpt lat="43.70918" lon="6.71306">
        <ele>1122</ele>
        <time>2015-07-11T07:51:50Z</time>
      </trkpt>
      <trkpt lat="43.70923" lon="6.71318">
        <ele>1122</ele>
        <time>2015-07-11T07:51:56Z</time>
      </trkpt>
      <trkpt lat="43.70927" lon="6.71331">
        <ele>1122</ele>
        <time>2015-07-11T07:52:02Z</time>
      </trkpt>
      <trkpt lat="43.70931" lon="6.71344">
        <ele>1123</ele>
        <time>2015-07-11T07:52:08Z</time>
      </trkpt>
      <trkpt lat="43.70939" lon="6.71356">
        <ele>1122</ele>
        <time>2015-07-11T07:52:14Z</time>
      </trkpt>
      <trkpt lat="43.70947" lon="6.71367">
        <ele>1123</ele>
        <time>2015-07-11T07:52:20Z</time>
      </trkpt>
      <trkpt lat="43.70953" lon="6.71378">
        <ele>1125</ele>
        <time>2015-07-11T07:52:26Z</time>
      </trkpt>
      <trkpt lat="43.70962" lon="6.71387">
        <ele>1126</ele>
        <time>2015-07-11T07:52:32Z</time>
      </trkpt>
      <trkpt lat="43.70971" lon="6.7139">
        <ele>1125</ele>
        <time>2015-07-11T07:52:38Z</time>
      </trkpt>
      <trkpt lat="43.70981" lon="6.71394">
        <ele>1126</ele>
        <time>2015-07-11T07:52:44Z</time>
      </trkpt>
      <trkpt lat="43.70989" lon="6.71397">
        <ele>1128</ele>
        <time>2015-07-11T07:52:50Z</time>
      </trkpt>
      <trkpt lat="43.70996" lon="6.71397">
        <ele>1129</ele>
        <time>2015-07-11T07:52:55Z</time>
      </trkpt>
      <trkpt lat="43.71005" lon="6.714">
        <ele>1130</ele>
        <time>2015-07-11T07:53:01Z</time>
      </trkpt>
      <trkpt lat="43.71012" lon="6.71401">
        <ele>1131</ele>
        <time>2015-07-11T07:53:06Z</time>
      </trkpt>
      <trkpt lat="43.71021" lon="6.71398">
        <ele>1131</ele>
        <time>2015-07-11T07:53:12Z</time>
      </trkpt>
      <trkpt lat="43.71028" lon="6.71395">
        <ele>1131</ele>
        <time>2015-07-11T07:53:17Z</time>
      </trkpt>
      <trkpt lat="43.71036" lon="6.71392">
        <ele>1132</ele>
        <time>2015-07-11T07:53:23Z</time>
      </trkpt>
      <trkpt lat="43.71042" lon="6.7139">
        <ele>1132</ele>
        <time>2015-07-11T07:53:28Z</time>
      </trkpt>
      <trkpt lat="43.71051" lon="6.71387">
        <ele>1133</ele>
        <time>2015-07-11T07:53:34Z</time>
      </trkpt>
      <trkpt lat="43.71059" lon="6.71383">
        <ele>1133</ele>
        <time>2015-07-11T07:53:40Z</time>
      </trkpt>
      <trkpt lat="43.71066" lon="6.71379">
        <ele>1132</ele>
        <time>2015-07-11T07:53:46Z</time>
      </trkpt>
      <trkpt lat="43.71072" lon="6.71374">
        <ele>1134</ele>
        <time>2015-07-11T07:53:52Z</time>
      </trkpt>
      <trkpt lat="43.71078" lon="6.71368">
        <ele>1135</ele>
        <time>2015-07-11T07:53:58Z</time>
      </trkpt>
      <trkpt lat="43.71082" lon="6.71356">
        <ele>1136</ele>
        <time>2015-07-11T07:54:04Z</time>
      </trkpt>
      <trkpt lat="43.71085" lon="6.71348">
        <ele>1135</ele>
        <time>2015-07-11T07:54:09Z</time>
      </trkpt>
      <trkpt lat="43.71088" lon="6.71338">
        <ele>1136</ele>
        <time>2015-07-11T07:54:15Z</time>
      </trkpt>
      <trkpt lat="43.7109" lon="6.7133">
        <ele>1136</ele>
        <time>2015-07-11T07:54:20Z</time>
      </trkpt>
      <trkpt lat="43.71092" lon="6.7132">
        <ele>1137</ele>
        <time>2015-07-11T07:54:26Z</time>
      </trkpt>
      <trkpt lat="43.71098" lon="6.71309">
        <ele>1138</ele>
        <time>2015-07-11T07:54:33Z</time>
      </trkpt>
      <trkpt lat="43.71103" lon="6.71303">
        <ele>1140</ele>
        <time>2015-07-11T07:54:38Z</time>
      </trkpt>
      <trkpt lat="43.71109" lon="6.71299">
        <ele>1141</ele>
        <time>2015-07-11T07:54:43Z</time>
      </trkpt>
      <trkpt lat="43.71116" lon="6.71297">
        <ele>1142</ele>
        <time>2015-07-11T07:54:49Z</time>
      </trkpt>
      <trkpt lat="43.71123" lon="6.71298">
        <ele>1144</ele>
        <time>2015-07-11T07:54:55Z</time>
      </trkpt>
      <trkpt lat="43.71129" lon="6.71302">
        <ele>1147</ele>
        <time>2015-07-11T07:55:01Z</time>
      </trkpt>
      <trkpt lat="43.71135" lon="6.71307">
        <ele>1148</ele>
        <time>2015-07-11T07:55:07Z</time>
      </trkpt>
      <trkpt lat="43.71141" lon="6.71311">
        <ele>1148</ele>
        <time>2015-07-11T07:55:13Z</time>
      </trkpt>
      <trkpt lat="43.71148" lon="6.71315">
        <ele>1149</ele>
        <time>2015-07-11T07:55:19Z</time>
      </trkpt>
      <trkpt lat="43.71154" lon="6.71321">
        <ele>1149</ele>
        <time>2015-07-11T07:55:25Z</time>
      </trkpt>
      <trkpt lat="43.71161" lon="6.71326">
        <ele>1150</ele>
        <time>2015-07-11T07:55:31Z</time>
      </trkpt>
      <trkpt lat="43.71167" lon="6.71331">
        <ele>1152</ele>
        <time>2015-07-11T07:55:37Z</time>
      </trkpt>
      <trkpt lat="43.71172" lon="6.71336">
        <ele>1153</ele>
        <time>2015-07-11T07:55:43Z</time>
      </trkpt>
      <trkpt lat="43.71178" lon="6.71341">
        <ele>1154</ele>
        <time>2015-07-11T07:55:49Z</time>
      </trkpt>
      <trkpt lat="43.71183" lon="6.71348">
        <ele>1156</ele>
        <time>2015-07-11T07:55:55Z</time>
      </trkpt>
      <trkpt lat="43.71188" lon="6.71355">
        <ele>1157</ele>
        <time>2015-07-11T07:56:01Z</time>
      </trkpt>
      <trkpt lat="43.71194" lon="6.7136">
        <ele>1158</ele>
        <time>2015-07-11T07:56:07Z</time>
      </trkpt>
      <trkpt lat="43.71201" lon="6.71363">
        <ele>1159</ele>
        <time>2015-07-11T07:56:13Z</time>
      </trkpt>
      <trkpt lat="43.71207" lon="6.71367">
        <ele>1161</ele>
        <time>2015-07-11T07:56:19Z</time>
      </trkpt>
      <trkpt lat="43.71213" lon="6.7137">
        <ele>1162</ele>
        <time>2015-07-11T07:56:25Z</time>
      </trkpt>
      <trkpt lat="43.71219" lon="6.71376">
        <ele>1163</ele>
        <time>2015-07-11T07:56:31Z</time>
      </trkpt>
      <trkpt lat="43.71225" lon="6.71379">
        <ele>1163</ele>
        <time>2015-07-11T07:56:36Z</time>
      </trkpt>
      <trkpt lat="43.71232" lon="6.71382">
        <ele>1163</ele>
        <time>2015-07-11T07:56:42Z</time>
      </trkpt>
      <trkpt lat="43.71238" lon="6.71385">
        <ele>1164</ele>
        <time>2015-07-11T07:56:48Z</time>
      </trkpt>
      <trkpt lat="43.71244" lon="6.71389">
        <ele>1164</ele>
        <time>2015-07-11T07:56:53Z</time>
      </trkpt>
      <trkpt lat="43.71251" lon="6.71392">
        <ele>1165</ele>
        <time>2015-07-11T07:56:59Z</time>
      </trkpt>
      <trkpt lat="43.71257" lon="6.71397">
        <ele>1166</ele>
        <time>2015-07-11T07:57:04Z</time>
      </trkpt>
      <trkpt lat="43.71263" lon="6.71401">
        <ele>1167</ele>
        <time>2015-07-11T07:57:09Z</time>
      </trkpt>
      <trkpt lat="43.71269" lon="6.71406">
        <ele>1168</ele>
        <time>2015-07-11T07:57:15Z</time>
      </trkpt>
      <trkpt lat="43.71276" lon="6.71413">
        <ele>1169</ele>
        <time>2015-07-11T07:57:21Z</time>
      </trkpt>
      <trkpt lat="43.71282" lon="6.71418">
        <ele>1170</ele>
        <time>2015-07-11T07:57:27Z</time>
      </trkpt>
      <trkpt lat="43.71287" lon="6.71422">
        <ele>1171</ele>
        <time>2015-07-11T07:57:32Z</time>
      </trkpt>
      <trkpt lat="43.71293" lon="6.71427">
        <ele>1172</ele>
        <time>2015-07-11T07:57:38Z</time>
      </trkpt>
      <trkpt lat="43.71301" lon="6.7143">
        <ele>1174</ele>
        <time>2015-07-11T07:57:44Z</time>
      </trkpt>
      <trkpt lat="43.71306" lon="6.71435">
        <ele>1175</ele>
        <time>2015-07-11T07:57:50Z</time>
      </trkpt>
      <trkpt lat="43.71313" lon="6.71439">
        <ele>1176</ele>
        <time>2015-07-11T07:57:56Z</time>
      </trkpt>
      <trkpt lat="43.71319" lon="6.71444">
        <ele>1176</ele>
        <time>2015-07-11T07:58:01Z</time>
      </trkpt>
      <trkpt lat="43.71325" lon="6.71449">
        <ele>1177</ele>
        <time>2015-07-11T07:58:07Z</time>
      </trkpt>
      <trkpt lat="43.7133" lon="6.71455">
        <ele>1178</ele>
        <time>2015-07-11T07:58:13Z</time>
      </trkpt>
      <trkpt lat="43.71335" lon="6.71461">
        <ele>1179</ele>
        <time>2015-07-11T07:58:19Z</time>
      </trkpt>
      <trkpt lat="43.71339" lon="6.7147">
        <ele>1180</ele>
        <time>2015-07-11T07:58:25Z</time>
      </trkpt>
      <trkpt lat="43.71343" lon="6.71477">
        <ele>1180</ele>
        <time>2015-07-11T07:58:30Z</time>
      </trkpt>
      <trkpt lat="43.71347" lon="6.71484">
        <ele>1180</ele>
        <time>2015-07-11T07:58:35Z</time>
      </trkpt>
      <trkpt lat="43.7135" lon="6.71492">
        <ele>1180</ele>
        <time>2015-07-11T07:58:40Z</time>
      </trkpt>
      <trkpt lat="43.71355" lon="6.71503">
        <ele>1180</ele>
        <time>2015-07-11T07:58:46Z</time>
      </trkpt>
      <trkpt lat="43.71362" lon="6.71513">
        <ele>1179</ele>
        <time>2015-07-11T07:58:52Z</time>
      </trkpt>
      <trkpt lat="43.71368" lon="6.71517">
        <ele>1178</ele>
        <time>2015-07-11T07:58:57Z</time>
      </trkpt>
      <trkpt lat="43.71373" lon="6.71524">
        <ele>1179</ele>
        <time>2015-07-11T07:59:02Z</time>
      </trkpt>
      <trkpt lat="43.71379" lon="6.7153">
        <ele>1181</ele>
        <time>2015-07-11T07:59:07Z</time>
      </trkpt>
      <trkpt lat="43.71385" lon="6.71535">
        <ele>1183</ele>
        <time>2015-07-11T07:59:13Z</time>
      </trkpt>
      <trkpt lat="43.71394" lon="6.71542">
        <ele>1183</ele>
        <time>2015-07-11T07:59:19Z</time>
      </trkpt>
      <trkpt lat="43.71402" lon="6.71548">
        <ele>1183</ele>
        <time>2015-07-11T07:59:25Z</time>
      </trkpt>
      <trkpt lat="43.71409" lon="6.71553">
        <ele>1183</ele>
        <time>2015-07-11T07:59:30Z</time>
      </trkpt>
      <trkpt lat="43.71414" lon="6.71558">
        <ele>1184</ele>
        <time>2015-07-11T07:59:35Z</time>
      </trkpt>
      <trkpt lat="43.71423" lon="6.71564">
        <ele>1185</ele>
        <time>2015-07-11T07:59:42Z</time>
      </trkpt>
      <trkpt lat="43.71429" lon="6.71569">
        <ele>1186</ele>
        <time>2015-07-11T07:59:47Z</time>
      </trkpt>
      <trkpt lat="43.71438" lon="6.71572">
        <ele>1188</ele>
        <time>2015-07-11T07:59:53Z</time>
      </trkpt>
      <trkpt lat="43.71447" lon="6.71577">
        <ele>1188</ele>
        <time>2015-07-11T07:59:59Z</time>
      </trkpt>
      <trkpt lat="43.71452" lon="6.71583">
        <ele>1190</ele>
        <time>2015-07-11T08:00:04Z</time>
      </trkpt>
      <trkpt lat="43.71459" lon="6.71591">
        <ele>1190</ele>
        <time>2015-07-11T08:00:10Z</time>
      </trkpt>
      <trkpt lat="43.71466" lon="6.71601">
        <ele>1190</ele>
        <time>2015-07-11T08:00:17Z</time>
      </trkpt>
      <trkpt lat="43.71471" lon="6.71607">
        <ele>1190</ele>
        <time>2015-07-11T08:00:22Z</time>
      </trkpt>
      <trkpt lat="43.71474" lon="6.71614">
        <ele>1190</ele>
        <time>2015-07-11T08:00:27Z</time>
      </trkpt>
      <trkpt lat="43.71481" lon="6.71621">
        <ele>1191</ele>
        <time>2015-07-11T08:00:33Z</time>
      </trkpt>
      <trkpt lat="43.71487" lon="6.7163">
        <ele>1193</ele>
        <time>2015-07-11T08:00:39Z</time>
      </trkpt>
      <trkpt lat="43.71494" lon="6.71638">
        <ele>1194</ele>
        <time>2015-07-11T08:00:45Z</time>
      </trkpt>
      <trkpt lat="43.71499" lon="6.71649">
        <ele>1196</ele>
        <time>2015-07-11T08:00:52Z</time>
      </trkpt>
      <trkpt lat="43.71507" lon="6.71655">
        <ele>1194</ele>
        <time>2015-07-11T08:00:58Z</time>
      </trkpt>
      <trkpt lat="43.71515" lon="6.71662">
        <ele>1194</ele>
        <time>2015-07-11T08:01:04Z</time>
      </trkpt>
      <trkpt lat="43.7152" lon="6.71668">
        <ele>1195</ele>
        <time>2015-07-11T08:01:09Z</time>
      </trkpt>
      <trkpt lat="43.71524" lon="6.71671">
        <ele>1195</ele>
        <time>2015-07-11T08:02:12Z</time>
      </trkpt>
      <trkpt lat="43.71532" lon="6.7168">
        <ele>1196</ele>
        <time>2015-07-11T08:02:18Z</time>
      </trkpt>
      <trkpt lat="43.71539" lon="6.71689">
        <ele>1195</ele>
        <time>2015-07-11T08:02:24Z</time>
      </trkpt>
      <trkpt lat="43.71545" lon="6.71699">
        <ele>1197</ele>
        <time>2015-07-11T08:02:30Z</time>
      </trkpt>
      <trkpt lat="43.71549" lon="6.71711">
        <ele>1199</ele>
        <time>2015-07-11T08:02:37Z</time>
      </trkpt>
      <trkpt lat="43.71552" lon="6.71724">
        <ele>1200</ele>
        <time>2015-07-11T08:02:43Z</time>
      </trkpt>
      <trkpt lat="43.71554" lon="6.71737">
        <ele>1202</ele>
        <time>2015-07-11T08:02:49Z</time>
      </trkpt>
      <trkpt lat="43.71555" lon="6.71746">
        <ele>1203</ele>
        <time>2015-07-11T08:02:54Z</time>
      </trkpt>
      <trkpt lat="43.71555" lon="6.71758">
        <ele>1202</ele>
        <time>2015-07-11T08:03:00Z</time>
      </trkpt>
      <trkpt lat="43.71555" lon="6.71771">
        <ele>1203</ele>
        <time>2015-07-11T08:03:06Z</time>
      </trkpt>
      <trkpt lat="43.71556" lon="6.7178">
        <ele>1203</ele>
        <time>2015-07-11T08:03:11Z</time>
      </trkpt>
      <trkpt lat="43.71557" lon="6.7179">
        <ele>1204</ele>
        <time>2015-07-11T08:03:16Z</time>
      </trkpt>
      <trkpt lat="43.71558" lon="6.71799">
        <ele>1204</ele>
        <time>2015-07-11T08:03:21Z</time>
      </trkpt>
      <trkpt lat="43.71558" lon="6.71814">
        <ele>1205</ele>
        <time>2015-07-11T08:03:27Z</time>
      </trkpt>
      <trkpt lat="43.7156" lon="6.71828">
        <ele>1205</ele>
        <time>2015-07-11T08:03:33Z</time>
      </trkpt>
      <trkpt lat="43.71562" lon="6.71842">
        <ele>1207</ele>
        <time>2015-07-11T08:03:39Z</time>
      </trkpt>
      <trkpt lat="43.71563" lon="6.71855">
        <ele>1208</ele>
        <time>2015-07-11T08:03:46Z</time>
      </trkpt>
      <trkpt lat="43.71561" lon="6.71865">
        <ele>1208</ele>
        <time>2015-07-11T08:03:52Z</time>
      </trkpt>
      <trkpt lat="43.71559" lon="6.71874">
        <ele>1208</ele>
        <time>2015-07-11T08:03:57Z</time>
      </trkpt>
      <trkpt lat="43.71558" lon="6.71882">
        <ele>1208</ele>
        <time>2015-07-11T08:04:02Z</time>
      </trkpt>
      <trkpt lat="43.71559" lon="6.71895">
        <ele>1207</ele>
        <time>2015-07-11T08:04:08Z</time>
      </trkpt>
      <trkpt lat="43.71561" lon="6.71905">
        <ele>1209</ele>
        <time>2015-07-11T08:04:13Z</time>
      </trkpt>
      <trkpt lat="43.71562" lon="6.71915">
        <ele>1210</ele>
        <time>2015-07-11T08:04:18Z</time>
      </trkpt>
      <trkpt lat="43.71563" lon="6.71923">
        <ele>1211</ele>
        <time>2015-07-11T08:04:23Z</time>
      </trkpt>
      <trkpt lat="43.71564" lon="6.71933">
        <ele>1211</ele>
        <time>2015-07-11T08:04:29Z</time>
      </trkpt>
      <trkpt lat="43.71567" lon="6.71943">
        <ele>1212</ele>
        <time>2015-07-11T08:04:35Z</time>
      </trkpt>
      <trkpt lat="43.71567" lon="6.71954">
        <ele>1212</ele>
        <time>2015-07-11T08:04:41Z</time>
      </trkpt>
      <trkpt lat="43.7157" lon="6.71962">
        <ele>1214</ele>
        <time>2015-07-11T08:04:46Z</time>
      </trkpt>
      <trkpt lat="43.71573" lon="6.71972">
        <ele>1214</ele>
        <time>2015-07-11T08:04:52Z</time>
      </trkpt>
      <trkpt lat="43.71576" lon="6.71982">
        <ele>1214</ele>
        <time>2015-07-11T08:04:58Z</time>
      </trkpt>
      <trkpt lat="43.71578" lon="6.7199">
        <ele>1215</ele>
        <time>2015-07-11T08:05:04Z</time>
      </trkpt>
      <trkpt lat="43.71582" lon="6.72003">
        <ele>1215</ele>
        <time>2015-07-11T08:05:10Z</time>
      </trkpt>
      <trkpt lat="43.71584" lon="6.72011">
        <ele>1216</ele>
        <time>2015-07-11T08:05:15Z</time>
      </trkpt>
      <trkpt lat="43.71588" lon="6.72022">
        <ele>1218</ele>
        <time>2015-07-11T08:05:21Z</time>
      </trkpt>
      <trkpt lat="43.71591" lon="6.72029">
        <ele>1217</ele>
        <time>2015-07-11T08:05:26Z</time>
      </trkpt>
      <trkpt lat="43.71593" lon="6.72038">
        <ele>1219</ele>
        <time>2015-07-11T08:05:32Z</time>
      </trkpt>
      <trkpt lat="43.71595" lon="6.72047">
        <ele>1220</ele>
        <time>2015-07-11T08:05:38Z</time>
      </trkpt>
      <trkpt lat="43.71596" lon="6.72056">
        <ele>1221</ele>
        <time>2015-07-11T08:05:43Z</time>
      </trkpt>
      <trkpt lat="43.71598" lon="6.72066">
        <ele>1220</ele>
        <time>2015-07-11T08:05:48Z</time>
      </trkpt>
      <trkpt lat="43.71605" lon="6.72076">
        <ele>1220</ele>
        <time>2015-07-11T08:05:54Z</time>
      </trkpt>
      <trkpt lat="43.71613" lon="6.72082">
        <ele>1222</ele>
        <time>2015-07-11T08:06:00Z</time>
      </trkpt>
      <trkpt lat="43.71623" lon="6.72082">
        <ele>1224</ele>
        <time>2015-07-11T08:06:06Z</time>
      </trkpt>
      <trkpt lat="43.71634" lon="6.72082">
        <ele>1226</ele>
        <time>2015-07-11T08:06:13Z</time>
      </trkpt>
      <trkpt lat="43.71645" lon="6.72081">
        <ele>1226</ele>
        <time>2015-07-11T08:06:20Z</time>
      </trkpt>
      <trkpt lat="43.71651" lon="6.72083">
        <ele>1229</ele>
        <time>2015-07-11T08:06:25Z</time>
      </trkpt>
      <trkpt lat="43.71657" lon="6.72084">
        <ele>1230</ele>
        <time>2015-07-11T08:06:31Z</time>
      </trkpt>
      <trkpt lat="43.71665" lon="6.72088">
        <ele>1231</ele>
        <time>2015-07-11T08:06:37Z</time>
      </trkpt>
      <trkpt lat="43.71673" lon="6.72095">
        <ele>1230</ele>
        <time>2015-07-11T08:06:44Z</time>
      </trkpt>
      <trkpt lat="43.71678" lon="6.72101">
        <ele>1232</ele>
        <time>2015-07-11T08:06:50Z</time>
      </trkpt>
      <trkpt lat="43.71683" lon="6.72107">
        <ele>1233</ele>
        <time>2015-07-11T08:06:55Z</time>
      </trkpt>
      <trkpt lat="43.7169" lon="6.72113">
        <ele>1235</ele>
        <time>2015-07-11T08:07:01Z</time>
      </trkpt>
      <trkpt lat="43.71695" lon="6.72118">
        <ele>1234</ele>
        <time>2015-07-11T08:07:06Z</time>
      </trkpt>
      <trkpt lat="43.71701" lon="6.72123">
        <ele>1235</ele>
        <time>2015-07-11T08:07:11Z</time>
      </trkpt>
      <trkpt lat="43.71707" lon="6.72128">
        <ele>1234</ele>
        <time>2015-07-11T08:07:16Z</time>
      </trkpt>
      <trkpt lat="43.71712" lon="6.72134">
        <ele>1234</ele>
        <time>2015-07-11T08:07:21Z</time>
      </trkpt>
      <trkpt lat="43.71718" lon="6.72139">
        <ele>1235</ele>
        <time>2015-07-11T08:07:27Z</time>
      </trkpt>
      <trkpt lat="43.71722" lon="6.72148">
        <ele>1237</ele>
        <time>2015-07-11T08:07:33Z</time>
      </trkpt>
      <trkpt lat="43.71727" lon="6.72156">
        <ele>1236</ele>
        <time>2015-07-11T08:07:39Z</time>
      </trkpt>
      <trkpt lat="43.71729" lon="6.72164">
        <ele>1237</ele>
        <time>2015-07-11T08:07:44Z</time>
      </trkpt>
      <trkpt lat="43.71732" lon="6.72172">
        <ele>1238</ele>
        <time>2015-07-11T08:07:49Z</time>
      </trkpt>
      <trkpt lat="43.71734" lon="6.72181">
        <ele>1238</ele>
        <time>2015-07-11T08:07:54Z</time>
      </trkpt>
      <trkpt lat="43.71739" lon="6.72188">
        <ele>1240</ele>
        <time>2015-07-11T08:08:00Z</time>
      </trkpt>
      <trkpt lat="43.71743" lon="6.72195">
        <ele>1238</ele>
        <time>2015-07-11T08:08:05Z</time>
      </trkpt>
      <trkpt lat="43.71746" lon="6.72204">
        <ele>1239</ele>
        <time>2015-07-11T08:08:12Z</time>
      </trkpt>
      <trkpt lat="43.71749" lon="6.72213">
        <ele>1241</ele>
        <time>2015-07-11T08:08:18Z</time>
      </trkpt>
      <trkpt lat="43.71753" lon="6.72221">
        <ele>1241</ele>
        <time>2015-07-11T08:08:24Z</time>
      </trkpt>
      <trkpt lat="43.71756" lon="6.7223">
        <ele>1242</ele>
        <time>2015-07-11T08:08:30Z</time>
      </trkpt>
      <trkpt lat="43.71761" lon="6.72239">
        <ele>1242</ele>
        <time>2015-07-11T08:08:36Z</time>
      </trkpt>
      <trkpt lat="43.71761" lon="6.72248">
        <ele>1244</ele>
        <time>2015-07-11T08:08:41Z</time>
      </trkpt>
      <trkpt lat="43.71764" lon="6.72258">
        <ele>1244</ele>
        <time>2015-07-11T08:08:47Z</time>
      </trkpt>
      <trkpt lat="43.71767" lon="6.72266">
        <ele>1244</ele>
        <time>2015-07-11T08:08:52Z</time>
      </trkpt>
      <trkpt lat="43.71769" lon="6.72276">
        <ele>1245</ele>
        <time>2015-07-11T08:08:57Z</time>
      </trkpt>
      <trkpt lat="43.71773" lon="6.72289">
        <ele>1246</ele>
        <time>2015-07-11T08:09:04Z</time>
      </trkpt>
      <trkpt lat="43.71776" lon="6.72302">
        <ele>1247</ele>
        <time>2015-07-11T08:09:10Z</time>
      </trkpt>
      <trkpt lat="43.71782" lon="6.72312">
        <ele>1246</ele>
        <time>2015-07-11T08:09:16Z</time>
      </trkpt>
      <trkpt lat="43.71786" lon="6.72325">
        <ele>1245</ele>
        <time>2015-07-11T08:09:22Z</time>
      </trkpt>
      <trkpt lat="43.71788" lon="6.72334">
        <ele>1247</ele>
        <time>2015-07-11T08:10:48Z</time>
      </trkpt>
      <trkpt lat="43.7179" lon="6.72337">
        <ele>1248</ele>
        <time>2015-07-11T08:10:59Z</time>
      </trkpt>
      <trkpt lat="43.71798" lon="6.72344">
        <ele>1249</ele>
        <time>2015-07-11T08:11:05Z</time>
      </trkpt>
      <trkpt lat="43.71808" lon="6.72347">
        <ele>1250</ele>
        <time>2015-07-11T08:11:12Z</time>
      </trkpt>
      <trkpt lat="43.71814" lon="6.72345">
        <ele>1250</ele>
        <time>2015-07-11T08:11:17Z</time>
      </trkpt>
      <trkpt lat="43.71821" lon="6.72342">
        <ele>1252</ele>
        <time>2015-07-11T08:11:23Z</time>
      </trkpt>
      <trkpt lat="43.71829" lon="6.72337">
        <ele>1252</ele>
        <time>2015-07-11T08:11:29Z</time>
      </trkpt>
      <trkpt lat="43.71835" lon="6.72331">
        <ele>1254</ele>
        <time>2015-07-11T08:11:34Z</time>
      </trkpt>
      <trkpt lat="43.71841" lon="6.72327">
        <ele>1255</ele>
        <time>2015-07-11T08:11:39Z</time>
      </trkpt>
      <trkpt lat="43.71849" lon="6.72319">
        <ele>1256</ele>
        <time>2015-07-11T08:11:45Z</time>
      </trkpt>
      <trkpt lat="43.71856" lon="6.7231">
        <ele>1257</ele>
        <time>2015-07-11T08:11:51Z</time>
      </trkpt>
      <trkpt lat="43.71863" lon="6.72298">
        <ele>1258</ele>
        <time>2015-07-11T08:11:57Z</time>
      </trkpt>
      <trkpt lat="43.71869" lon="6.72286">
        <ele>1257</ele>
        <time>2015-07-11T08:12:03Z</time>
      </trkpt>
      <trkpt lat="43.71874" lon="6.72272">
        <ele>1257</ele>
        <time>2015-07-11T08:12:09Z</time>
      </trkpt>
      <trkpt lat="43.71879" lon="6.7226">
        <ele>1259</ele>
        <time>2015-07-11T08:12:15Z</time>
      </trkpt>
      <trkpt lat="43.71885" lon="6.7225">
        <ele>1259</ele>
        <time>2015-07-11T08:12:21Z</time>
      </trkpt>
      <trkpt lat="43.71894" lon="6.7224">
        <ele>1260</ele>
        <time>2015-07-11T08:12:27Z</time>
      </trkpt>
      <trkpt lat="43.71903" lon="6.72235">
        <ele>1261</ele>
        <time>2015-07-11T08:12:33Z</time>
      </trkpt>
      <trkpt lat="43.71912" lon="6.7223">
        <ele>1262</ele>
        <time>2015-07-11T08:12:39Z</time>
      </trkpt>
      <trkpt lat="43.7192" lon="6.72225">
        <ele>1264</ele>
        <time>2015-07-11T08:12:45Z</time>
      </trkpt>
      <trkpt lat="43.71928" lon="6.72218">
        <ele>1265</ele>
        <time>2015-07-11T08:12:51Z</time>
      </trkpt>
      <trkpt lat="43.71935" lon="6.72211">
        <ele>1265</ele>
        <time>2015-07-11T08:12:57Z</time>
      </trkpt>
      <trkpt lat="43.71944" lon="6.72201">
        <ele>1264</ele>
        <time>2015-07-11T08:13:03Z</time>
      </trkpt>
      <trkpt lat="43.71953" lon="6.72196">
        <ele>1264</ele>
        <time>2015-07-11T08:13:09Z</time>
      </trkpt>
      <trkpt lat="43.71961" lon="6.72196">
        <ele>1265</ele>
        <time>2015-07-11T08:13:15Z</time>
      </trkpt>
      <trkpt lat="43.71962" lon="6.72205">
        <ele>1266</ele>
        <time>2015-07-11T08:13:20Z</time>
      </trkpt>
      <trkpt lat="43.71954" lon="6.72211">
        <ele>1266</ele>
        <time>2015-07-11T08:13:26Z</time>
      </trkpt>
      <trkpt lat="43.71946" lon="6.72222">
        <ele>1266</ele>
        <time>2015-07-11T08:13:32Z</time>
      </trkpt>
      <trkpt lat="43.71937" lon="6.72232">
        <ele>1266</ele>
        <time>2015-07-11T08:13:38Z</time>
      </trkpt>
      <trkpt lat="43.71932" lon="6.72245">
        <ele>1265</ele>
        <time>2015-07-11T08:13:44Z</time>
      </trkpt>
      <trkpt lat="43.71927" lon="6.72256">
        <ele>1266</ele>
        <time>2015-07-11T08:13:50Z</time>
      </trkpt>
      <trkpt lat="43.71921" lon="6.72267">
        <ele>1266</ele>
        <time>2015-07-11T08:13:56Z</time>
      </trkpt>
      <trkpt lat="43.71918" lon="6.72275">
        <ele>1267</ele>
        <time>2015-07-11T08:14:01Z</time>
      </trkpt>
      <trkpt lat="43.71913" lon="6.72285">
        <ele>1270</ele>
        <time>2015-07-11T08:14:07Z</time>
      </trkpt>
      <trkpt lat="43.71911" lon="6.72293">
        <ele>1271</ele>
        <time>2015-07-11T08:14:13Z</time>
      </trkpt>
      <trkpt lat="43.71909" lon="6.72302">
        <ele>1272</ele>
        <time>2015-07-11T08:14:19Z</time>
      </trkpt>
      <trkpt lat="43.71906" lon="6.72312">
        <ele>1273</ele>
        <time>2015-07-11T08:14:25Z</time>
      </trkpt>
      <trkpt lat="43.71904" lon="6.7232">
        <ele>1274</ele>
        <time>2015-07-11T08:14:30Z</time>
      </trkpt>
      <trkpt lat="43.71902" lon="6.72333">
        <ele>1273</ele>
        <time>2015-07-11T08:14:37Z</time>
      </trkpt>
      <trkpt lat="43.71899" lon="6.72342">
        <ele>1274</ele>
        <time>2015-07-11T08:14:42Z</time>
      </trkpt>
      <trkpt lat="43.71895" lon="6.72353">
        <ele>1275</ele>
        <time>2015-07-11T08:14:49Z</time>
      </trkpt>
      <trkpt lat="43.71892" lon="6.72361">
        <ele>1276</ele>
        <time>2015-07-11T08:14:55Z</time>
      </trkpt>
      <trkpt lat="43.71886" lon="6.72372">
        <ele>1277</ele>
        <time>2015-07-11T08:15:02Z</time>
      </trkpt>
      <trkpt lat="43.71883" lon="6.72381">
        <ele>1278</ele>
        <time>2015-07-11T08:15:08Z</time>
      </trkpt>
      <trkpt lat="43.7188" lon="6.72389">
        <ele>1278</ele>
        <time>2015-07-11T08:15:13Z</time>
      </trkpt>
      <trkpt lat="43.71876" lon="6.72402">
        <ele>1277</ele>
        <time>2015-07-11T08:15:20Z</time>
      </trkpt>
      <trkpt lat="43.71871" lon="6.72414">
        <ele>1278</ele>
        <time>2015-07-11T08:15:27Z</time>
      </trkpt>
      <trkpt lat="43.71867" lon="6.72426">
        <ele>1281</ele>
        <time>2015-07-11T08:15:33Z</time>
      </trkpt>
      <trkpt lat="43.71861" lon="6.72433">
        <ele>1283</ele>
        <time>2015-07-11T08:15:38Z</time>
      </trkpt>
      <trkpt lat="43.71856" lon="6.72443">
        <ele>1284</ele>
        <time>2015-07-11T08:15:44Z</time>
      </trkpt>
      <trkpt lat="43.71852" lon="6.7245">
        <ele>1287</ele>
        <time>2015-07-11T08:15:49Z</time>
      </trkpt>
      <trkpt lat="43.71847" lon="6.72458">
        <ele>1289</ele>
        <time>2015-07-11T08:15:54Z</time>
      </trkpt>
      <trkpt lat="43.71842" lon="6.72466">
        <ele>1289</ele>
        <time>2015-07-11T08:16:00Z</time>
      </trkpt>
      <trkpt lat="43.71838" lon="6.72476">
        <ele>1289</ele>
        <time>2015-07-11T08:16:06Z</time>
      </trkpt>
      <trkpt lat="43.71835" lon="6.72482">
        <ele>1288</ele>
        <time>2015-07-11T08:16:11Z</time>
      </trkpt>
      <trkpt lat="43.71829" lon="6.72488">
        <ele>1291</ele>
        <time>2015-07-11T08:16:17Z</time>
      </trkpt>
      <trkpt lat="43.71824" lon="6.72495">
        <ele>1292</ele>
        <time>2015-07-11T08:16:23Z</time>
      </trkpt>
      <trkpt lat="43.7182" lon="6.72501">
        <ele>1292</ele>
        <time>2015-07-11T08:16:28Z</time>
      </trkpt>
      <trkpt lat="43.71812" lon="6.72509">
        <ele>1294</ele>
        <time>2015-07-11T08:16:35Z</time>
      </trkpt>
      <trkpt lat="43.71806" lon="6.72516">
        <ele>1295</ele>
        <time>2015-07-11T08:16:41Z</time>
      </trkpt>
      <trkpt lat="43.71801" lon="6.72522">
        <ele>1296</ele>
        <time>2015-07-11T08:16:47Z</time>
      </trkpt>
      <trkpt lat="43.71797" lon="6.72529">
        <ele>1296</ele>
        <time>2015-07-11T08:16:52Z</time>
      </trkpt>
      <trkpt lat="43.71793" lon="6.72534">
        <ele>1295</ele>
        <time>2015-07-11T08:16:57Z</time>
      </trkpt>
      <trkpt lat="43.71788" lon="6.72541">
        <ele>1295</ele>
        <time>2015-07-11T08:17:02Z</time>
      </trkpt>
      <trkpt lat="43.71785" lon="6.72549">
        <ele>1296</ele>
        <time>2015-07-11T08:17:08Z</time>
      </trkpt>
      <trkpt lat="43.71784" lon="6.7256">
        <ele>1297</ele>
        <time>2015-07-11T08:17:15Z</time>
      </trkpt>
      <trkpt lat="43.71783" lon="6.72569">
        <ele>1298</ele>
        <time>2015-07-11T08:17:21Z</time>
      </trkpt>
      <trkpt lat="43.71782" lon="6.72578">
        <ele>1298</ele>
        <time>2015-07-11T08:17:27Z</time>
      </trkpt>
      <trkpt lat="43.7178" lon="6.72586">
        <ele>1300</ele>
        <time>2015-07-11T08:17:33Z</time>
      </trkpt>
      <trkpt lat="43.71777" lon="6.72596">
        <ele>1301</ele>
        <time>2015-07-11T08:17:39Z</time>
      </trkpt>
      <trkpt lat="43.71774" lon="6.72609">
        <ele>1304</ele>
        <time>2015-07-11T08:17:46Z</time>
      </trkpt>
      <trkpt lat="43.71773" lon="6.72618">
        <ele>1305</ele>
        <time>2015-07-11T08:17:52Z</time>
      </trkpt>
      <trkpt lat="43.71771" lon="6.7263">
        <ele>1305</ele>
        <time>2015-07-11T08:17:59Z</time>
      </trkpt>
      <trkpt lat="43.71772" lon="6.72639">
        <ele>1305</ele>
        <time>2015-07-11T08:18:04Z</time>
      </trkpt>
      <trkpt lat="43.71774" lon="6.72649">
        <ele>1306</ele>
        <time>2015-07-11T08:18:09Z</time>
      </trkpt>
      <trkpt lat="43.71774" lon="6.72659">
        <ele>1309</ele>
        <time>2015-07-11T08:18:14Z</time>
      </trkpt>
      <trkpt lat="43.71771" lon="6.72672">
        <ele>1309</ele>
        <time>2015-07-11T08:18:20Z</time>
      </trkpt>
      <trkpt lat="43.71762" lon="6.72677">
        <ele>1309</ele>
        <time>2015-07-11T08:18:26Z</time>
      </trkpt>
      <trkpt lat="43.71753" lon="6.72683">
        <ele>1309</ele>
        <time>2015-07-11T08:18:33Z</time>
      </trkpt>
      <trkpt lat="43.71745" lon="6.72694">
        <ele>1310</ele>
        <time>2015-07-11T08:18:39Z</time>
      </trkpt>
      <trkpt lat="43.71742" lon="6.72705">
        <ele>1312</ele>
        <time>2015-07-11T08:18:45Z</time>
      </trkpt>
      <trkpt lat="43.71742" lon="6.72721">
        <ele>1312</ele>
        <time>2015-07-11T08:18:52Z</time>
      </trkpt>
      <trkpt lat="43.71742" lon="6.7273">
        <ele>1314</ele>
        <time>2015-07-11T08:18:57Z</time>
      </trkpt>
      <trkpt lat="43.71741" lon="6.72741">
        <ele>1315</ele>
        <time>2015-07-11T08:19:02Z</time>
      </trkpt>
      <trkpt lat="43.71742" lon="6.72753">
        <ele>1314</ele>
        <time>2015-07-11T08:19:08Z</time>
      </trkpt>
      <trkpt lat="43.71744" lon="6.72765">
        <ele>1313</ele>
        <time>2015-07-11T08:19:14Z</time>
      </trkpt>
      <trkpt lat="43.71745" lon="6.7278">
        <ele>1315</ele>
        <time>2015-07-11T08:19:20Z</time>
      </trkpt>
      <trkpt lat="43.71747" lon="6.72793">
        <ele>1315</ele>
        <time>2015-07-11T08:19:26Z</time>
      </trkpt>
      <trkpt lat="43.71748" lon="6.72803">
        <ele>1315</ele>
        <time>2015-07-11T08:19:31Z</time>
      </trkpt>
      <trkpt lat="43.71744" lon="6.72817">
        <ele>1316</ele>
        <time>2015-07-11T08:19:37Z</time>
      </trkpt>
      <trkpt lat="43.7174" lon="6.7283">
        <ele>1315</ele>
        <time>2015-07-11T08:19:43Z</time>
      </trkpt>
      <trkpt lat="43.71735" lon="6.72846">
        <ele>1316</ele>
        <time>2015-07-11T08:19:49Z</time>
      </trkpt>
      <trkpt lat="43.71735" lon="6.7286">
        <ele>1318</ele>
        <time>2015-07-11T08:19:55Z</time>
      </trkpt>
      <trkpt lat="43.71736" lon="6.72876">
        <ele>1319</ele>
        <time>2015-07-11T08:20:01Z</time>
      </trkpt>
      <trkpt lat="43.71736" lon="6.72892">
        <ele>1320</ele>
        <time>2015-07-11T08:20:07Z</time>
      </trkpt>
      <trkpt lat="43.71738" lon="6.72904">
        <ele>1320</ele>
        <time>2015-07-11T08:20:13Z</time>
      </trkpt>
      <trkpt lat="43.7174" lon="6.72918">
        <ele>1321</ele>
        <time>2015-07-11T08:20:19Z</time>
      </trkpt>
      <trkpt lat="43.71741" lon="6.72932">
        <ele>1323</ele>
        <time>2015-07-11T08:20:25Z</time>
      </trkpt>
      <trkpt lat="43.71741" lon="6.72946">
        <ele>1324</ele>
        <time>2015-07-11T08:20:31Z</time>
      </trkpt>
      <trkpt lat="43.71743" lon="6.72961">
        <ele>1323</ele>
        <time>2015-07-11T08:20:37Z</time>
      </trkpt>
      <trkpt lat="43.71746" lon="6.72975">
        <ele>1287</ele>
        <time>2015-07-11T08:20:44Z</time>
      </trkpt>
      <trkpt lat="43.71748" lon="6.72991">
        <ele>1319</ele>
        <time>2015-07-11T08:20:50Z</time>
      </trkpt>
      <trkpt lat="43.7175" lon="6.73003">
        <ele>1323</ele>
        <time>2015-07-11T08:20:56Z</time>
      </trkpt>
      <trkpt lat="43.71755" lon="6.73016">
        <ele>1324</ele>
        <time>2015-07-11T08:21:02Z</time>
      </trkpt>
      <trkpt lat="43.71762" lon="6.73029">
        <ele>1325</ele>
        <time>2015-07-11T08:21:08Z</time>
      </trkpt>
      <trkpt lat="43.71767" lon="6.73041">
        <ele>1326</ele>
        <time>2015-07-11T08:21:14Z</time>
      </trkpt>
      <trkpt lat="43.71771" lon="6.73056">
        <ele>1326</ele>
        <time>2015-07-11T08:21:20Z</time>
      </trkpt>
      <trkpt lat="43.71774" lon="6.7307">
        <ele>1328</ele>
        <time>2015-07-11T08:21:27Z</time>
      </trkpt>
      <trkpt lat="43.71778" lon="6.73086">
        <ele>1328</ele>
        <time>2015-07-11T08:21:33Z</time>
      </trkpt>
      <trkpt lat="43.7178" lon="6.73101">
        <ele>1328</ele>
        <time>2015-07-11T08:21:39Z</time>
      </trkpt>
      <trkpt lat="43.71782" lon="6.73115">
        <ele>1329</ele>
        <time>2015-07-11T08:21:45Z</time>
      </trkpt>
      <trkpt lat="43.71785" lon="6.73129">
        <ele>1332</ele>
        <time>2015-07-11T08:21:51Z</time>
      </trkpt>
      <trkpt lat="43.7179" lon="6.73144">
        <ele>1333</ele>
        <time>2015-07-11T08:21:57Z</time>
      </trkpt>
      <trkpt lat="43.71795" lon="6.73156">
        <ele>1332</ele>
        <time>2015-07-11T08:22:03Z</time>
      </trkpt>
      <trkpt lat="43.718" lon="6.73166">
        <ele>1333</ele>
        <time>2015-07-11T08:22:12Z</time>
      </trkpt>
      <trkpt lat="43.71801" lon="6.7317">
        <ele>1333</ele>
        <time>2015-07-11T08:22:17Z</time>
      </trkpt>
      <trkpt lat="43.71805" lon="6.73176">
        <ele>1333</ele>
        <time>2015-07-11T08:22:24Z</time>
      </trkpt>
      <trkpt lat="43.71806" lon="6.73172">
        <ele>1333</ele>
        <time>2015-07-11T08:27:53Z</time>
      </trkpt>
      <trkpt lat="43.71803" lon="6.73173">
        <ele>1335</ele>
        <time>2015-07-11T08:28:53Z</time>
      </trkpt>
      <trkpt lat="43.71797" lon="6.73171">
        <ele>1336</ele>
        <time>2015-07-11T08:28:59Z</time>
      </trkpt>
      <trkpt lat="43.718" lon="6.73167">
        <ele>1333</ele>
        <time>2015-07-11T08:29:11Z</time>
      </trkpt>
      <trkpt lat="43.71798" lon="6.7317">
        <ele>1331</ele>
        <time>2015-07-11T08:29:25Z</time>
      </trkpt>
      <trkpt lat="43.718" lon="6.73167">
        <ele>1331</ele>
        <time>2015-07-11T08:29:53Z</time>
      </trkpt>
      <trkpt lat="43.718" lon="6.73171">
        <ele>1334</ele>
        <time>2015-07-11T08:30:45Z</time>
      </trkpt>
      <trkpt lat="43.71798" lon="6.73168">
        <ele>1334</ele>
        <time>2015-07-11T08:31:12Z</time>
      </trkpt>
      <trkpt lat="43.7179" lon="6.73177">
        <ele>1333</ele>
        <time>2015-07-11T08:31:17Z</time>
      </trkpt>
      <trkpt lat="43.71777" lon="6.7318">
        <ele>1331</ele>
        <time>2015-07-11T08:31:22Z</time>
      </trkpt>
      <trkpt lat="43.71763" lon="6.73168">
        <ele>1330</ele>
        <time>2015-07-11T08:31:27Z</time>
      </trkpt>
      <trkpt lat="43.7175" lon="6.7315">
        <ele>1326</ele>
        <time>2015-07-11T08:31:32Z</time>
      </trkpt>
      <trkpt lat="43.71735" lon="6.73124">
        <ele>1323</ele>
        <time>2015-07-11T08:31:37Z</time>
      </trkpt>
      <trkpt lat="43.71723" lon="6.73102">
        <ele>1320</ele>
        <time>2015-07-11T08:31:42Z</time>
      </trkpt>
      <trkpt lat="43.71704" lon="6.73088">
        <ele>1316</ele>
        <time>2015-07-11T08:31:47Z</time>
      </trkpt>
      <trkpt lat="43.71688" lon="6.73076">
        <ele>1313</ele>
        <time>2015-07-11T08:31:52Z</time>
      </trkpt>
      <trkpt lat="43.71673" lon="6.73065">
        <ele>1311</ele>
        <time>2015-07-11T08:31:57Z</time>
      </trkpt>
      <trkpt lat="43.71652" lon="6.73052">
        <ele>1308</ele>
        <time>2015-07-11T08:32:02Z</time>
      </trkpt>
      <trkpt lat="43.71629" lon="6.73035">
        <ele>1306</ele>
        <time>2015-07-11T08:32:07Z</time>
      </trkpt>
      <trkpt lat="43.71608" lon="6.73011">
        <ele>1303</ele>
        <time>2015-07-11T08:32:12Z</time>
      </trkpt>
      <trkpt lat="43.71587" lon="6.72997">
        <ele>1301</ele>
        <time>2015-07-11T08:32:17Z</time>
      </trkpt>
      <trkpt lat="43.71568" lon="6.72983">
        <ele>1298</ele>
        <time>2015-07-11T08:32:22Z</time>
      </trkpt>
      <trkpt lat="43.71559" lon="6.72955">
        <ele>1294</ele>
        <time>2015-07-11T08:32:27Z</time>
      </trkpt>
      <trkpt lat="43.71557" lon="6.72932">
        <ele>1288</ele>
        <time>2015-07-11T08:33:52Z</time>
      </trkpt>
      <trkpt lat="43.71552" lon="6.72918">
        <ele>1285</ele>
        <time>2015-07-11T08:33:57Z</time>
      </trkpt>
      <trkpt lat="43.71544" lon="6.72895">
        <ele>1280</ele>
        <time>2015-07-11T08:34:02Z</time>
      </trkpt>
      <trkpt lat="43.7153" lon="6.72868">
        <ele>1276</ele>
        <time>2015-07-11T08:34:07Z</time>
      </trkpt>
      <trkpt lat="43.71512" lon="6.72846">
        <ele>1270</ele>
        <time>2015-07-11T08:34:12Z</time>
      </trkpt>
      <trkpt lat="43.71499" lon="6.72827">
        <ele>1265</ele>
        <time>2015-07-11T08:34:18Z</time>
      </trkpt>
      <trkpt lat="43.71493" lon="6.72827">
        <ele>1263</ele>
        <time>2015-07-11T08:34:48Z</time>
      </trkpt>
      <trkpt lat="43.71478" lon="6.72819">
        <ele>1263</ele>
        <time>2015-07-11T08:34:53Z</time>
      </trkpt>
      <trkpt lat="43.71475" lon="6.72817">
        <ele>1263</ele>
        <time>2015-07-11T08:34:54Z</time>
      </trkpt>
      <trkpt lat="43.71464" lon="6.72807">
        <ele>1261</ele>
        <time>2015-07-11T08:34:57Z</time>
      </trkpt>
      <trkpt lat="43.71449" lon="6.72782">
        <ele>1254</ele>
        <time>2015-07-11T08:35:02Z</time>
      </trkpt>
      <trkpt lat="43.71441" lon="6.72771">
        <ele>1249</ele>
        <time>2015-07-11T08:35:05Z</time>
      </trkpt>
      <trkpt lat="43.71429" lon="6.72747">
        <ele>1244</ele>
        <time>2015-07-11T08:35:10Z</time>
      </trkpt>
      <trkpt lat="43.71417" lon="6.72726">
        <ele>1241</ele>
        <time>2015-07-11T08:35:15Z</time>
      </trkpt>
      <trkpt lat="43.71413" lon="6.72719">
        <ele>1241</ele>
        <time>2015-07-11T08:35:16Z</time>
      </trkpt>
      <trkpt lat="43.71412" lon="6.72714">
        <ele>1240</ele>
        <time>2015-07-11T08:35:17Z</time>
      </trkpt>
      <trkpt lat="43.71398" lon="6.72684">
        <ele>1238</ele>
        <time>2015-07-11T08:35:22Z</time>
      </trkpt>
      <trkpt lat="43.71385" lon="6.72657">
        <ele>1235</ele>
        <time>2015-07-11T08:35:27Z</time>
      </trkpt>
      <trkpt lat="43.71371" lon="6.7263">
        <ele>1237</ele>
        <time>2015-07-11T08:35:32Z</time>
      </trkpt>
      <trkpt lat="43.71362" lon="6.72601">
        <ele>1233</ele>
        <time>2015-07-11T08:35:37Z</time>
      </trkpt>
      <trkpt lat="43.71354" lon="6.72569">
        <ele>1229</ele>
        <time>2015-07-11T08:35:42Z</time>
      </trkpt>
      <trkpt lat="43.71346" lon="6.72534">
        <ele>1221</ele>
        <time>2015-07-11T08:35:47Z</time>
      </trkpt>
      <trkpt lat="43.71327" lon="6.72516">
        <ele>1212</ele>
        <time>2015-07-11T08:35:52Z</time>
      </trkpt>
      <trkpt lat="43.71303" lon="6.72499">
        <ele>1208</ele>
        <time>2015-07-11T08:35:57Z</time>
      </trkpt>
      <trkpt lat="43.71274" lon="6.72489">
        <ele>1209</ele>
        <time>2015-07-11T08:36:02Z</time>
      </trkpt>
      <trkpt lat="43.7125" lon="6.72476">
        <ele>1198</ele>
        <time>2015-07-11T08:36:07Z</time>
      </trkpt>
      <trkpt lat="43.71222" lon="6.72475">
        <ele>1196</ele>
        <time>2015-07-11T08:36:12Z</time>
      </trkpt>
      <trkpt lat="43.71197" lon="6.72476">
        <ele>1193</ele>
        <time>2015-07-11T08:36:18Z</time>
      </trkpt>
      <trkpt lat="43.71185" lon="6.7248">
        <ele>1190</ele>
        <time>2015-07-11T08:36:23Z</time>
      </trkpt>
      <trkpt lat="43.71171" lon="6.72481">
        <ele>1189</ele>
        <time>2015-07-11T08:36:30Z</time>
      </trkpt>
      <trkpt lat="43.71168" lon="6.72482">
        <ele>1186</ele>
        <time>2015-07-11T08:38:54Z</time>
      </trkpt>
      <trkpt lat="43.71154" lon="6.72485">
        <ele>1185</ele>
        <time>2015-07-11T08:38:59Z</time>
      </trkpt>
      <trkpt lat="43.7113" lon="6.72485">
        <ele>1181</ele>
        <time>2015-07-11T08:39:04Z</time>
      </trkpt>
      <trkpt lat="43.711" lon="6.72494">
        <ele>1177</ele>
        <time>2015-07-11T08:39:09Z</time>
      </trkpt>
      <trkpt lat="43.71065" lon="6.72506">
        <ele>1173</ele>
        <time>2015-07-11T08:39:14Z</time>
      </trkpt>
      <trkpt lat="43.71031" lon="6.72518">
        <ele>1172</ele>
        <time>2015-07-11T08:39:19Z</time>
      </trkpt>
      <trkpt lat="43.71003" lon="6.72529">
        <ele>1171</ele>
        <time>2015-07-11T08:39:24Z</time>
      </trkpt>
      <trkpt lat="43.70978" lon="6.72542">
        <ele>1169</ele>
        <time>2015-07-11T08:39:29Z</time>
      </trkpt>
      <trkpt lat="43.70956" lon="6.72558">
        <ele>1168</ele>
        <time>2015-07-11T08:39:34Z</time>
      </trkpt>
      <trkpt lat="43.70935" lon="6.72575">
        <ele>1164</ele>
        <time>2015-07-11T08:39:39Z</time>
      </trkpt>
      <trkpt lat="43.70913" lon="6.72593">
        <ele>1159</ele>
        <time>2015-07-11T08:39:44Z</time>
      </trkpt>
      <trkpt lat="43.70893" lon="6.726">
        <ele>1153</ele>
        <time>2015-07-11T08:39:49Z</time>
      </trkpt>
      <trkpt lat="43.7087" lon="6.72607">
        <ele>1149</ele>
        <time>2015-07-11T08:39:54Z</time>
      </trkpt>
      <trkpt lat="43.70851" lon="6.7261">
        <ele>1142</ele>
        <time>2015-07-11T08:39:59Z</time>
      </trkpt>
      <trkpt lat="43.70832" lon="6.7261">
        <ele>1138</ele>
        <time>2015-07-11T08:40:04Z</time>
      </trkpt>
      <trkpt lat="43.70814" lon="6.72606">
        <ele>1134</ele>
        <time>2015-07-11T08:40:09Z</time>
      </trkpt>
      <trkpt lat="43.70795" lon="6.72608">
        <ele>1129</ele>
        <time>2015-07-11T08:40:14Z</time>
      </trkpt>
      <trkpt lat="43.70776" lon="6.72601">
        <ele>1124</ele>
        <time>2015-07-11T08:40:19Z</time>
      </trkpt>
      <trkpt lat="43.70756" lon="6.72592">
        <ele>1120</ele>
        <time>2015-07-11T08:40:24Z</time>
      </trkpt>
      <trkpt lat="43.70734" lon="6.72598">
        <ele>1115</ele>
        <time>2015-07-11T08:40:29Z</time>
      </trkpt>
      <trkpt lat="43.70711" lon="6.72607">
        <ele>1110</ele>
        <time>2015-07-11T08:40:34Z</time>
      </trkpt>
      <trkpt lat="43.70687" lon="6.7261">
        <ele>1104</ele>
        <time>2015-07-11T08:40:39Z</time>
      </trkpt>
      <trkpt lat="43.7067" lon="6.72607">
        <ele>1099</ele>
        <time>2015-07-11T08:40:44Z</time>
      </trkpt>
      <trkpt lat="43.70651" lon="6.72607">
        <ele>1094</ele>
        <time>2015-07-11T08:40:49Z</time>
      </trkpt>
      <trkpt lat="43.70629" lon="6.72612">
        <ele>1089</ele>
        <time>2015-07-11T08:40:54Z</time>
      </trkpt>
      <trkpt lat="43.70607" lon="6.72609">
        <ele>1084</ele>
        <time>2015-07-11T08:40:59Z</time>
      </trkpt>
      <trkpt lat="43.70583" lon="6.72604">
        <ele>1078</ele>
        <time>2015-07-11T08:41:04Z</time>
      </trkpt>
      <trkpt lat="43.70561" lon="6.72618">
        <ele>1073</ele>
        <time>2015-07-11T08:41:09Z</time>
      </trkpt>
      <trkpt lat="43.70544" lon="6.72646">
        <ele>1083</ele>
        <time>2015-07-11T08:41:14Z</time>
      </trkpt>
      <trkpt lat="43.70527" lon="6.72667">
        <ele>1071</ele>
        <time>2015-07-11T08:41:19Z</time>
      </trkpt>
      <trkpt lat="43.70515" lon="6.72695">
        <ele>1067</ele>
        <time>2015-07-11T08:41:24Z</time>
      </trkpt>
      <trkpt lat="43.70508" lon="6.72719">
        <ele>1064</ele>
        <time>2015-07-11T08:41:29Z</time>
      </trkpt>
      <trkpt lat="43.70499" lon="6.7274">
        <ele>1062</ele>
        <time>2015-07-11T08:41:34Z</time>
      </trkpt>
      <trkpt lat="43.70491" lon="6.72763">
        <ele>1059</ele>
        <time>2015-07-11T08:41:39Z</time>
      </trkpt>
      <trkpt lat="43.70479" lon="6.7279">
        <ele>1056</ele>
        <time>2015-07-11T08:41:44Z</time>
      </trkpt>
      <trkpt lat="43.70471" lon="6.72813">
        <ele>1056</ele>
        <time>2015-07-11T08:41:49Z</time>
      </trkpt>
      <trkpt lat="43.70462" lon="6.72833">
        <ele>1054</ele>
        <time>2015-07-11T08:41:54Z</time>
      </trkpt>
      <trkpt lat="43.70453" lon="6.7285">
        <ele>1051</ele>
        <time>2015-07-11T08:41:59Z</time>
      </trkpt>
      <trkpt lat="43.70446" lon="6.7287">
        <ele>1047</ele>
        <time>2015-07-11T08:42:04Z</time>
      </trkpt>
      <trkpt lat="43.70439" lon="6.72884">
        <ele>1043</ele>
        <time>2015-07-11T08:42:10Z</time>
      </trkpt>
      <trkpt lat="43.70432" lon="6.7289">
        <ele>1041</ele>
        <time>2015-07-11T08:42:16Z</time>
      </trkpt>
      <trkpt lat="43.70424" lon="6.72904">
        <ele>1036</ele>
        <time>2015-07-11T08:42:22Z</time>
      </trkpt>
      <trkpt lat="43.70418" lon="6.72918">
        <ele>1031</ele>
        <time>2015-07-11T08:42:27Z</time>
      </trkpt>
      <trkpt lat="43.70423" lon="6.72936">
        <ele>1026</ele>
        <time>2015-07-11T08:42:33Z</time>
      </trkpt>
      <trkpt lat="43.70429" lon="6.72952">
        <ele>1025</ele>
        <time>2015-07-11T08:42:38Z</time>
      </trkpt>
      <trkpt lat="43.70431" lon="6.72956">
        <ele>1024</ele>
        <time>2015-07-11T08:43:01Z</time>
      </trkpt>
      <trkpt lat="43.70434" lon="6.72975">
        <ele>1020</ele>
        <time>2015-07-11T08:43:06Z</time>
      </trkpt>
      <trkpt lat="43.70435" lon="6.72979">
        <ele>1021</ele>
        <time>2015-07-11T08:43:07Z</time>
      </trkpt>
      <trkpt lat="43.70439" lon="6.73">
        <ele>1021</ele>
        <time>2015-07-11T08:43:12Z</time>
      </trkpt>
      <trkpt lat="43.70434" lon="6.73011">
        <ele>1016</ele>
        <time>2015-07-11T08:43:17Z</time>
      </trkpt>
      <trkpt lat="43.70421" lon="6.72996">
        <ele>1015</ele>
        <time>2015-07-11T08:43:22Z</time>
      </trkpt>
      <trkpt lat="43.70412" lon="6.73006">
        <ele>1012</ele>
        <time>2015-07-11T08:43:27Z</time>
      </trkpt>
      <trkpt lat="43.70413" lon="6.73027">
        <ele>1004</ele>
        <time>2015-07-11T08:43:32Z</time>
      </trkpt>
      <trkpt lat="43.70411" lon="6.73055">
        <ele>999</ele>
        <time>2015-07-11T08:43:37Z</time>
      </trkpt>
      <trkpt lat="43.70411" lon="6.73075">
        <ele>997</ele>
        <time>2015-07-11T08:43:52Z</time>
      </trkpt>
      <trkpt lat="43.70413" lon="6.73092">
        <ele>996</ele>
        <time>2015-07-11T08:43:57Z</time>
      </trkpt>
      <trkpt lat="43.70419" lon="6.73114">
        <ele>996</ele>
        <time>2015-07-11T08:44:02Z</time>
      </trkpt>
      <trkpt lat="43.70426" lon="6.73133">
        <ele>996</ele>
        <time>2015-07-11T08:44:07Z</time>
      </trkpt>
      <trkpt lat="43.70431" lon="6.73152">
        <ele>997</ele>
        <time>2015-07-11T08:44:12Z</time>
      </trkpt>
      <trkpt lat="43.70438" lon="6.73163">
        <ele>998</ele>
        <time>2015-07-11T08:44:18Z</time>
      </trkpt>
      <trkpt lat="43.70445" lon="6.73182">
        <ele>996</ele>
        <time>2015-07-11T08:44:24Z</time>
      </trkpt>
      <trkpt lat="43.70439" lon="6.73191">
        <ele>994</ele>
        <time>2015-07-11T08:44:29Z</time>
      </trkpt>
      <trkpt lat="43.70431" lon="6.73205">
        <ele>993</ele>
        <time>2015-07-11T08:44:35Z</time>
      </trkpt>
      <trkpt lat="43.70422" lon="6.73219">
        <ele>993</ele>
        <time>2015-07-11T08:44:40Z</time>
      </trkpt>
      <trkpt lat="43.70414" lon="6.73232">
        <ele>991</ele>
        <time>2015-07-11T08:44:46Z</time>
      </trkpt>
      <trkpt lat="43.70401" lon="6.73248">
        <ele>988</ele>
        <time>2015-07-11T08:44:51Z</time>
      </trkpt>
      <trkpt lat="43.70396" lon="6.73253">
        <ele>986</ele>
        <time>2015-07-11T08:44:54Z</time>
      </trkpt>
      <trkpt lat="43.7039" lon="6.73267">
        <ele>982</ele>
        <time>2015-07-11T08:44:59Z</time>
      </trkpt>
      <trkpt lat="43.70387" lon="6.73286">
        <ele>979</ele>
        <time>2015-07-11T08:45:05Z</time>
      </trkpt>
      <trkpt lat="43.70392" lon="6.73301">
        <ele>978</ele>
        <time>2015-07-11T08:45:11Z</time>
      </trkpt>
      <trkpt lat="43.70394" lon="6.73308">
        <ele>977</ele>
        <time>2015-07-11T08:45:12Z</time>
      </trkpt>
      <trkpt lat="43.7039" lon="6.73322">
        <ele>975</ele>
        <time>2015-07-11T08:45:17Z</time>
      </trkpt>
      <trkpt lat="43.70383" lon="6.73346">
        <ele>973</ele>
        <time>2015-07-11T08:45:22Z</time>
      </trkpt>
      <trkpt lat="43.70381" lon="6.73351">
        <ele>973</ele>
        <time>2015-07-11T08:45:23Z</time>
      </trkpt>
      <trkpt lat="43.70365" lon="6.73359">
        <ele>971</ele>
        <time>2015-07-11T08:45:29Z</time>
      </trkpt>
      <trkpt lat="43.70353" lon="6.73349">
        <ele>969</ele>
        <time>2015-07-11T08:45:35Z</time>
      </trkpt>
      <trkpt lat="43.70346" lon="6.73365">
        <ele>967</ele>
        <time>2015-07-11T08:45:41Z</time>
      </trkpt>
      <trkpt lat="43.7036" lon="6.73387">
        <ele>962</ele>
        <time>2015-07-11T08:45:46Z</time>
      </trkpt>
      <trkpt lat="43.70362" lon="6.734">
        <ele>958</ele>
        <time>2015-07-11T08:45:56Z</time>
      </trkpt>
      <trkpt lat="43.70362" lon="6.73404">
        <ele>958</ele>
        <time>2015-07-11T08:46:02Z</time>
      </trkpt>
      <trkpt lat="43.70365" lon="6.73407">
        <ele>960</ele>
        <time>2015-07-11T08:46:14Z</time>
      </trkpt>
      <trkpt lat="43.70374" lon="6.73412">
        <ele>956</ele>
        <time>2015-07-11T08:46:19Z</time>
      </trkpt>
      <trkpt lat="43.70387" lon="6.73417">
        <ele>955</ele>
        <time>2015-07-11T08:46:24Z</time>
      </trkpt>
      <trkpt lat="43.70401" lon="6.73418">
        <ele>956</ele>
        <time>2015-07-11T08:46:29Z</time>
      </trkpt>
      <trkpt lat="43.70416" lon="6.73425">
        <ele>954</ele>
        <time>2015-07-11T08:46:35Z</time>
      </trkpt>
      <trkpt lat="43.70431" lon="6.7343">
        <ele>953</ele>
        <time>2015-07-11T08:46:40Z</time>
      </trkpt>
      <trkpt lat="43.70447" lon="6.73432">
        <ele>954</ele>
        <time>2015-07-11T08:46:45Z</time>
      </trkpt>
      <trkpt lat="43.70462" lon="6.73439">
        <ele>953</ele>
        <time>2015-07-11T08:46:50Z</time>
      </trkpt>
      <trkpt lat="43.70476" lon="6.73448">
        <ele>952</ele>
        <time>2015-07-11T08:46:55Z</time>
      </trkpt>
      <trkpt lat="43.70488" lon="6.73453">
        <ele>950</ele>
        <time>2015-07-11T08:47:00Z</time>
      </trkpt>
      <trkpt lat="43.70504" lon="6.7346">
        <ele>947</ele>
        <time>2015-07-11T08:47:05Z</time>
      </trkpt>
      <trkpt lat="43.70519" lon="6.73468">
        <ele>944</ele>
        <time>2015-07-11T08:47:10Z</time>
      </trkpt>
      <trkpt lat="43.70534" lon="6.73484">
        <ele>941</ele>
        <time>2015-07-11T08:47:16Z</time>
      </trkpt>
      <trkpt lat="43.70547" lon="6.73489">
        <ele>939</ele>
        <time>2015-07-11T08:47:21Z</time>
      </trkpt>
      <trkpt lat="43.70561" lon="6.73496">
        <ele>938</ele>
        <time>2015-07-11T08:47:26Z</time>
      </trkpt>
      <trkpt lat="43.70576" lon="6.73498">
        <ele>935</ele>
        <time>2015-07-11T08:47:32Z</time>
      </trkpt>
      <trkpt lat="43.70579" lon="6.73499">
        <ele>934</ele>
        <time>2015-07-11T08:47:37Z</time>
      </trkpt>
      <trkpt lat="43.70591" lon="6.73501">
        <ele>933</ele>
        <time>2015-07-11T08:47:43Z</time>
      </trkpt>
      <trkpt lat="43.70607" lon="6.73508">
        <ele>931</ele>
        <time>2015-07-11T08:47:48Z</time>
      </trkpt>
      <trkpt lat="43.70609" lon="6.73509">
        <ele>933</ele>
        <time>2015-07-11T08:48:20Z</time>
      </trkpt>
      <trkpt lat="43.70616" lon="6.73521">
        <ele>933</ele>
        <time>2015-07-11T08:48:26Z</time>
      </trkpt>
      <trkpt lat="43.70623" lon="6.73535">
        <ele>932</ele>
        <time>2015-07-11T08:48:31Z</time>
      </trkpt>
      <trkpt lat="43.70632" lon="6.7355">
        <ele>933</ele>
        <time>2015-07-11T08:48:37Z</time>
      </trkpt>
      <trkpt lat="43.7064" lon="6.73565">
        <ele>932</ele>
        <time>2015-07-11T08:48:43Z</time>
      </trkpt>
      <trkpt lat="43.70647" lon="6.73578">
        <ele>931</ele>
        <time>2015-07-11T08:48:49Z</time>
      </trkpt>
      <trkpt lat="43.70651" lon="6.73595">
        <ele>931</ele>
        <time>2015-07-11T08:48:54Z</time>
      </trkpt>
      <trkpt lat="43.70658" lon="6.73612">
        <ele>932</ele>
        <time>2015-07-11T08:48:59Z</time>
      </trkpt>
      <trkpt lat="43.70663" lon="6.73629">
        <ele>934</ele>
        <time>2015-07-11T08:49:04Z</time>
      </trkpt>
      <trkpt lat="43.70668" lon="6.73644">
        <ele>937</ele>
        <time>2015-07-11T08:49:09Z</time>
      </trkpt>
      <trkpt lat="43.70672" lon="6.73657">
        <ele>938</ele>
        <time>2015-07-11T08:49:14Z</time>
      </trkpt>
      <trkpt lat="43.70676" lon="6.73671">
        <ele>940</ele>
        <time>2015-07-11T08:49:19Z</time>
      </trkpt>
      <trkpt lat="43.7068" lon="6.73685">
        <ele>939</ele>
        <time>2015-07-11T08:49:24Z</time>
      </trkpt>
      <trkpt lat="43.70687" lon="6.73704">
        <ele>941</ele>
        <time>2015-07-11T08:49:30Z</time>
      </trkpt>
      <trkpt lat="43.70695" lon="6.73717">
        <ele>942</ele>
        <time>2015-07-11T08:49:36Z</time>
      </trkpt>
      <trkpt lat="43.70703" lon="6.7373">
        <ele>942</ele>
        <time>2015-07-11T08:49:42Z</time>
      </trkpt>
      <trkpt lat="43.70708" lon="6.73746">
        <ele>940</ele>
        <time>2015-07-11T08:49:48Z</time>
      </trkpt>
      <trkpt lat="43.70715" lon="6.73763">
        <ele>939</ele>
        <time>2015-07-11T08:49:53Z</time>
      </trkpt>
      <trkpt lat="43.70723" lon="6.73784">
        <ele>937</ele>
        <time>2015-07-11T08:49:58Z</time>
      </trkpt>
      <trkpt lat="43.70731" lon="6.73804">
        <ele>934</ele>
        <time>2015-07-11T08:50:04Z</time>
      </trkpt>
      <trkpt lat="43.70741" lon="6.73822">
        <ele>933</ele>
        <time>2015-07-11T08:50:09Z</time>
      </trkpt>
      <trkpt lat="43.70756" lon="6.73835">
        <ele>933</ele>
        <time>2015-07-11T08:50:14Z</time>
      </trkpt>
      <trkpt lat="43.70772" lon="6.73851">
        <ele>932</ele>
        <time>2015-07-11T08:50:19Z</time>
      </trkpt>
      <trkpt lat="43.70792" lon="6.73854">
        <ele>928</ele>
        <time>2015-07-11T08:50:24Z</time>
      </trkpt>
      <trkpt lat="43.70812" lon="6.7386">
        <ele>928</ele>
        <time>2015-07-11T08:50:29Z</time>
      </trkpt>
      <trkpt lat="43.7083" lon="6.73871">
        <ele>924</ele>
        <time>2015-07-11T08:50:35Z</time>
      </trkpt>
      <trkpt lat="43.70845" lon="6.73879">
        <ele>926</ele>
        <time>2015-07-11T08:50:41Z</time>
      </trkpt>
      <trkpt lat="43.70858" lon="6.73887">
        <ele>927</ele>
        <time>2015-07-11T08:50:47Z</time>
      </trkpt>
      <trkpt lat="43.7087" lon="6.73884">
        <ele>925</ele>
        <time>2015-07-11T08:50:52Z</time>
      </trkpt>
      <trkpt lat="43.7088" lon="6.73886">
        <ele>923</ele>
        <time>2015-07-11T08:50:57Z</time>
      </trkpt>
      <trkpt lat="43.70891" lon="6.73884">
        <ele>924</ele>
        <time>2015-07-11T08:51:02Z</time>
      </trkpt>
      <trkpt lat="43.70896" lon="6.73896">
        <ele>925</ele>
        <time>2015-07-11T08:51:08Z</time>
      </trkpt>
      <trkpt lat="43.70896" lon="6.73907">
        <ele>922</ele>
        <time>2015-07-11T08:51:13Z</time>
      </trkpt>
      <trkpt lat="43.70895" lon="6.73915">
        <ele>922</ele>
        <time>2015-07-11T08:51:18Z</time>
      </trkpt>
      <trkpt lat="43.70895" lon="6.73931">
        <ele>922</ele>
        <time>2015-07-11T08:51:24Z</time>
      </trkpt>
      <trkpt lat="43.70899" lon="6.73942">
        <ele>928</ele>
        <time>2015-07-11T08:51:52Z</time>
      </trkpt>
      <trkpt lat="43.70902" lon="6.73942">
        <ele>927</ele>
        <time>2015-07-11T08:51:54Z</time>
      </trkpt>
      <trkpt lat="43.70915" lon="6.73948">
        <ele>925</ele>
        <time>2015-07-11T08:51:59Z</time>
      </trkpt>
      <trkpt lat="43.70932" lon="6.73949">
        <ele>921</ele>
        <time>2015-07-11T08:52:04Z</time>
      </trkpt>
      <trkpt lat="43.70951" lon="6.7395">
        <ele>919</ele>
        <time>2015-07-11T08:52:09Z</time>
      </trkpt>
      <trkpt lat="43.70967" lon="6.73952">
        <ele>919</ele>
        <time>2015-07-11T08:52:14Z</time>
      </trkpt>
      <trkpt lat="43.70975" lon="6.7397">
        <ele>921</ele>
        <time>2015-07-11T08:52:20Z</time>
      </trkpt>
      <trkpt lat="43.70985" lon="6.73977">
        <ele>924</ele>
        <time>2015-07-11T08:52:26Z</time>
      </trkpt>
      <trkpt lat="43.70993" lon="6.73982">
        <ele>925</ele>
        <time>2015-07-11T08:52:31Z</time>
      </trkpt>
      <trkpt lat="43.70998" lon="6.73987">
        <ele>927</ele>
        <time>2015-07-11T08:52:37Z</time>
      </trkpt>
      <trkpt lat="43.71003" lon="6.73992">
        <ele>928</ele>
        <time>2015-07-11T08:52:44Z</time>
      </trkpt>
      <trkpt lat="43.71006" lon="6.74">
        <ele>928</ele>
        <time>2015-07-11T08:52:51Z</time>
      </trkpt>
      <trkpt lat="43.7101" lon="6.74005">
        <ele>928</ele>
        <time>2015-07-11T08:52:58Z</time>
      </trkpt>
      <trkpt lat="43.71016" lon="6.74008">
        <ele>929</ele>
        <time>2015-07-11T08:53:05Z</time>
      </trkpt>
      <trkpt lat="43.71022" lon="6.74009">
        <ele>932</ele>
        <time>2015-07-11T08:53:18Z</time>
      </trkpt>
      <trkpt lat="43.71025" lon="6.7401">
        <ele>933</ele>
        <time>2015-07-11T08:53:27Z</time>
      </trkpt>
      <trkpt lat="43.71028" lon="6.74012">
        <ele>932</ele>
        <time>2015-07-11T08:53:38Z</time>
      </trkpt>
      <trkpt lat="43.71031" lon="6.74011">
        <ele>937</ele>
        <time>2015-07-11T08:53:44Z</time>
      </trkpt>
      <trkpt lat="43.71037" lon="6.74012">
        <ele>991</ele>
        <time>2015-07-11T08:53:53Z</time>
      </trkpt>
      <trkpt lat="43.71039" lon="6.74016">
        <ele>938</ele>
        <time>2015-07-11T08:54:15Z</time>
      </trkpt>
      <trkpt lat="43.71044" lon="6.74022">
        <ele>940</ele>
        <time>2015-07-11T08:54:25Z</time>
      </trkpt>
      <trkpt lat="43.7105" lon="6.74025">
        <ele>941</ele>
        <time>2015-07-11T08:54:32Z</time>
      </trkpt>
      <trkpt lat="43.71057" lon="6.74025">
        <ele>944</ele>
        <time>2015-07-11T08:54:41Z</time>
      </trkpt>
      <trkpt lat="43.71062" lon="6.74023">
        <ele>941</ele>
        <time>2015-07-11T08:54:48Z</time>
      </trkpt>
      <trkpt lat="43.71065" lon="6.74016">
        <ele>941</ele>
        <time>2015-07-11T08:54:56Z</time>
      </trkpt>
      <trkpt lat="43.7107" lon="6.74008">
        <ele>942</ele>
        <time>2015-07-11T08:55:04Z</time>
      </trkpt>
      <trkpt lat="43.71075" lon="6.74004">
        <ele>946</ele>
        <time>2015-07-11T08:55:15Z</time>
      </trkpt>
      <trkpt lat="43.71078" lon="6.74001">
        <ele>947</ele>
        <time>2015-07-11T08:55:20Z</time>
      </trkpt>
      <trkpt lat="43.7108" lon="6.73993">
        <ele>949</ele>
        <time>2015-07-11T08:55:26Z</time>
      </trkpt>
      <trkpt lat="43.71081" lon="6.73988">
        <ele>947</ele>
        <time>2015-07-11T08:55:35Z</time>
      </trkpt>
      <trkpt lat="43.71079" lon="6.7398">
        <ele>947</ele>
        <time>2015-07-11T08:55:43Z</time>
      </trkpt>
      <trkpt lat="43.71079" lon="6.73976">
        <ele>948</ele>
        <time>2015-07-11T08:55:48Z</time>
      </trkpt>
      <trkpt lat="43.71082" lon="6.73974">
        <ele>948</ele>
        <time>2015-07-11T08:56:53Z</time>
      </trkpt>
      <trkpt lat="43.71086" lon="6.73975">
        <ele>949</ele>
        <time>2015-07-11T08:56:58Z</time>
      </trkpt>
      <trkpt lat="43.71092" lon="6.73975">
        <ele>949</ele>
        <time>2015-07-11T08:57:06Z</time>
      </trkpt>
      <trkpt lat="43.71095" lon="6.73973">
        <ele>951</ele>
        <time>2015-07-11T08:57:11Z</time>
      </trkpt>
      <trkpt lat="43.71094" lon="6.73969">
        <ele>951</ele>
        <time>2015-07-11T08:57:16Z</time>
      </trkpt>
      <trkpt lat="43.71094" lon="6.73965">
        <ele>953</ele>
        <time>2015-07-11T08:57:21Z</time>
      </trkpt>
      <trkpt lat="43.71093" lon="6.73961">
        <ele>954</ele>
        <time>2015-07-11T08:57:28Z</time>
      </trkpt>
      <trkpt lat="43.71089" lon="6.73954">
        <ele>956</ele>
        <time>2015-07-11T08:57:36Z</time>
      </trkpt>
      <trkpt lat="43.71085" lon="6.73947">
        <ele>955</ele>
        <time>2015-07-11T08:57:45Z</time>
      </trkpt>
      <trkpt lat="43.71084" lon="6.73944">
        <ele>956</ele>
        <time>2015-07-11T08:57:50Z</time>
      </trkpt>
      <trkpt lat="43.71083" lon="6.73935">
        <ele>958</ele>
        <time>2015-07-11T08:57:58Z</time>
      </trkpt>
      <trkpt lat="43.71084" lon="6.73927">
        <ele>959</ele>
        <time>2015-07-11T08:58:07Z</time>
      </trkpt>
      <trkpt lat="43.71091" lon="6.73928">
        <ele>959</ele>
        <time>2015-07-11T08:58:14Z</time>
      </trkpt>
      <trkpt lat="43.71096" lon="6.73933">
        <ele>959</ele>
        <time>2015-07-11T08:58:24Z</time>
      </trkpt>
      <trkpt lat="43.71101" lon="6.73934">
        <ele>961</ele>
        <time>2015-07-11T08:58:31Z</time>
      </trkpt>
      <trkpt lat="43.71108" lon="6.73935">
        <ele>962</ele>
        <time>2015-07-11T08:58:37Z</time>
      </trkpt>
      <trkpt lat="43.71114" lon="6.73937">
        <ele>962</ele>
        <time>2015-07-11T08:58:44Z</time>
      </trkpt>
      <trkpt lat="43.7112" lon="6.73935">
        <ele>963</ele>
        <time>2015-07-11T08:58:52Z</time>
      </trkpt>
      <trkpt lat="43.71126" lon="6.73933">
        <ele>965</ele>
        <time>2015-07-11T08:58:59Z</time>
      </trkpt>
      <trkpt lat="43.71132" lon="6.73934">
        <ele>967</ele>
        <time>2015-07-11T08:59:05Z</time>
      </trkpt>
      <trkpt lat="43.71139" lon="6.73933">
        <ele>969</ele>
        <time>2015-07-11T08:59:11Z</time>
      </trkpt>
      <trkpt lat="43.71146" lon="6.73932">
        <ele>970</ele>
        <time>2015-07-11T08:59:22Z</time>
      </trkpt>
      <trkpt lat="43.71152" lon="6.73926">
        <ele>967</ele>
        <time>2015-07-11T08:59:27Z</time>
      </trkpt>
      <trkpt lat="43.71161" lon="6.73914">
        <ele>966</ele>
        <time>2015-07-11T08:59:33Z</time>
      </trkpt>
      <trkpt lat="43.71168" lon="6.73916">
        <ele>965</ele>
        <time>2015-07-11T08:59:36Z</time>
      </trkpt>
      <trkpt lat="43.71178" lon="6.73936">
        <ele>963</ele>
        <time>2015-07-11T08:59:41Z</time>
      </trkpt>
      <trkpt lat="43.71182" lon="6.7396">
        <ele>963</ele>
        <time>2015-07-11T08:59:46Z</time>
      </trkpt>
      <trkpt lat="43.71183" lon="6.73985">
        <ele>962</ele>
        <time>2015-07-11T08:59:51Z</time>
      </trkpt>
      <trkpt lat="43.71182" lon="6.74011">
        <ele>962</ele>
        <time>2015-07-11T08:59:56Z</time>
      </trkpt>
      <trkpt lat="43.71185" lon="6.74018">
        <ele>963</ele>
        <time>2015-07-11T09:00:02Z</time>
      </trkpt>
      <trkpt lat="43.71191" lon="6.74033">
        <ele>962</ele>
        <time>2015-07-11T09:00:08Z</time>
      </trkpt>
      <trkpt lat="43.71198" lon="6.74042">
        <ele>964</ele>
        <time>2015-07-11T09:00:13Z</time>
      </trkpt>
      <trkpt lat="43.71201" lon="6.7405">
        <ele>965</ele>
        <time>2015-07-11T09:00:18Z</time>
      </trkpt>
      <trkpt lat="43.71207" lon="6.74062">
        <ele>964</ele>
        <time>2015-07-11T09:00:25Z</time>
      </trkpt>
      <trkpt lat="43.7121" lon="6.7407">
        <ele>965</ele>
        <time>2015-07-11T09:00:30Z</time>
      </trkpt>
      <trkpt lat="43.71212" lon="6.74079">
        <ele>966</ele>
        <time>2015-07-11T09:00:35Z</time>
      </trkpt>
      <trkpt lat="43.71214" lon="6.74082">
        <ele>966</ele>
        <time>2015-07-11T09:01:06Z</time>
      </trkpt>
      <trkpt lat="43.71223" lon="6.74095">
        <ele>965</ele>
        <time>2015-07-11T09:01:12Z</time>
      </trkpt>
      <trkpt lat="43.71233" lon="6.74108">
        <ele>965</ele>
        <time>2015-07-11T09:01:18Z</time>
      </trkpt>
      <trkpt lat="43.7124" lon="6.7412">
        <ele>967</ele>
        <time>2015-07-11T09:01:23Z</time>
      </trkpt>
      <trkpt lat="43.71246" lon="6.74129">
        <ele>967</ele>
        <time>2015-07-11T09:01:29Z</time>
      </trkpt>
      <trkpt lat="43.71251" lon="6.74136">
        <ele>967</ele>
        <time>2015-07-11T09:01:34Z</time>
      </trkpt>
      <trkpt lat="43.71257" lon="6.74146">
        <ele>1031</ele>
        <time>2015-07-11T09:01:39Z</time>
      </trkpt>
      <trkpt lat="43.71264" lon="6.74155">
        <ele>977</ele>
        <time>2015-07-11T09:01:46Z</time>
      </trkpt>
      <trkpt lat="43.7127" lon="6.74159">
        <ele>974</ele>
        <time>2015-07-11T09:01:53Z</time>
      </trkpt>
      <trkpt lat="43.71275" lon="6.74164">
        <ele>975</ele>
        <time>2015-07-11T09:02:02Z</time>
      </trkpt>
      <trkpt lat="43.71277" lon="6.74166">
        <ele>976</ele>
        <time>2015-07-11T09:02:07Z</time>
      </trkpt>
      <trkpt lat="43.7128" lon="6.74168">
        <ele>977</ele>
        <time>2015-07-11T09:02:12Z</time>
      </trkpt>
      <trkpt lat="43.71282" lon="6.74171">
        <ele>977</ele>
        <time>2015-07-11T09:02:17Z</time>
      </trkpt>
      <trkpt lat="43.71288" lon="6.74173">
        <ele>977</ele>
        <time>2015-07-11T09:02:24Z</time>
      </trkpt>
      <trkpt lat="43.71294" lon="6.74175">
        <ele>979</ele>
        <time>2015-07-11T09:02:31Z</time>
      </trkpt>
      <trkpt lat="43.71296" lon="6.74177">
        <ele>980</ele>
        <time>2015-07-11T09:02:36Z</time>
      </trkpt>
      <trkpt lat="43.71299" lon="6.74185">
        <ele>980</ele>
        <time>2015-07-11T09:02:42Z</time>
      </trkpt>
      <trkpt lat="43.71295" lon="6.74191">
        <ele>982</ele>
        <time>2015-07-11T09:02:48Z</time>
      </trkpt>
      <trkpt lat="43.71289" lon="6.74193">
        <ele>984</ele>
        <time>2015-07-11T09:03:29Z</time>
      </trkpt>
      <trkpt lat="43.71284" lon="6.742">
        <ele>983</ele>
        <time>2015-07-11T09:03:34Z</time>
      </trkpt>
      <trkpt lat="43.71274" lon="6.74205">
        <ele>983</ele>
        <time>2015-07-11T09:03:39Z</time>
      </trkpt>
      <trkpt lat="43.71262" lon="6.7421">
        <ele>982</ele>
        <time>2015-07-11T09:03:45Z</time>
      </trkpt>
      <trkpt lat="43.71251" lon="6.74209">
        <ele>981</ele>
        <time>2015-07-11T09:03:51Z</time>
      </trkpt>
      <trkpt lat="43.71244" lon="6.74225">
        <ele>980</ele>
        <time>2015-07-11T09:03:56Z</time>
      </trkpt>
      <trkpt lat="43.71242" lon="6.74245">
        <ele>981</ele>
        <time>2015-07-11T09:04:02Z</time>
      </trkpt>
      <trkpt lat="43.71232" lon="6.74265">
        <ele>983</ele>
        <time>2015-07-11T09:04:08Z</time>
      </trkpt>
      <trkpt lat="43.71228" lon="6.74282">
        <ele>983</ele>
        <time>2015-07-11T09:04:14Z</time>
      </trkpt>
      <trkpt lat="43.71229" lon="6.74301">
        <ele>983</ele>
        <time>2015-07-11T09:04:20Z</time>
      </trkpt>
      <trkpt lat="43.71237" lon="6.74318">
        <ele>982</ele>
        <time>2015-07-11T09:04:25Z</time>
      </trkpt>
      <trkpt lat="43.71246" lon="6.74333">
        <ele>982</ele>
        <time>2015-07-11T09:04:30Z</time>
      </trkpt>
      <trkpt lat="43.71253" lon="6.74352">
        <ele>982</ele>
        <time>2015-07-11T09:04:36Z</time>
      </trkpt>
      <trkpt lat="43.71252" lon="6.74376">
        <ele>981</ele>
        <time>2015-07-11T09:04:41Z</time>
      </trkpt>
      <trkpt lat="43.71258" lon="6.74399">
        <ele>980</ele>
        <time>2015-07-11T09:04:47Z</time>
      </trkpt>
      <trkpt lat="43.71268" lon="6.74411">
        <ele>980</ele>
        <time>2015-07-11T09:04:53Z</time>
      </trkpt>
      <trkpt lat="43.71273" lon="6.74417">
        <ele>981</ele>
        <time>2015-07-11T09:05:00Z</time>
      </trkpt>
      <trkpt lat="43.71274" lon="6.74425">
        <ele>981</ele>
        <time>2015-07-11T09:05:06Z</time>
      </trkpt>
      <trkpt lat="43.71276" lon="6.74432">
        <ele>982</ele>
        <time>2015-07-11T09:05:12Z</time>
      </trkpt>
      <trkpt lat="43.71275" lon="6.74439">
        <ele>982</ele>
        <time>2015-07-11T09:05:29Z</time>
      </trkpt>
      <trkpt lat="43.71278" lon="6.74448">
        <ele>982</ele>
        <time>2015-07-11T09:05:40Z</time>
      </trkpt>
      <trkpt lat="43.71281" lon="6.74455">
        <ele>983</ele>
        <time>2015-07-11T09:05:49Z</time>
      </trkpt>
      <trkpt lat="43.71282" lon="6.74463">
        <ele>982</ele>
        <time>2015-07-11T09:05:55Z</time>
      </trkpt>
      <trkpt lat="43.71282" lon="6.74468">
        <ele>982</ele>
        <time>2015-07-11T09:06:00Z</time>
      </trkpt>
      <trkpt lat="43.71285" lon="6.7447">
        <ele>983</ele>
        <time>2015-07-11T09:06:20Z</time>
      </trkpt>
      <trkpt lat="43.71287" lon="6.74472">
        <ele>1056</ele>
        <time>2015-07-11T09:06:26Z</time>
      </trkpt>
      <trkpt lat="43.71288" lon="6.74476">
        <ele>997</ele>
        <time>2015-07-11T09:06:31Z</time>
      </trkpt>
      <trkpt lat="43.71289" lon="6.7448">
        <ele>989</ele>
        <time>2015-07-11T09:06:38Z</time>
      </trkpt>
      <trkpt lat="43.71294" lon="6.74486">
        <ele>988</ele>
        <time>2015-07-11T09:06:45Z</time>
      </trkpt>
      <trkpt lat="43.71298" lon="6.7449">
        <ele>988</ele>
        <time>2015-07-11T09:06:53Z</time>
      </trkpt>
      <trkpt lat="43.71303" lon="6.74497">
        <ele>987</ele>
        <time>2015-07-11T09:07:02Z</time>
      </trkpt>
      <trkpt lat="43.71308" lon="6.745">
        <ele>988</ele>
        <time>2015-07-11T09:07:08Z</time>
      </trkpt>
      <trkpt lat="43.71315" lon="6.74502">
        <ele>988</ele>
        <time>2015-07-11T09:07:17Z</time>
      </trkpt>
      <trkpt lat="43.7132" lon="6.74506">
        <ele>989</ele>
        <time>2015-07-11T09:07:23Z</time>
      </trkpt>
      <trkpt lat="43.71326" lon="6.7451">
        <ele>989</ele>
        <time>2015-07-11T09:07:29Z</time>
      </trkpt>
      <trkpt lat="43.71332" lon="6.74516">
        <ele>990</ele>
        <time>2015-07-11T09:07:36Z</time>
      </trkpt>
      <trkpt lat="43.71335" lon="6.74524">
        <ele>991</ele>
        <time>2015-07-11T09:07:42Z</time>
      </trkpt>
      <trkpt lat="43.7134" lon="6.74528">
        <ele>992</ele>
        <time>2015-07-11T09:07:49Z</time>
      </trkpt>
      <trkpt lat="43.71345" lon="6.74535">
        <ele>993</ele>
        <time>2015-07-11T09:07:57Z</time>
      </trkpt>
      <trkpt lat="43.71345" lon="6.74543">
        <ele>991</ele>
        <time>2015-07-11T09:08:04Z</time>
      </trkpt>
      <trkpt lat="43.71345" lon="6.74547">
        <ele>991</ele>
        <time>2015-07-11T09:08:09Z</time>
      </trkpt>
      <trkpt lat="43.71345" lon="6.74553">
        <ele>992</ele>
        <time>2015-07-11T09:08:52Z</time>
      </trkpt>
      <trkpt lat="43.71346" lon="6.74563">
        <ele>992</ele>
        <time>2015-07-11T09:08:57Z</time>
      </trkpt>
      <trkpt lat="43.71356" lon="6.74574">
        <ele>993</ele>
        <time>2015-07-11T09:09:03Z</time>
      </trkpt>
      <trkpt lat="43.71365" lon="6.7458">
        <ele>994</ele>
        <time>2015-07-11T09:09:09Z</time>
      </trkpt>
      <trkpt lat="43.71375" lon="6.74587">
        <ele>994</ele>
        <time>2015-07-11T09:09:15Z</time>
      </trkpt>
      <trkpt lat="43.71385" lon="6.74596">
        <ele>995</ele>
        <time>2015-07-11T09:09:21Z</time>
      </trkpt>
      <trkpt lat="43.71392" lon="6.74607">
        <ele>996</ele>
        <time>2015-07-11T09:09:28Z</time>
      </trkpt>
      <trkpt lat="43.71399" lon="6.74615">
        <ele>997</ele>
        <time>2015-07-11T09:09:34Z</time>
      </trkpt>
      <trkpt lat="43.71405" lon="6.74618">
        <ele>999</ele>
        <time>2015-07-11T09:09:39Z</time>
      </trkpt>
      <trkpt lat="43.71412" lon="6.74622">
        <ele>1000</ele>
        <time>2015-07-11T09:09:45Z</time>
      </trkpt>
      <trkpt lat="43.71418" lon="6.74624">
        <ele>1002</ele>
        <time>2015-07-11T09:09:51Z</time>
      </trkpt>
      <trkpt lat="43.71423" lon="6.74627">
        <ele>1004</ele>
        <time>2015-07-11T09:09:57Z</time>
      </trkpt>
      <trkpt lat="43.7143" lon="6.74631">
        <ele>1005</ele>
        <time>2015-07-11T09:10:04Z</time>
      </trkpt>
      <trkpt lat="43.71436" lon="6.74634">
        <ele>1006</ele>
        <time>2015-07-11T09:10:10Z</time>
      </trkpt>
      <trkpt lat="43.71439" lon="6.74633">
        <ele>1008</ele>
        <time>2015-07-11T09:10:29Z</time>
      </trkpt>
      <trkpt lat="43.71445" lon="6.74639">
        <ele>1009</ele>
        <time>2015-07-11T09:10:35Z</time>
      </trkpt>
      <trkpt lat="43.71451" lon="6.74645">
        <ele>1010</ele>
        <time>2015-07-11T09:10:41Z</time>
      </trkpt>
      <trkpt lat="43.71458" lon="6.74648">
        <ele>1011</ele>
        <time>2015-07-11T09:10:46Z</time>
      </trkpt>
      <trkpt lat="43.71463" lon="6.74654">
        <ele>1011</ele>
        <time>2015-07-11T09:10:52Z</time>
      </trkpt>
      <trkpt lat="43.71468" lon="6.7466">
        <ele>1013</ele>
        <time>2015-07-11T09:10:58Z</time>
      </trkpt>
      <trkpt lat="43.71473" lon="6.74665">
        <ele>1013</ele>
        <time>2015-07-11T09:11:04Z</time>
      </trkpt>
      <trkpt lat="43.71478" lon="6.74671">
        <ele>1014</ele>
        <time>2015-07-11T09:11:10Z</time>
      </trkpt>
      <trkpt lat="43.71484" lon="6.74675">
        <ele>1016</ele>
        <time>2015-07-11T09:11:16Z</time>
      </trkpt>
      <trkpt lat="43.7149" lon="6.74678">
        <ele>1017</ele>
        <time>2015-07-11T09:11:22Z</time>
      </trkpt>
      <trkpt lat="43.71497" lon="6.74682">
        <ele>1018</ele>
        <time>2015-07-11T09:11:28Z</time>
      </trkpt>
      <trkpt lat="43.71501" lon="6.74687">
        <ele>1019</ele>
        <time>2015-07-11T09:11:34Z</time>
      </trkpt>
      <trkpt lat="43.71507" lon="6.7469">
        <ele>1020</ele>
        <time>2015-07-11T09:11:39Z</time>
      </trkpt>
      <trkpt lat="43.71514" lon="6.74695">
        <ele>1021</ele>
        <time>2015-07-11T09:11:45Z</time>
      </trkpt>
      <trkpt lat="43.71521" lon="6.74697">
        <ele>1022</ele>
        <time>2015-07-11T09:11:50Z</time>
      </trkpt>
      <trkpt lat="43.71528" lon="6.74698">
        <ele>1023</ele>
        <time>2015-07-11T09:11:56Z</time>
      </trkpt>
      <trkpt lat="43.71535" lon="6.747">
        <ele>1024</ele>
        <time>2015-07-11T09:12:01Z</time>
      </trkpt>
      <trkpt lat="43.71544" lon="6.74703">
        <ele>1024</ele>
        <time>2015-07-11T09:12:07Z</time>
      </trkpt>
      <trkpt lat="43.71553" lon="6.74706">
        <ele>1025</ele>
        <time>2015-07-11T09:12:13Z</time>
      </trkpt>
      <trkpt lat="43.71559" lon="6.74706">
        <ele>1025</ele>
        <time>2015-07-11T09:12:18Z</time>
      </trkpt>
      <trkpt lat="43.71565" lon="6.74711">
        <ele>1025</ele>
        <time>2015-07-11T09:12:23Z</time>
      </trkpt>
      <trkpt lat="43.7157" lon="6.74717">
        <ele>1026</ele>
        <time>2015-07-11T09:12:28Z</time>
      </trkpt>
      <trkpt lat="43.71577" lon="6.74724">
        <ele>1026</ele>
        <time>2015-07-11T09:12:34Z</time>
      </trkpt>
      <trkpt lat="43.71584" lon="6.74731">
        <ele>1027</ele>
        <time>2015-07-11T09:12:40Z</time>
      </trkpt>
      <trkpt lat="43.71591" lon="6.7474">
        <ele>1027</ele>
        <time>2015-07-11T09:12:46Z</time>
      </trkpt>
      <trkpt lat="43.71599" lon="6.74745">
        <ele>1027</ele>
        <time>2015-07-11T09:12:52Z</time>
      </trkpt>
      <trkpt lat="43.71608" lon="6.74748">
        <ele>1028</ele>
        <time>2015-07-11T09:12:58Z</time>
      </trkpt>
      <trkpt lat="43.71617" lon="6.74748">
        <ele>1029</ele>
        <time>2015-07-11T09:13:04Z</time>
      </trkpt>
      <trkpt lat="43.71627" lon="6.74751">
        <ele>1030</ele>
        <time>2015-07-11T09:13:10Z</time>
      </trkpt>
      <trkpt lat="43.71637" lon="6.74752">
        <ele>1030</ele>
        <time>2015-07-11T09:13:16Z</time>
      </trkpt>
      <trkpt lat="43.71648" lon="6.74754">
        <ele>1029</ele>
        <time>2015-07-11T09:13:22Z</time>
      </trkpt>
      <trkpt lat="43.71657" lon="6.74757">
        <ele>1028</ele>
        <time>2015-07-11T09:13:28Z</time>
      </trkpt>
      <trkpt lat="43.71657" lon="6.74766">
        <ele>1029</ele>
        <time>2015-07-11T09:13:34Z</time>
      </trkpt>
      <trkpt lat="43.71651" lon="6.74773">
        <ele>1028</ele>
        <time>2015-07-11T09:13:39Z</time>
      </trkpt>
      <trkpt lat="43.71646" lon="6.74776">
        <ele>1027</ele>
        <time>2015-07-11T09:13:48Z</time>
      </trkpt>
      <trkpt lat="43.71645" lon="6.74772">
        <ele>1027</ele>
        <time>2015-07-11T09:14:48Z</time>
      </trkpt>
      <trkpt lat="43.71642" lon="6.7477">
        <ele>1028</ele>
        <time>2015-07-11T09:20:16Z</time>
      </trkpt>
      <trkpt lat="43.7164" lon="6.74768">
        <ele>1033</ele>
        <time>2015-07-11T09:22:20Z</time>
      </trkpt>
      <trkpt lat="43.71641" lon="6.74772">
        <ele>1026</ele>
        <time>2015-07-11T09:24:13Z</time>
      </trkpt>
      <trkpt lat="43.71643" lon="6.74774">
        <ele>1026</ele>
        <time>2015-07-11T09:24:20Z</time>
      </trkpt>
      <trkpt lat="43.71646" lon="6.74774">
        <ele>1024</ele>
        <time>2015-07-11T09:25:56Z</time>
      </trkpt>
      <trkpt lat="43.71652" lon="6.74775">
        <ele>1028</ele>
        <time>2015-07-11T09:26:04Z</time>
      </trkpt>
      <trkpt lat="43.71651" lon="6.74779">
        <ele>1025</ele>
        <time>2015-07-11T09:26:12Z</time>
      </trkpt>
      <trkpt lat="43.7164" lon="6.74792">
        <ele>1022</ele>
        <time>2015-07-11T09:26:18Z</time>
      </trkpt>
      <trkpt lat="43.71629" lon="6.74807">
        <ele>1022</ele>
        <time>2015-07-11T09:26:23Z</time>
      </trkpt>
      <trkpt lat="43.71625" lon="6.74815">
        <ele>1022</ele>
        <time>2015-07-11T09:26:25Z</time>
      </trkpt>
      <trkpt lat="43.71616" lon="6.74832">
        <ele>1023</ele>
        <time>2015-07-11T09:26:29Z</time>
      </trkpt>
      <trkpt lat="43.71606" lon="6.74849">
        <ele>1022</ele>
        <time>2015-07-11T09:26:34Z</time>
      </trkpt>
      <trkpt lat="43.71603" lon="6.74852">
        <ele>1022</ele>
        <time>2015-07-11T09:26:35Z</time>
      </trkpt>
      <trkpt lat="43.71591" lon="6.74869">
        <ele>1022</ele>
        <time>2015-07-11T09:26:40Z</time>
      </trkpt>
      <trkpt lat="43.71578" lon="6.74887">
        <ele>1023</ele>
        <time>2015-07-11T09:26:45Z</time>
      </trkpt>
      <trkpt lat="43.71567" lon="6.749">
        <ele>1023</ele>
        <time>2015-07-11T09:26:50Z</time>
      </trkpt>
      <trkpt lat="43.71555" lon="6.7491">
        <ele>1022</ele>
        <time>2015-07-11T09:26:55Z</time>
      </trkpt>
      <trkpt lat="43.71543" lon="6.74916">
        <ele>1022</ele>
        <time>2015-07-11T09:27:00Z</time>
      </trkpt>
      <trkpt lat="43.7153" lon="6.74922">
        <ele>1024</ele>
        <time>2015-07-11T09:27:05Z</time>
      </trkpt>
      <trkpt lat="43.71518" lon="6.74932">
        <ele>1024</ele>
        <time>2015-07-11T09:27:10Z</time>
      </trkpt>
      <trkpt lat="43.71508" lon="6.74948">
        <ele>1024</ele>
        <time>2015-07-11T09:27:15Z</time>
      </trkpt>
      <trkpt lat="43.71493" lon="6.74959">
        <ele>1024</ele>
        <time>2015-07-11T09:27:20Z</time>
      </trkpt>
      <trkpt lat="43.7148" lon="6.74955">
        <ele>1022</ele>
        <time>2015-07-11T09:27:25Z</time>
      </trkpt>
      <trkpt lat="43.71469" lon="6.74964">
        <ele>1023</ele>
        <time>2015-07-11T09:27:30Z</time>
      </trkpt>
      <trkpt lat="43.71461" lon="6.74969">
        <ele>1022</ele>
        <time>2015-07-11T09:27:33Z</time>
      </trkpt>
      <trkpt lat="43.71449" lon="6.74977">
        <ele>1024</ele>
        <time>2015-07-11T09:27:39Z</time>
      </trkpt>
      <trkpt lat="43.71439" lon="6.74986">
        <ele>1027</ele>
        <time>2015-07-11T09:27:45Z</time>
      </trkpt>
      <trkpt lat="43.71433" lon="6.74998">
        <ele>1029</ele>
        <time>2015-07-11T09:27:51Z</time>
      </trkpt>
      <trkpt lat="43.71425" lon="6.75009">
        <ele>1029</ele>
        <time>2015-07-11T09:27:57Z</time>
      </trkpt>
      <trkpt lat="43.71419" lon="6.75022">
        <ele>1031</ele>
        <time>2015-07-11T09:28:04Z</time>
      </trkpt>
      <trkpt lat="43.71417" lon="6.75027">
        <ele>1027</ele>
        <time>2015-07-11T09:28:07Z</time>
      </trkpt>
      <trkpt lat="43.71414" lon="6.7503">
        <ele>1029</ele>
        <time>2015-07-11T09:28:09Z</time>
      </trkpt>
      <trkpt lat="43.7141" lon="6.75042">
        <ele>1031</ele>
        <time>2015-07-11T09:28:15Z</time>
      </trkpt>
      <trkpt lat="43.71407" lon="6.7505">
        <ele>1032</ele>
        <time>2015-07-11T09:28:20Z</time>
      </trkpt>
      <trkpt lat="43.71403" lon="6.75062">
        <ele>1033</ele>
        <time>2015-07-11T09:28:26Z</time>
      </trkpt>
      <trkpt lat="43.71403" lon="6.7507">
        <ele>1032</ele>
        <time>2015-07-11T09:28:31Z</time>
      </trkpt>
      <trkpt lat="43.71398" lon="6.75077">
        <ele>1033</ele>
        <time>2015-07-11T09:28:36Z</time>
      </trkpt>
      <trkpt lat="43.71392" lon="6.75081">
        <ele>1033</ele>
        <time>2015-07-11T09:28:41Z</time>
      </trkpt>
      <trkpt lat="43.71387" lon="6.75092">
        <ele>1032</ele>
        <time>2015-07-11T09:28:47Z</time>
      </trkpt>
      <trkpt lat="43.71384" lon="6.751">
        <ele>1035</ele>
        <time>2015-07-11T09:28:52Z</time>
      </trkpt>
      <trkpt lat="43.71377" lon="6.75108">
        <ele>1038</ele>
        <time>2015-07-11T09:28:58Z</time>
      </trkpt>
      <trkpt lat="43.7137" lon="6.75115">
        <ele>1039</ele>
        <time>2015-07-11T09:29:04Z</time>
      </trkpt>
      <trkpt lat="43.71362" lon="6.75124">
        <ele>1037</ele>
        <time>2015-07-11T09:29:11Z</time>
      </trkpt>
      <trkpt lat="43.71356" lon="6.75126">
        <ele>1037</ele>
        <time>2015-07-11T09:29:16Z</time>
      </trkpt>
      <trkpt lat="43.71348" lon="6.75135">
        <ele>1037</ele>
        <time>2015-07-11T09:29:24Z</time>
      </trkpt>
      <trkpt lat="43.71343" lon="6.75142">
        <ele>1041</ele>
        <time>2015-07-11T09:29:30Z</time>
      </trkpt>
      <trkpt lat="43.71338" lon="6.75149">
        <ele>1041</ele>
        <time>2015-07-11T09:29:35Z</time>
      </trkpt>
      <trkpt lat="43.71334" lon="6.75156">
        <ele>1042</ele>
        <time>2015-07-11T09:29:41Z</time>
      </trkpt>
      <trkpt lat="43.71331" lon="6.75162">
        <ele>1040</ele>
        <time>2015-07-11T09:29:48Z</time>
      </trkpt>
      <trkpt lat="43.71326" lon="6.75167">
        <ele>1042</ele>
        <time>2015-07-11T09:29:54Z</time>
      </trkpt>
      <trkpt lat="43.7132" lon="6.7517">
        <ele>1041</ele>
        <time>2015-07-11T09:29:59Z</time>
      </trkpt>
      <trkpt lat="43.71315" lon="6.75177">
        <ele>1044</ele>
        <time>2015-07-11T09:30:04Z</time>
      </trkpt>
      <trkpt lat="43.71308" lon="6.75182">
        <ele>1045</ele>
        <time>2015-07-11T09:30:11Z</time>
      </trkpt>
      <trkpt lat="43.71302" lon="6.75188">
        <ele>1046</ele>
        <time>2015-07-11T09:30:17Z</time>
      </trkpt>
      <trkpt lat="43.71297" lon="6.75195">
        <ele>1047</ele>
        <time>2015-07-11T09:30:22Z</time>
      </trkpt>
      <trkpt lat="43.71291" lon="6.75199">
        <ele>1049</ele>
        <time>2015-07-11T09:30:28Z</time>
      </trkpt>
      <trkpt lat="43.71286" lon="6.75207">
        <ele>1052</ele>
        <time>2015-07-11T09:30:34Z</time>
      </trkpt>
      <trkpt lat="43.71282" lon="6.75214">
        <ele>1054</ele>
        <time>2015-07-11T09:30:40Z</time>
      </trkpt>
      <trkpt lat="43.71277" lon="6.75218">
        <ele>1054</ele>
        <time>2015-07-11T09:30:45Z</time>
      </trkpt>
      <trkpt lat="43.71272" lon="6.75225">
        <ele>1050</ele>
        <time>2015-07-11T09:30:52Z</time>
      </trkpt>
      <trkpt lat="43.71268" lon="6.75227">
        <ele>1051</ele>
        <time>2015-07-11T09:30:54Z</time>
      </trkpt>
      <trkpt lat="43.71261" lon="6.75236">
        <ele>1052</ele>
        <time>2015-07-11T09:31:00Z</time>
      </trkpt>
      <trkpt lat="43.71256" lon="6.75242">
        <ele>1053</ele>
        <time>2015-07-11T09:31:05Z</time>
      </trkpt>
      <trkpt lat="43.71253" lon="6.75252">
        <ele>1054</ele>
        <time>2015-07-11T09:31:11Z</time>
      </trkpt>
      <trkpt lat="43.71247" lon="6.75258">
        <ele>1054</ele>
        <time>2015-07-11T09:31:16Z</time>
      </trkpt>
      <trkpt lat="43.71241" lon="6.75263">
        <ele>1055</ele>
        <time>2015-07-11T09:31:21Z</time>
      </trkpt>
      <trkpt lat="43.71237" lon="6.7527">
        <ele>1056</ele>
        <time>2015-07-11T09:31:27Z</time>
      </trkpt>
      <trkpt lat="43.71235" lon="6.75274">
        <ele>1058</ele>
        <time>2015-07-11T09:31:29Z</time>
      </trkpt>
      <trkpt lat="43.71227" lon="6.75282">
        <ele>1055</ele>
        <time>2015-07-11T09:31:36Z</time>
      </trkpt>
      <trkpt lat="43.71223" lon="6.75284">
        <ele>1058</ele>
        <time>2015-07-11T09:31:37Z</time>
      </trkpt>
      <trkpt lat="43.7122" lon="6.75288">
        <ele>1061</ele>
        <time>2015-07-11T09:31:39Z</time>
      </trkpt>
      <trkpt lat="43.71218" lon="6.75289">
        <ele>1061</ele>
        <time>2015-07-11T09:31:41Z</time>
      </trkpt>
      <trkpt lat="43.71212" lon="6.75291">
        <ele>1063</ele>
        <time>2015-07-11T09:31:46Z</time>
      </trkpt>
      <trkpt lat="43.71202" lon="6.75296">
        <ele>1061</ele>
        <time>2015-07-11T09:31:53Z</time>
      </trkpt>
      <trkpt lat="43.71198" lon="6.75303">
        <ele>1060</ele>
        <time>2015-07-11T09:32:00Z</time>
      </trkpt>
      <trkpt lat="43.71193" lon="6.7531">
        <ele>1060</ele>
        <time>2015-07-11T09:32:06Z</time>
      </trkpt>
      <trkpt lat="43.71189" lon="6.75317">
        <ele>1062</ele>
        <time>2015-07-11T09:32:11Z</time>
      </trkpt>
      <trkpt lat="43.71181" lon="6.75323">
        <ele>1065</ele>
        <time>2015-07-11T09:32:18Z</time>
      </trkpt>
      <trkpt lat="43.71174" lon="6.75326">
        <ele>1064</ele>
        <time>2015-07-11T09:32:25Z</time>
      </trkpt>
      <trkpt lat="43.71167" lon="6.7533">
        <ele>1063</ele>
        <time>2015-07-11T09:32:31Z</time>
      </trkpt>
      <trkpt lat="43.71161" lon="6.75335">
        <ele>1066</ele>
        <time>2015-07-11T09:32:37Z</time>
      </trkpt>
      <trkpt lat="43.71154" lon="6.75342">
        <ele>1066</ele>
        <time>2015-07-11T09:32:43Z</time>
      </trkpt>
      <trkpt lat="43.71149" lon="6.75349">
        <ele>1067</ele>
        <time>2015-07-11T09:32:49Z</time>
      </trkpt>
      <trkpt lat="43.71144" lon="6.7535">
        <ele>1067</ele>
        <time>2015-07-11T09:32:54Z</time>
      </trkpt>
      <trkpt lat="43.71137" lon="6.75352">
        <ele>1065</ele>
        <time>2015-07-11T09:32:59Z</time>
      </trkpt>
      <trkpt lat="43.71134" lon="6.75354">
        <ele>1066</ele>
        <time>2015-07-11T09:33:05Z</time>
      </trkpt>
      <trkpt lat="43.71131" lon="6.75361">
        <ele>1068</ele>
        <time>2015-07-11T09:33:12Z</time>
      </trkpt>
      <trkpt lat="43.71127" lon="6.75369">
        <ele>1071</ele>
        <time>2015-07-11T09:33:19Z</time>
      </trkpt>
      <trkpt lat="43.71123" lon="6.75373">
        <ele>1072</ele>
        <time>2015-07-11T09:33:38Z</time>
      </trkpt>
      <trkpt lat="43.71121" lon="6.75376">
        <ele>1078</ele>
        <time>2015-07-11T09:34:21Z</time>
      </trkpt>
      <trkpt lat="43.71117" lon="6.75378">
        <ele>1079</ele>
        <time>2015-07-11T09:34:26Z</time>
      </trkpt>
      <trkpt lat="43.71112" lon="6.75381">
        <ele>1078</ele>
        <time>2015-07-11T09:34:31Z</time>
      </trkpt>
      <trkpt lat="43.71105" lon="6.75382">
        <ele>1077</ele>
        <time>2015-07-11T09:34:38Z</time>
      </trkpt>
      <trkpt lat="43.71099" lon="6.75385">
        <ele>1079</ele>
        <time>2015-07-11T09:34:43Z</time>
      </trkpt>
      <trkpt lat="43.71095" lon="6.7539">
        <ele>1080</ele>
        <time>2015-07-11T09:34:49Z</time>
      </trkpt>
      <trkpt lat="43.7109" lon="6.75397">
        <ele>1081</ele>
        <time>2015-07-11T09:34:55Z</time>
      </trkpt>
      <trkpt lat="43.71086" lon="6.75404">
        <ele>1084</ele>
        <time>2015-07-11T09:35:02Z</time>
      </trkpt>
      <trkpt lat="43.71081" lon="6.7541">
        <ele>1084</ele>
        <time>2015-07-11T09:35:08Z</time>
      </trkpt>
      <trkpt lat="43.71081" lon="6.75414">
        <ele>1082</ele>
        <time>2015-07-11T09:35:10Z</time>
      </trkpt>
      <trkpt lat="43.71078" lon="6.75415">
        <ele>1084</ele>
        <time>2015-07-11T09:35:12Z</time>
      </trkpt>
      <trkpt lat="43.71076" lon="6.75419">
        <ele>1084</ele>
        <time>2015-07-11T09:35:15Z</time>
      </trkpt>
      <trkpt lat="43.71072" lon="6.75428">
        <ele>1085</ele>
        <time>2015-07-11T09:35:23Z</time>
      </trkpt>
      <trkpt lat="43.71067" lon="6.75433">
        <ele>1086</ele>
        <time>2015-07-11T09:35:29Z</time>
      </trkpt>
      <trkpt lat="43.71063" lon="6.7544">
        <ele>1086</ele>
        <time>2015-07-11T09:35:35Z</time>
      </trkpt>
      <trkpt lat="43.71058" lon="6.75445">
        <ele>1086</ele>
        <time>2015-07-11T09:35:41Z</time>
      </trkpt>
      <trkpt lat="43.71053" lon="6.7545">
        <ele>1091</ele>
        <time>2015-07-11T09:35:48Z</time>
      </trkpt>
      <trkpt lat="43.71047" lon="6.75456">
        <ele>1092</ele>
        <time>2015-07-11T09:35:54Z</time>
      </trkpt>
      <trkpt lat="43.71041" lon="6.7546">
        <ele>1095</ele>
        <time>2015-07-11T09:36:02Z</time>
      </trkpt>
      <trkpt lat="43.71035" lon="6.75459">
        <ele>1097</ele>
        <time>2015-07-11T09:36:08Z</time>
      </trkpt>
      <trkpt lat="43.71028" lon="6.7546">
        <ele>1099</ele>
        <time>2015-07-11T09:36:14Z</time>
      </trkpt>
      <trkpt lat="43.71021" lon="6.75463">
        <ele>1097</ele>
        <time>2015-07-11T09:36:20Z</time>
      </trkpt>
      <trkpt lat="43.71014" lon="6.75461">
        <ele>1099</ele>
        <time>2015-07-11T09:36:28Z</time>
      </trkpt>
      <trkpt lat="43.71008" lon="6.75459">
        <ele>1100</ele>
        <time>2015-07-11T09:36:34Z</time>
      </trkpt>
      <trkpt lat="43.71001" lon="6.75458">
        <ele>1102</ele>
        <time>2015-07-11T09:36:41Z</time>
      </trkpt>
      <trkpt lat="43.70995" lon="6.75455">
        <ele>1102</ele>
        <time>2015-07-11T09:36:47Z</time>
      </trkpt>
      <trkpt lat="43.70989" lon="6.75454">
        <ele>1103</ele>
        <time>2015-07-11T09:36:53Z</time>
      </trkpt>
      <trkpt lat="43.70984" lon="6.7545">
        <ele>1105</ele>
        <time>2015-07-11T09:36:59Z</time>
      </trkpt>
      <trkpt lat="43.70977" lon="6.75449">
        <ele>1106</ele>
        <time>2015-07-11T09:37:05Z</time>
      </trkpt>
      <trkpt lat="43.70971" lon="6.75448">
        <ele>1106</ele>
        <time>2015-07-11T09:37:11Z</time>
      </trkpt>
      <trkpt lat="43.70969" lon="6.7545">
        <ele>1108</ele>
        <time>2015-07-11T09:37:16Z</time>
      </trkpt>
      <trkpt lat="43.70966" lon="6.75457">
        <ele>1108</ele>
        <time>2015-07-11T09:37:22Z</time>
      </trkpt>
      <trkpt lat="43.70959" lon="6.7546">
        <ele>1110</ele>
        <time>2015-07-11T09:37:28Z</time>
      </trkpt>
      <trkpt lat="43.70953" lon="6.75458">
        <ele>1113</ele>
        <time>2015-07-11T09:37:34Z</time>
      </trkpt>
      <trkpt lat="43.70946" lon="6.75458">
        <ele>1115</ele>
        <time>2015-07-11T09:37:42Z</time>
      </trkpt>
      <trkpt lat="43.70941" lon="6.75459">
        <ele>1114</ele>
        <time>2015-07-11T09:37:47Z</time>
      </trkpt>
      <trkpt lat="43.70934" lon="6.7546">
        <ele>1115</ele>
        <time>2015-07-11T09:37:54Z</time>
      </trkpt>
      <trkpt lat="43.70932" lon="6.75468">
        <ele>1117</ele>
        <time>2015-07-11T09:38:00Z</time>
      </trkpt>
      <trkpt lat="43.70927" lon="6.75475">
        <ele>1119</ele>
        <time>2015-07-11T09:38:06Z</time>
      </trkpt>
      <trkpt lat="43.7092" lon="6.75478">
        <ele>1119</ele>
        <time>2015-07-11T09:38:13Z</time>
      </trkpt>
      <trkpt lat="43.70914" lon="6.75477">
        <ele>1121</ele>
        <time>2015-07-11T09:38:19Z</time>
      </trkpt>
      <trkpt lat="43.70908" lon="6.75476">
        <ele>1122</ele>
        <time>2015-07-11T09:38:25Z</time>
      </trkpt>
      <trkpt lat="43.70902" lon="6.75476">
        <ele>1123</ele>
        <time>2015-07-11T09:38:31Z</time>
      </trkpt>
      <trkpt lat="43.70896" lon="6.75478">
        <ele>1125</ele>
        <time>2015-07-11T09:38:38Z</time>
      </trkpt>
      <trkpt lat="43.7089" lon="6.7548">
        <ele>1124</ele>
        <time>2015-07-11T09:38:44Z</time>
      </trkpt>
      <trkpt lat="43.70883" lon="6.75483">
        <ele>1128</ele>
        <time>2015-07-11T09:38:51Z</time>
      </trkpt>
      <trkpt lat="43.70877" lon="6.75482">
        <ele>1128</ele>
        <time>2015-07-11T09:38:57Z</time>
      </trkpt>
      <trkpt lat="43.7087" lon="6.75483">
        <ele>1129</ele>
        <time>2015-07-11T09:39:03Z</time>
      </trkpt>
      <trkpt lat="43.70864" lon="6.75486">
        <ele>1130</ele>
        <time>2015-07-11T09:39:10Z</time>
      </trkpt>
      <trkpt lat="43.70857" lon="6.75486">
        <ele>1130</ele>
        <time>2015-07-11T09:39:17Z</time>
      </trkpt>
      <trkpt lat="43.70851" lon="6.75491">
        <ele>1132</ele>
        <time>2015-07-11T09:39:23Z</time>
      </trkpt>
      <trkpt lat="43.70845" lon="6.75492">
        <ele>1134</ele>
        <time>2015-07-11T09:39:28Z</time>
      </trkpt>
      <trkpt lat="43.70838" lon="6.75492">
        <ele>1135</ele>
        <time>2015-07-11T09:39:35Z</time>
      </trkpt>
      <trkpt lat="43.70833" lon="6.75488">
        <ele>1138</ele>
        <time>2015-07-11T09:39:43Z</time>
      </trkpt>
      <trkpt lat="43.70828" lon="6.75492">
        <ele>1139</ele>
        <time>2015-07-11T09:39:49Z</time>
      </trkpt>
      <trkpt lat="43.70822" lon="6.75496">
        <ele>1139</ele>
        <time>2015-07-11T09:39:55Z</time>
      </trkpt>
      <trkpt lat="43.70815" lon="6.75498">
        <ele>1141</ele>
        <time>2015-07-11T09:40:02Z</time>
      </trkpt>
      <trkpt lat="43.70808" lon="6.75502">
        <ele>1140</ele>
        <time>2015-07-11T09:40:08Z</time>
      </trkpt>
      <trkpt lat="43.70803" lon="6.75507">
        <ele>1139</ele>
        <time>2015-07-11T09:40:14Z</time>
      </trkpt>
      <trkpt lat="43.70797" lon="6.75513">
        <ele>1140</ele>
        <time>2015-07-11T09:40:19Z</time>
      </trkpt>
      <trkpt lat="43.7079" lon="6.75516">
        <ele>1140</ele>
        <time>2015-07-11T09:40:25Z</time>
      </trkpt>
      <trkpt lat="43.70782" lon="6.75521">
        <ele>1141</ele>
        <time>2015-07-11T09:40:31Z</time>
      </trkpt>
      <trkpt lat="43.70775" lon="6.75526">
        <ele>1141</ele>
        <time>2015-07-11T09:40:38Z</time>
      </trkpt>
      <trkpt lat="43.7077" lon="6.75529">
        <ele>1142</ele>
        <time>2015-07-11T09:40:44Z</time>
      </trkpt>
      <trkpt lat="43.70765" lon="6.75535">
        <ele>1145</ele>
        <time>2015-07-11T09:40:50Z</time>
      </trkpt>
      <trkpt lat="43.70759" lon="6.75543">
        <ele>1145</ele>
        <time>2015-07-11T09:40:56Z</time>
      </trkpt>
      <trkpt lat="43.70754" lon="6.7555">
        <ele>1147</ele>
        <time>2015-07-11T09:41:02Z</time>
      </trkpt>
      <trkpt lat="43.7075" lon="6.7556">
        <ele>1149</ele>
        <time>2015-07-11T09:41:09Z</time>
      </trkpt>
      <trkpt lat="43.70744" lon="6.75572">
        <ele>1148</ele>
        <time>2015-07-11T09:41:16Z</time>
      </trkpt>
      <trkpt lat="43.70743" lon="6.75584">
        <ele>1145</ele>
        <time>2015-07-11T09:41:22Z</time>
      </trkpt>
      <trkpt lat="43.70739" lon="6.7559">
        <ele>1148</ele>
        <time>2015-07-11T09:41:27Z</time>
      </trkpt>
      <trkpt lat="43.70729" lon="6.75596">
        <ele>1148</ele>
        <time>2015-07-11T09:41:34Z</time>
      </trkpt>
      <trkpt lat="43.70724" lon="6.756">
        <ele>1148</ele>
        <time>2015-07-11T09:41:47Z</time>
      </trkpt>
      <trkpt lat="43.70723" lon="6.75603">
        <ele>1143</ele>
        <time>2015-07-11T09:44:49Z</time>
      </trkpt>
      <trkpt lat="43.70723" lon="6.75598">
        <ele>1145</ele>
        <time>2015-07-11T09:46:55Z</time>
      </trkpt>
      <trkpt lat="43.7072" lon="6.756">
        <ele>1145</ele>
        <time>2015-07-11T09:47:09Z</time>
      </trkpt>
      <trkpt lat="43.70717" lon="6.75601">
        <ele>1144</ele>
        <time>2015-07-11T09:47:14Z</time>
      </trkpt>
      <trkpt lat="43.70706" lon="6.75607">
        <ele>1141</ele>
        <time>2015-07-11T09:47:19Z</time>
      </trkpt>
      <trkpt lat="43.70692" lon="6.75604">
        <ele>1138</ele>
        <time>2015-07-11T09:47:24Z</time>
      </trkpt>
      <trkpt lat="43.70674" lon="6.75595">
        <ele>1135</ele>
        <time>2015-07-11T09:47:29Z</time>
      </trkpt>
      <trkpt lat="43.70654" lon="6.75596">
        <ele>1133</ele>
        <time>2015-07-11T09:47:34Z</time>
      </trkpt>
      <trkpt lat="43.70631" lon="6.756">
        <ele>1133</ele>
        <time>2015-07-11T09:47:39Z</time>
      </trkpt>
      <trkpt lat="43.70616" lon="6.75597">
        <ele>1135</ele>
        <time>2015-07-11T09:47:45Z</time>
      </trkpt>
      <trkpt lat="43.70605" lon="6.75594">
        <ele>1136</ele>
        <time>2015-07-11T09:47:51Z</time>
      </trkpt>
      <trkpt lat="43.70596" lon="6.75588">
        <ele>1138</ele>
        <time>2015-07-11T09:47:57Z</time>
      </trkpt>
      <trkpt lat="43.70588" lon="6.75584">
        <ele>1138</ele>
        <time>2015-07-11T09:48:02Z</time>
      </trkpt>
      <trkpt lat="43.70581" lon="6.75579">
        <ele>1138</ele>
        <time>2015-07-11T09:48:08Z</time>
      </trkpt>
      <trkpt lat="43.70576" lon="6.75573">
        <ele>1139</ele>
        <time>2015-07-11T09:48:13Z</time>
      </trkpt>
      <trkpt lat="43.70571" lon="6.75566">
        <ele>1140</ele>
        <time>2015-07-11T09:48:19Z</time>
      </trkpt>
      <trkpt lat="43.70568" lon="6.75559">
        <ele>1141</ele>
        <time>2015-07-11T09:48:25Z</time>
      </trkpt>
      <trkpt lat="43.70565" lon="6.75551">
        <ele>1142</ele>
        <time>2015-07-11T09:48:30Z</time>
      </trkpt>
      <trkpt lat="43.70563" lon="6.75542">
        <ele>1143</ele>
        <time>2015-07-11T09:48:36Z</time>
      </trkpt>
      <trkpt lat="43.70562" lon="6.75533">
        <ele>1144</ele>
        <time>2015-07-11T09:48:42Z</time>
      </trkpt>
      <trkpt lat="43.70561" lon="6.75524">
        <ele>1145</ele>
        <time>2015-07-11T09:48:49Z</time>
      </trkpt>
      <trkpt lat="43.70561" lon="6.75514">
        <ele>1146</ele>
        <time>2015-07-11T09:48:56Z</time>
      </trkpt>
      <trkpt lat="43.70558" lon="6.75506">
        <ele>1148</ele>
        <time>2015-07-11T09:49:01Z</time>
      </trkpt>
      <trkpt lat="43.70557" lon="6.75498">
        <ele>1148</ele>
        <time>2015-07-11T09:49:07Z</time>
      </trkpt>
      <trkpt lat="43.70552" lon="6.7549">
        <ele>1150</ele>
        <time>2015-07-11T09:49:14Z</time>
      </trkpt>
      <trkpt lat="43.70546" lon="6.75488">
        <ele>1149</ele>
        <time>2015-07-11T09:49:20Z</time>
      </trkpt>
      <trkpt lat="43.70542" lon="6.7548">
        <ele>1151</ele>
        <time>2015-07-11T09:49:27Z</time>
      </trkpt>
      <trkpt lat="43.70541" lon="6.75471">
        <ele>1153</ele>
        <time>2015-07-11T09:49:34Z</time>
      </trkpt>
      <trkpt lat="43.70539" lon="6.75468">
        <ele>1153</ele>
        <time>2015-07-11T09:49:48Z</time>
      </trkpt>
      <trkpt lat="43.70532" lon="6.75467">
        <ele>1154</ele>
        <time>2015-07-11T09:49:55Z</time>
      </trkpt>
      <trkpt lat="43.70526" lon="6.75464">
        <ele>1156</ele>
        <time>2015-07-11T09:50:01Z</time>
      </trkpt>
      <trkpt lat="43.70522" lon="6.75458">
        <ele>1156</ele>
        <time>2015-07-11T09:50:08Z</time>
      </trkpt>
      <trkpt lat="43.70519" lon="6.75451">
        <ele>1156</ele>
        <time>2015-07-11T09:50:15Z</time>
      </trkpt>
      <trkpt lat="43.70515" lon="6.75444">
        <ele>1157</ele>
        <time>2015-07-11T09:50:22Z</time>
      </trkpt>
      <trkpt lat="43.70514" lon="6.75435">
        <ele>1157</ele>
        <time>2015-07-11T09:50:28Z</time>
      </trkpt>
      <trkpt lat="43.70515" lon="6.75427">
        <ele>1157</ele>
        <time>2015-07-11T09:50:34Z</time>
      </trkpt>
      <trkpt lat="43.7051" lon="6.75421">
        <ele>1159</ele>
        <time>2015-07-11T09:50:40Z</time>
      </trkpt>
      <trkpt lat="43.70505" lon="6.75417">
        <ele>1159</ele>
        <time>2015-07-11T09:50:46Z</time>
      </trkpt>
      <trkpt lat="43.70499" lon="6.75414">
        <ele>1160</ele>
        <time>2015-07-11T09:50:52Z</time>
      </trkpt>
      <trkpt lat="43.70493" lon="6.75411">
        <ele>1162</ele>
        <time>2015-07-11T09:50:58Z</time>
      </trkpt>
      <trkpt lat="43.70488" lon="6.75409">
        <ele>1162</ele>
        <time>2015-07-11T09:51:06Z</time>
      </trkpt>
      <trkpt lat="43.70481" lon="6.75406">
        <ele>1164</ele>
        <time>2015-07-11T09:51:13Z</time>
      </trkpt>
      <trkpt lat="43.70475" lon="6.75405">
        <ele>1165</ele>
        <time>2015-07-11T09:51:20Z</time>
      </trkpt>
      <trkpt lat="43.70471" lon="6.75405">
        <ele>1166</ele>
        <time>2015-07-11T09:51:25Z</time>
      </trkpt>
      <trkpt lat="43.70465" lon="6.75405">
        <ele>1168</ele>
        <time>2015-07-11T09:51:31Z</time>
      </trkpt>
      <trkpt lat="43.70459" lon="6.75403">
        <ele>1170</ele>
        <time>2015-07-11T09:51:37Z</time>
      </trkpt>
      <trkpt lat="43.70453" lon="6.75401">
        <ele>1171</ele>
        <time>2015-07-11T09:51:44Z</time>
      </trkpt>
      <trkpt lat="43.70446" lon="6.75401">
        <ele>1173</ele>
        <time>2015-07-11T09:51:50Z</time>
      </trkpt>
      <trkpt lat="43.7044" lon="6.75402">
        <ele>1172</ele>
        <time>2015-07-11T09:51:57Z</time>
      </trkpt>
      <trkpt lat="43.70435" lon="6.75398">
        <ele>1172</ele>
        <time>2015-07-11T09:52:04Z</time>
      </trkpt>
      <trkpt lat="43.70432" lon="6.75398">
        <ele>1172</ele>
        <time>2015-07-11T09:52:07Z</time>
      </trkpt>
      <trkpt lat="43.70427" lon="6.75394">
        <ele>1173</ele>
        <time>2015-07-11T09:52:13Z</time>
      </trkpt>
      <trkpt lat="43.70422" lon="6.75387">
        <ele>1174</ele>
        <time>2015-07-11T09:52:20Z</time>
      </trkpt>
      <trkpt lat="43.70419" lon="6.75381">
        <ele>1174</ele>
        <time>2015-07-11T09:52:25Z</time>
      </trkpt>
      <trkpt lat="43.70413" lon="6.75378">
        <ele>1176</ele>
        <time>2015-07-11T09:52:30Z</time>
      </trkpt>
      <trkpt lat="43.70405" lon="6.75375">
        <ele>1175</ele>
        <time>2015-07-11T09:52:35Z</time>
      </trkpt>
      <trkpt lat="43.70395" lon="6.75372">
        <ele>1177</ele>
        <time>2015-07-11T09:52:41Z</time>
      </trkpt>
      <trkpt lat="43.70384" lon="6.75367">
        <ele>1176</ele>
        <time>2015-07-11T09:52:47Z</time>
      </trkpt>
      <trkpt lat="43.70378" lon="6.75364">
        <ele>1176</ele>
        <time>2015-07-11T09:52:52Z</time>
      </trkpt>
      <trkpt lat="43.70368" lon="6.75365">
        <ele>1178</ele>
        <time>2015-07-11T09:52:58Z</time>
      </trkpt>
      <trkpt lat="43.70362" lon="6.75361">
        <ele>1178</ele>
        <time>2015-07-11T09:53:03Z</time>
      </trkpt>
      <trkpt lat="43.70355" lon="6.75356">
        <ele>1179</ele>
        <time>2015-07-11T09:53:08Z</time>
      </trkpt>
      <trkpt lat="43.70347" lon="6.75349">
        <ele>1181</ele>
        <time>2015-07-11T09:53:14Z</time>
      </trkpt>
      <trkpt lat="43.7034" lon="6.75345">
        <ele>1181</ele>
        <time>2015-07-11T09:53:19Z</time>
      </trkpt>
      <trkpt lat="43.70332" lon="6.75343">
        <ele>1183</ele>
        <time>2015-07-11T09:53:25Z</time>
      </trkpt>
      <trkpt lat="43.70325" lon="6.75335">
        <ele>1185</ele>
        <time>2015-07-11T09:53:32Z</time>
      </trkpt>
      <trkpt lat="43.70315" lon="6.75332">
        <ele>1186</ele>
        <time>2015-07-11T09:53:38Z</time>
      </trkpt>
      <trkpt lat="43.70308" lon="6.75331">
        <ele>1187</ele>
        <time>2015-07-11T09:53:43Z</time>
      </trkpt>
      <trkpt lat="43.70299" lon="6.75326">
        <ele>1188</ele>
        <time>2015-07-11T09:53:49Z</time>
      </trkpt>
      <trkpt lat="43.70291" lon="6.75324">
        <ele>1186</ele>
        <time>2015-07-11T09:53:55Z</time>
      </trkpt>
      <trkpt lat="43.70284" lon="6.75323">
        <ele>1186</ele>
        <time>2015-07-11T09:54:00Z</time>
      </trkpt>
      <trkpt lat="43.70276" lon="6.75323">
        <ele>1187</ele>
        <time>2015-07-11T09:54:06Z</time>
      </trkpt>
      <trkpt lat="43.70269" lon="6.75326">
        <ele>1187</ele>
        <time>2015-07-11T09:54:11Z</time>
      </trkpt>
      <trkpt lat="43.70256" lon="6.75324">
        <ele>1185</ele>
        <time>2015-07-11T09:54:18Z</time>
      </trkpt>
      <trkpt lat="43.70247" lon="6.75318">
        <ele>1185</ele>
        <time>2015-07-11T09:54:24Z</time>
      </trkpt>
      <trkpt lat="43.70241" lon="6.75311">
        <ele>1187</ele>
        <time>2015-07-11T09:54:30Z</time>
      </trkpt>
      <trkpt lat="43.70238" lon="6.75309">
        <ele>1187</ele>
        <time>2015-07-11T09:54:38Z</time>
      </trkpt>
      <trkpt lat="43.70241" lon="6.7531">
        <ele>1187</ele>
        <time>2015-07-11T09:56:51Z</time>
      </trkpt>
      <trkpt lat="43.70238" lon="6.75309">
        <ele>1185</ele>
        <time>2015-07-11T10:07:26Z</time>
      </trkpt>
      <trkpt lat="43.70241" lon="6.75311">
        <ele>1185</ele>
        <time>2015-07-11T10:17:13Z</time>
      </trkpt>
      <trkpt lat="43.70238" lon="6.75315">
        <ele>1186</ele>
        <time>2015-07-11T10:17:18Z</time>
      </trkpt>
      <trkpt lat="43.70236" lon="6.75317">
        <ele>1186</ele>
        <time>2015-07-11T10:17:56Z</time>
      </trkpt>
      <trkpt lat="43.70233" lon="6.75316">
        <ele>1186</ele>
        <time>2015-07-11T10:18:14Z</time>
      </trkpt>
      <trkpt lat="43.70223" lon="6.75311">
        <ele>1184</ele>
        <time>2015-07-11T10:18:21Z</time>
      </trkpt>
      <trkpt lat="43.70217" lon="6.75304">
        <ele>1182</ele>
        <time>2015-07-11T10:18:26Z</time>
      </trkpt>
      <trkpt lat="43.70207" lon="6.75299">
        <ele>1179</ele>
        <time>2015-07-11T10:18:32Z</time>
      </trkpt>
      <trkpt lat="43.70203" lon="6.75292">
        <ele>1178</ele>
        <time>2015-07-11T10:18:37Z</time>
      </trkpt>
      <trkpt lat="43.70194" lon="6.75283">
        <ele>1177</ele>
        <time>2015-07-11T10:18:43Z</time>
      </trkpt>
      <trkpt lat="43.70188" lon="6.75278">
        <ele>1175</ele>
        <time>2015-07-11T10:18:48Z</time>
      </trkpt>
      <trkpt lat="43.70177" lon="6.75273">
        <ele>1175</ele>
        <time>2015-07-11T10:18:53Z</time>
      </trkpt>
      <trkpt lat="43.70164" lon="6.75272">
        <ele>1171</ele>
        <time>2015-07-11T10:18:59Z</time>
      </trkpt>
      <trkpt lat="43.70149" lon="6.75272">
        <ele>1168</ele>
        <time>2015-07-11T10:19:04Z</time>
      </trkpt>
      <trkpt lat="43.70138" lon="6.75263">
        <ele>1163</ele>
        <time>2015-07-11T10:19:11Z</time>
      </trkpt>
      <trkpt lat="43.70126" lon="6.75255">
        <ele>1159</ele>
        <time>2015-07-11T10:19:16Z</time>
      </trkpt>
      <trkpt lat="43.70115" lon="6.75253">
        <ele>1157</ele>
        <time>2015-07-11T10:19:22Z</time>
      </trkpt>
      <trkpt lat="43.70112" lon="6.75256">
        <ele>1160</ele>
        <time>2015-07-11T10:19:59Z</time>
      </trkpt>
      <trkpt lat="43.70103" lon="6.75257">
        <ele>1156</ele>
        <time>2015-07-11T10:20:04Z</time>
      </trkpt>
      <trkpt lat="43.70094" lon="6.75249">
        <ele>1154</ele>
        <time>2015-07-11T10:20:09Z</time>
      </trkpt>
      <trkpt lat="43.7008" lon="6.75251">
        <ele>1153</ele>
        <time>2015-07-11T10:20:15Z</time>
      </trkpt>
      <trkpt lat="43.70077" lon="6.75237">
        <ele>1151</ele>
        <time>2015-07-11T10:20:21Z</time>
      </trkpt>
      <trkpt lat="43.70075" lon="6.75233">
        <ele>1150</ele>
        <time>2015-07-11T10:20:26Z</time>
      </trkpt>
      <trkpt lat="43.70074" lon="6.75229">
        <ele>1150</ele>
        <time>2015-07-11T10:20:31Z</time>
      </trkpt>
      <trkpt lat="43.70072" lon="6.75214">
        <ele>1148</ele>
        <time>2015-07-11T10:20:36Z</time>
      </trkpt>
      <trkpt lat="43.70069" lon="6.7519">
        <ele>1147</ele>
        <time>2015-07-11T10:20:41Z</time>
      </trkpt>
      <trkpt lat="43.70072" lon="6.75167">
        <ele>1145</ele>
        <time>2015-07-11T10:20:46Z</time>
      </trkpt>
      <trkpt lat="43.70071" lon="6.75145">
        <ele>1143</ele>
        <time>2015-07-11T10:20:51Z</time>
      </trkpt>
      <trkpt lat="43.70068" lon="6.75124">
        <ele>1141</ele>
        <time>2015-07-11T10:20:57Z</time>
      </trkpt>
      <trkpt lat="43.70058" lon="6.75112">
        <ele>1142</ele>
        <time>2015-07-11T10:21:03Z</time>
      </trkpt>
      <trkpt lat="43.70049" lon="6.7509">
        <ele>1139</ele>
        <time>2015-07-11T10:21:08Z</time>
      </trkpt>
      <trkpt lat="43.70037" lon="6.75076">
        <ele>1141</ele>
        <time>2015-07-11T10:21:13Z</time>
      </trkpt>
      <trkpt lat="43.70027" lon="6.75078">
        <ele>1143</ele>
        <time>2015-07-11T10:21:18Z</time>
      </trkpt>
      <trkpt lat="43.70022" lon="6.75078">
        <ele>1140</ele>
        <time>2015-07-11T10:21:32Z</time>
      </trkpt>
      <trkpt lat="43.7001" lon="6.75078">
        <ele>1137</ele>
        <time>2015-07-11T10:21:37Z</time>
      </trkpt>
      <trkpt lat="43.69995" lon="6.75074">
        <ele>1137</ele>
        <time>2015-07-11T10:21:42Z</time>
      </trkpt>
      <trkpt lat="43.69977" lon="6.75076">
        <ele>1136</ele>
        <time>2015-07-11T10:21:48Z</time>
      </trkpt>
      <trkpt lat="43.69973" lon="6.75095">
        <ele>1137</ele>
        <time>2015-07-11T10:21:53Z</time>
      </trkpt>
      <trkpt lat="43.69971" lon="6.75109">
        <ele>1137</ele>
        <time>2015-07-11T10:21:57Z</time>
      </trkpt>
      <trkpt lat="43.6996" lon="6.75132">
        <ele>1136</ele>
        <time>2015-07-11T10:22:03Z</time>
      </trkpt>
      <trkpt lat="43.69946" lon="6.75148">
        <ele>1132</ele>
        <time>2015-07-11T10:22:08Z</time>
      </trkpt>
      <trkpt lat="43.69934" lon="6.75167">
        <ele>1129</ele>
        <time>2015-07-11T10:22:13Z</time>
      </trkpt>
      <trkpt lat="43.69922" lon="6.75162">
        <ele>1129</ele>
        <time>2015-07-11T10:22:18Z</time>
      </trkpt>
      <trkpt lat="43.69916" lon="6.7516">
        <ele>1128</ele>
        <time>2015-07-11T10:22:24Z</time>
      </trkpt>
      <trkpt lat="43.69908" lon="6.75155">
        <ele>1128</ele>
        <time>2015-07-11T10:22:29Z</time>
      </trkpt>
      <trkpt lat="43.69899" lon="6.75139">
        <ele>1123</ele>
        <time>2015-07-11T10:22:34Z</time>
      </trkpt>
      <trkpt lat="43.6989" lon="6.7512">
        <ele>1121</ele>
        <time>2015-07-11T10:22:39Z</time>
      </trkpt>
      <trkpt lat="43.69869" lon="6.75108">
        <ele>1116</ele>
        <time>2015-07-11T10:22:44Z</time>
      </trkpt>
      <trkpt lat="43.69852" lon="6.75108">
        <ele>1113</ele>
        <time>2015-07-11T10:22:49Z</time>
      </trkpt>
      <trkpt lat="43.69837" lon="6.75107">
        <ele>1110</ele>
        <time>2015-07-11T10:22:54Z</time>
      </trkpt>
      <trkpt lat="43.6982" lon="6.75109">
        <ele>1105</ele>
        <time>2015-07-11T10:22:59Z</time>
      </trkpt>
      <trkpt lat="43.69807" lon="6.75109">
        <ele>1102</ele>
        <time>2015-07-11T10:23:04Z</time>
      </trkpt>
      <trkpt lat="43.69799" lon="6.751">
        <ele>1099</ele>
        <time>2015-07-11T10:23:09Z</time>
      </trkpt>
      <trkpt lat="43.69786" lon="6.75093">
        <ele>1097</ele>
        <time>2015-07-11T10:23:14Z</time>
      </trkpt>
      <trkpt lat="43.69775" lon="6.75078">
        <ele>1095</ele>
        <time>2015-07-11T10:23:19Z</time>
      </trkpt>
      <trkpt lat="43.6977" lon="6.75057">
        <ele>1093</ele>
        <time>2015-07-11T10:23:24Z</time>
      </trkpt>
      <trkpt lat="43.69766" lon="6.75039">
        <ele>1087</ele>
        <time>2015-07-11T10:23:29Z</time>
      </trkpt>
      <trkpt lat="43.69756" lon="6.75028">
        <ele>1083</ele>
        <time>2015-07-11T10:23:35Z</time>
      </trkpt>
      <trkpt lat="43.69755" lon="6.75021">
        <ele>1079</ele>
        <time>2015-07-11T10:23:36Z</time>
      </trkpt>
      <trkpt lat="43.69753" lon="6.74989">
        <ele>1078</ele>
        <time>2015-07-11T10:23:41Z</time>
      </trkpt>
      <trkpt lat="43.6976" lon="6.74979">
        <ele>1075</ele>
        <time>2015-07-11T10:23:44Z</time>
      </trkpt>
      <trkpt lat="43.69773" lon="6.74967">
        <ele>1072</ele>
        <time>2015-07-11T10:23:50Z</time>
      </trkpt>
      <trkpt lat="43.69778" lon="6.74967">
        <ele>1070</ele>
        <time>2015-07-11T10:23:52Z</time>
      </trkpt>
      <trkpt lat="43.69787" lon="6.74964">
        <ele>1069</ele>
        <time>2015-07-11T10:24:07Z</time>
      </trkpt>
      <trkpt lat="43.69793" lon="6.74964">
        <ele>1071</ele>
        <time>2015-07-11T10:24:12Z</time>
      </trkpt>
      <trkpt lat="43.69802" lon="6.7495">
        <ele>1071</ele>
        <time>2015-07-11T10:24:17Z</time>
      </trkpt>
      <trkpt lat="43.69816" lon="6.74933">
        <ele>1068</ele>
        <time>2015-07-11T10:24:23Z</time>
      </trkpt>
      <trkpt lat="43.69825" lon="6.7492">
        <ele>1067</ele>
        <time>2015-07-11T10:24:28Z</time>
      </trkpt>
      <trkpt lat="43.69841" lon="6.74913">
        <ele>1060</ele>
        <time>2015-07-11T10:24:34Z</time>
      </trkpt>
      <trkpt lat="43.69847" lon="6.74913">
        <ele>1059</ele>
        <time>2015-07-11T10:24:36Z</time>
      </trkpt>
      <trkpt lat="43.69861" lon="6.74903">
        <ele>1056</ele>
        <time>2015-07-11T10:24:41Z</time>
      </trkpt>
      <trkpt lat="43.69877" lon="6.74898">
        <ele>1051</ele>
        <time>2015-07-11T10:24:46Z</time>
      </trkpt>
      <trkpt lat="43.69894" lon="6.74893">
        <ele>1047</ele>
        <time>2015-07-11T10:24:51Z</time>
      </trkpt>
      <trkpt lat="43.69908" lon="6.74887">
        <ele>1041</ele>
        <time>2015-07-11T10:24:56Z</time>
      </trkpt>
      <trkpt lat="43.6992" lon="6.74881">
        <ele>1039</ele>
        <time>2015-07-11T10:25:01Z</time>
      </trkpt>
      <trkpt lat="43.69931" lon="6.74869">
        <ele>1038</ele>
        <time>2015-07-11T10:25:07Z</time>
      </trkpt>
      <trkpt lat="43.69942" lon="6.74854">
        <ele>1037</ele>
        <time>2015-07-11T10:25:12Z</time>
      </trkpt>
      <trkpt lat="43.69955" lon="6.74835">
        <ele>1037</ele>
        <time>2015-07-11T10:25:17Z</time>
      </trkpt>
      <trkpt lat="43.69957" lon="6.74826">
        <ele>1037</ele>
        <time>2015-07-11T10:25:19Z</time>
      </trkpt>
      <trkpt lat="43.69959" lon="6.74823">
        <ele>1037</ele>
        <time>2015-07-11T10:25:20Z</time>
      </trkpt>
      <trkpt lat="43.6996" lon="6.74817">
        <ele>1036</ele>
        <time>2015-07-11T10:25:22Z</time>
      </trkpt>
      <trkpt lat="43.69959" lon="6.748">
        <ele>1031</ele>
        <time>2015-07-11T10:25:28Z</time>
      </trkpt>
      <trkpt lat="43.6995" lon="6.74782">
        <ele>1027</ele>
        <time>2015-07-11T10:25:34Z</time>
      </trkpt>
      <trkpt lat="43.69947" lon="6.7476">
        <ele>1026</ele>
        <time>2015-07-11T10:25:40Z</time>
      </trkpt>
      <trkpt lat="43.69955" lon="6.74741">
        <ele>1026</ele>
        <time>2015-07-11T10:25:45Z</time>
      </trkpt>
      <trkpt lat="43.69962" lon="6.74723">
        <ele>1021</ele>
        <time>2015-07-11T10:25:51Z</time>
      </trkpt>
      <trkpt lat="43.69968" lon="6.7471">
        <ele>1019</ele>
        <time>2015-07-11T10:25:56Z</time>
      </trkpt>
      <trkpt lat="43.6998" lon="6.74698">
        <ele>1008</ele>
        <time>2015-07-11T10:26:01Z</time>
      </trkpt>
      <trkpt lat="43.69984" lon="6.74684">
        <ele>1006</ele>
        <time>2015-07-11T10:26:06Z</time>
      </trkpt>
      <trkpt lat="43.69981" lon="6.74664">
        <ele>1002</ele>
        <time>2015-07-11T10:26:11Z</time>
      </trkpt>
      <trkpt lat="43.69966" lon="6.7465">
        <ele>994</ele>
        <time>2015-07-11T10:26:16Z</time>
      </trkpt>
      <trkpt lat="43.6995" lon="6.74632">
        <ele>984</ele>
        <time>2015-07-11T10:26:22Z</time>
      </trkpt>
      <trkpt lat="43.6995" lon="6.74627">
        <ele>983</ele>
        <time>2015-07-11T10:26:23Z</time>
      </trkpt>
      <trkpt lat="43.69947" lon="6.74606">
        <ele>981</ele>
        <time>2015-07-11T10:26:29Z</time>
      </trkpt>
      <trkpt lat="43.69942" lon="6.74589">
        <ele>979</ele>
        <time>2015-07-11T10:26:34Z</time>
      </trkpt>
      <trkpt lat="43.69929" lon="6.74569">
        <ele>971</ele>
        <time>2015-07-11T10:26:39Z</time>
      </trkpt>
      <trkpt lat="43.69914" lon="6.7456">
        <ele>965</ele>
        <time>2015-07-11T10:26:44Z</time>
      </trkpt>
      <trkpt lat="43.69905" lon="6.74553">
        <ele>962</ele>
        <time>2015-07-11T10:26:49Z</time>
      </trkpt>
      <trkpt lat="43.69907" lon="6.74539">
        <ele>951</ele>
        <time>2015-07-11T10:26:54Z</time>
      </trkpt>
      <trkpt lat="43.69904" lon="6.74518">
        <ele>950</ele>
        <time>2015-07-11T10:26:59Z</time>
      </trkpt>
      <trkpt lat="43.69897" lon="6.74491">
        <ele>946</ele>
        <time>2015-07-11T10:27:04Z</time>
      </trkpt>
      <trkpt lat="43.69882" lon="6.74473">
        <ele>939</ele>
        <time>2015-07-11T10:27:09Z</time>
      </trkpt>
      <trkpt lat="43.69862" lon="6.74466">
        <ele>937</ele>
        <time>2015-07-11T10:27:14Z</time>
      </trkpt>
      <trkpt lat="43.69846" lon="6.74451">
        <ele>925</ele>
        <time>2015-07-11T10:27:19Z</time>
      </trkpt>
      <trkpt lat="43.69824" lon="6.74436">
        <ele>921</ele>
        <time>2015-07-11T10:27:24Z</time>
      </trkpt>
      <trkpt lat="43.69802" lon="6.74438">
        <ele>914</ele>
        <time>2015-07-11T10:27:29Z</time>
      </trkpt>
      <trkpt lat="43.69789" lon="6.74423">
        <ele>910</ele>
        <time>2015-07-11T10:27:35Z</time>
      </trkpt>
      <trkpt lat="43.69794" lon="6.7442">
        <ele>910</ele>
        <time>2015-07-11T10:27:50Z</time>
      </trkpt>
      <trkpt lat="43.69797" lon="6.74419">
        <ele>910</ele>
        <time>2015-07-11T10:28:12Z</time>
      </trkpt>
      <trkpt lat="43.69808" lon="6.74414">
        <ele>912</ele>
        <time>2015-07-11T10:28:17Z</time>
      </trkpt>
      <trkpt lat="43.69825" lon="6.74408">
        <ele>913</ele>
        <time>2015-07-11T10:28:22Z</time>
      </trkpt>
      <trkpt lat="43.69845" lon="6.74405">
        <ele>912</ele>
        <time>2015-07-11T10:28:27Z</time>
      </trkpt>
      <trkpt lat="43.69864" lon="6.74414">
        <ele>913</ele>
        <time>2015-07-11T10:28:32Z</time>
      </trkpt>
      <trkpt lat="43.69882" lon="6.74416">
        <ele>912</ele>
        <time>2015-07-11T10:28:37Z</time>
      </trkpt>
      <trkpt lat="43.69902" lon="6.74407">
        <ele>913</ele>
        <time>2015-07-11T10:28:43Z</time>
      </trkpt>
      <trkpt lat="43.69914" lon="6.74404">
        <ele>913</ele>
        <time>2015-07-11T10:28:48Z</time>
      </trkpt>
      <trkpt lat="43.69935" lon="6.74395">
        <ele>910</ele>
        <time>2015-07-11T10:28:53Z</time>
      </trkpt>
      <trkpt lat="43.69961" lon="6.74385">
        <ele>911</ele>
        <time>2015-07-11T10:28:58Z</time>
      </trkpt>
      <trkpt lat="43.69987" lon="6.74366">
        <ele>912</ele>
        <time>2015-07-11T10:29:03Z</time>
      </trkpt>
      <trkpt lat="43.70003" lon="6.74332">
        <ele>912</ele>
        <time>2015-07-11T10:29:08Z</time>
      </trkpt>
      <trkpt lat="43.70019" lon="6.74292">
        <ele>911</ele>
        <time>2015-07-11T10:29:13Z</time>
      </trkpt>
      <trkpt lat="43.70038" lon="6.74263">
        <ele>910</ele>
        <time>2015-07-11T10:29:18Z</time>
      </trkpt>
      <trkpt lat="43.70051" lon="6.74254">
        <ele>912</ele>
        <time>2015-07-11T10:29:25Z</time>
      </trkpt>
      <trkpt lat="43.70057" lon="6.74249">
        <ele>911</ele>
        <time>2015-07-11T10:29:30Z</time>
      </trkpt>
      <trkpt lat="43.70073" lon="6.74231">
        <ele>907</ele>
        <time>2015-07-11T10:29:35Z</time>
      </trkpt>
      <trkpt lat="43.70106" lon="6.74209">
        <ele>906</ele>
        <time>2015-07-11T10:29:40Z</time>
      </trkpt>
      <trkpt lat="43.70148" lon="6.74208">
        <ele>904</ele>
        <time>2015-07-11T10:29:45Z</time>
      </trkpt>
      <trkpt lat="43.70189" lon="6.74225">
        <ele>903</ele>
        <time>2015-07-11T10:29:50Z</time>
      </trkpt>
      <trkpt lat="43.70232" lon="6.74244">
        <ele>900</ele>
        <time>2015-07-11T10:29:55Z</time>
      </trkpt>
      <trkpt lat="43.70275" lon="6.74228">
        <ele>899</ele>
        <time>2015-07-11T10:30:00Z</time>
      </trkpt>
      <trkpt lat="43.70311" lon="6.74204">
        <ele>897</ele>
        <time>2015-07-11T10:30:05Z</time>
      </trkpt>
      <trkpt lat="43.70355" lon="6.74206">
        <ele>895</ele>
        <time>2015-07-11T10:30:10Z</time>
      </trkpt>
      <trkpt lat="43.70403" lon="6.74209">
        <ele>893</ele>
        <time>2015-07-11T10:30:15Z</time>
      </trkpt>
      <trkpt lat="43.70446" lon="6.7421">
        <ele>893</ele>
        <time>2015-07-11T10:30:20Z</time>
      </trkpt>
      <trkpt lat="43.70489" lon="6.74213">
        <ele>890</ele>
        <time>2015-07-11T10:30:25Z</time>
      </trkpt>
      <trkpt lat="43.70528" lon="6.74213">
        <ele>890</ele>
        <time>2015-07-11T10:30:30Z</time>
      </trkpt>
      <trkpt lat="43.70554" lon="6.74211">
        <ele>892</ele>
        <time>2015-07-11T10:30:35Z</time>
      </trkpt>
      <trkpt lat="43.70577" lon="6.74212">
        <ele>891</ele>
        <time>2015-07-11T10:30:40Z</time>
      </trkpt>
      <trkpt lat="43.70598" lon="6.74213">
        <ele>891</ele>
        <time>2015-07-11T10:30:45Z</time>
      </trkpt>
      <trkpt lat="43.70618" lon="6.74214">
        <ele>891</ele>
        <time>2015-07-11T10:30:50Z</time>
      </trkpt>
      <trkpt lat="43.70636" lon="6.74214">
        <ele>892</ele>
        <time>2015-07-11T10:30:55Z</time>
      </trkpt>
      <trkpt lat="43.70658" lon="6.74214">
        <ele>892</ele>
        <time>2015-07-11T10:31:00Z</time>
      </trkpt>
      <trkpt lat="43.70683" lon="6.74215">
        <ele>892</ele>
        <time>2015-07-11T10:31:05Z</time>
      </trkpt>
      <trkpt lat="43.70706" lon="6.74215">
        <ele>891</ele>
        <time>2015-07-11T10:31:10Z</time>
      </trkpt>
      <trkpt lat="43.7073" lon="6.74216">
        <ele>891</ele>
        <time>2015-07-11T10:31:15Z</time>
      </trkpt>
      <trkpt lat="43.7075" lon="6.74217">
        <ele>892</ele>
        <time>2015-07-11T10:31:20Z</time>
      </trkpt>
      <trkpt lat="43.70768" lon="6.74219">
        <ele>891</ele>
        <time>2015-07-11T10:31:25Z</time>
      </trkpt>
      <trkpt lat="43.70784" lon="6.74213">
        <ele>890</ele>
        <time>2015-07-11T10:31:30Z</time>
      </trkpt>
      <trkpt lat="43.70798" lon="6.74214">
        <ele>890</ele>
        <time>2015-07-11T10:31:35Z</time>
      </trkpt>
      <trkpt lat="43.70808" lon="6.74212">
        <ele>892</ele>
        <time>2015-07-11T10:31:41Z</time>
      </trkpt>
      <trkpt lat="43.70818" lon="6.74211">
        <ele>895</ele>
        <time>2015-07-11T10:31:47Z</time>
      </trkpt>
      <trkpt lat="43.70829" lon="6.74216">
        <ele>892</ele>
        <time>2015-07-11T10:31:52Z</time>
      </trkpt>
      <trkpt lat="43.70844" lon="6.74222">
        <ele>1076</ele>
        <time>2015-07-11T10:31:57Z</time>
      </trkpt>
      <trkpt lat="43.70855" lon="6.74226">
        <ele>928</ele>
        <time>2015-07-11T10:32:03Z</time>
      </trkpt>
      <trkpt lat="43.70863" lon="6.74233">
        <ele>910</ele>
        <time>2015-07-11T10:32:09Z</time>
      </trkpt>
      <trkpt lat="43.70869" lon="6.74237">
        <ele>902</ele>
        <time>2015-07-11T10:32:15Z</time>
      </trkpt>
      <trkpt lat="43.70875" lon="6.74242">
        <ele>900</ele>
        <time>2015-07-11T10:32:20Z</time>
      </trkpt>
      <trkpt lat="43.70882" lon="6.74248">
        <ele>899</ele>
        <time>2015-07-11T10:32:26Z</time>
      </trkpt>
      <trkpt lat="43.70889" lon="6.74254">
        <ele>900</ele>
        <time>2015-07-11T10:32:32Z</time>
      </trkpt>
      <trkpt lat="43.70898" lon="6.74262">
        <ele>900</ele>
        <time>2015-07-11T10:32:39Z</time>
      </trkpt>
      <trkpt lat="43.70904" lon="6.74266">
        <ele>903</ele>
        <time>2015-07-11T10:32:46Z</time>
      </trkpt>
      <trkpt lat="43.7091" lon="6.74267">
        <ele>902</ele>
        <time>2015-07-11T10:32:52Z</time>
      </trkpt>
      <trkpt lat="43.70915" lon="6.74272">
        <ele>902</ele>
        <time>2015-07-11T10:32:58Z</time>
      </trkpt>
      <trkpt lat="43.70919" lon="6.74279">
        <ele>902</ele>
        <time>2015-07-11T10:33:03Z</time>
      </trkpt>
      <trkpt lat="43.70923" lon="6.74285">
        <ele>904</ele>
        <time>2015-07-11T10:33:10Z</time>
      </trkpt>
      <trkpt lat="43.70928" lon="6.7429">
        <ele>905</ele>
        <time>2015-07-11T10:33:17Z</time>
      </trkpt>
      <trkpt lat="43.70932" lon="6.74297">
        <ele>906</ele>
        <time>2015-07-11T10:33:24Z</time>
      </trkpt>
      <trkpt lat="43.70938" lon="6.74302">
        <ele>907</ele>
        <time>2015-07-11T10:33:30Z</time>
      </trkpt>
      <trkpt lat="43.70943" lon="6.74313">
        <ele>907</ele>
        <time>2015-07-11T10:33:36Z</time>
      </trkpt>
      <trkpt lat="43.70951" lon="6.74321">
        <ele>908</ele>
        <time>2015-07-11T10:33:42Z</time>
      </trkpt>
      <trkpt lat="43.70959" lon="6.74326">
        <ele>911</ele>
        <time>2015-07-11T10:33:48Z</time>
      </trkpt>
      <trkpt lat="43.70966" lon="6.74327">
        <ele>914</ele>
        <time>2015-07-11T10:33:53Z</time>
      </trkpt>
      <trkpt lat="43.70973" lon="6.74324">
        <ele>917</ele>
        <time>2015-07-11T10:33:58Z</time>
      </trkpt>
      <trkpt lat="43.7098" lon="6.74327">
        <ele>919</ele>
        <time>2015-07-11T10:34:03Z</time>
      </trkpt>
      <trkpt lat="43.70985" lon="6.74334">
        <ele>921</ele>
        <time>2015-07-11T10:34:09Z</time>
      </trkpt>
      <trkpt lat="43.70981" lon="6.74346">
        <ele>921</ele>
        <time>2015-07-11T10:34:15Z</time>
      </trkpt>
      <trkpt lat="43.7097" lon="6.74351">
        <ele>921</ele>
        <time>2015-07-11T10:34:21Z</time>
      </trkpt>
      <trkpt lat="43.70961" lon="6.74352">
        <ele>922</ele>
        <time>2015-07-11T10:34:27Z</time>
      </trkpt>
      <trkpt lat="43.70951" lon="6.74351">
        <ele>922</ele>
        <time>2015-07-11T10:34:33Z</time>
      </trkpt>
      <trkpt lat="43.70945" lon="6.74352">
        <ele>923</ele>
        <time>2015-07-11T10:34:38Z</time>
      </trkpt>
      <trkpt lat="43.70936" lon="6.74347">
        <ele>923</ele>
        <time>2015-07-11T10:34:45Z</time>
      </trkpt>
      <trkpt lat="43.70927" lon="6.74348">
        <ele>924</ele>
        <time>2015-07-11T10:34:51Z</time>
      </trkpt>
      <trkpt lat="43.70916" lon="6.74345">
        <ele>924</ele>
        <time>2015-07-11T10:34:57Z</time>
      </trkpt>
      <trkpt lat="43.70904" lon="6.74345">
        <ele>924</ele>
        <time>2015-07-11T10:35:03Z</time>
      </trkpt>
      <trkpt lat="43.70894" lon="6.74343">
        <ele>924</ele>
        <time>2015-07-11T10:35:09Z</time>
      </trkpt>
      <trkpt lat="43.70884" lon="6.74343">
        <ele>925</ele>
        <time>2015-07-11T10:35:15Z</time>
      </trkpt>
      <trkpt lat="43.70872" lon="6.74341">
        <ele>926</ele>
        <time>2015-07-11T10:35:21Z</time>
      </trkpt>
      <trkpt lat="43.70859" lon="6.74337">
        <ele>927</ele>
        <time>2015-07-11T10:35:27Z</time>
      </trkpt>
      <trkpt lat="43.70846" lon="6.74334">
        <ele>927</ele>
        <time>2015-07-11T10:35:32Z</time>
      </trkpt>
      <trkpt lat="43.70832" lon="6.74332">
        <ele>928</ele>
        <time>2015-07-11T10:35:38Z</time>
      </trkpt>
      <trkpt lat="43.7082" lon="6.74329">
        <ele>929</ele>
        <time>2015-07-11T10:35:43Z</time>
      </trkpt>
      <trkpt lat="43.70806" lon="6.74327">
        <ele>929</ele>
        <time>2015-07-11T10:35:48Z</time>
      </trkpt>
      <trkpt lat="43.70793" lon="6.74328">
        <ele>929</ele>
        <time>2015-07-11T10:35:54Z</time>
      </trkpt>
      <trkpt lat="43.70781" lon="6.74331">
        <ele>926</ele>
        <time>2015-07-11T10:36:00Z</time>
      </trkpt>
      <trkpt lat="43.70772" lon="6.74336">
        <ele>928</ele>
        <time>2015-07-11T10:36:07Z</time>
      </trkpt>
      <trkpt lat="43.70767" lon="6.74341">
        <ele>929</ele>
        <time>2015-07-11T10:36:12Z</time>
      </trkpt>
      <trkpt lat="43.70765" lon="6.7435">
        <ele>929</ele>
        <time>2015-07-11T10:36:18Z</time>
      </trkpt>
      <trkpt lat="43.70767" lon="6.74358">
        <ele>931</ele>
        <time>2015-07-11T10:36:25Z</time>
      </trkpt>
      <trkpt lat="43.70773" lon="6.7436">
        <ele>931</ele>
        <time>2015-07-11T10:36:32Z</time>
      </trkpt>
      <trkpt lat="43.70779" lon="6.74364">
        <ele>930</ele>
        <time>2015-07-11T10:36:38Z</time>
      </trkpt>
      <trkpt lat="43.70784" lon="6.74368">
        <ele>931</ele>
        <time>2015-07-11T10:36:44Z</time>
      </trkpt>
      <trkpt lat="43.70789" lon="6.74372">
        <ele>931</ele>
        <time>2015-07-11T10:36:50Z</time>
      </trkpt>
      <trkpt lat="43.70793" lon="6.74379">
        <ele>933</ele>
        <time>2015-07-11T10:36:57Z</time>
      </trkpt>
      <trkpt lat="43.70798" lon="6.74383">
        <ele>934</ele>
        <time>2015-07-11T10:37:04Z</time>
      </trkpt>
      <trkpt lat="43.70805" lon="6.74387">
        <ele>934</ele>
        <time>2015-07-11T10:37:12Z</time>
      </trkpt>
      <trkpt lat="43.70809" lon="6.74392">
        <ele>935</ele>
        <time>2015-07-11T10:37:18Z</time>
      </trkpt>
      <trkpt lat="43.70813" lon="6.74399">
        <ele>937</ele>
        <time>2015-07-11T10:37:24Z</time>
      </trkpt>
      <trkpt lat="43.70818" lon="6.74404">
        <ele>938</ele>
        <time>2015-07-11T10:37:32Z</time>
      </trkpt>
      <trkpt lat="43.70822" lon="6.7441">
        <ele>939</ele>
        <time>2015-07-11T10:37:38Z</time>
      </trkpt>
      <trkpt lat="43.70826" lon="6.74415">
        <ele>940</ele>
        <time>2015-07-11T10:37:44Z</time>
      </trkpt>
      <trkpt lat="43.7083" lon="6.74423">
        <ele>941</ele>
        <time>2015-07-11T10:37:50Z</time>
      </trkpt>
      <trkpt lat="43.70834" lon="6.74429">
        <ele>943</ele>
        <time>2015-07-11T10:37:56Z</time>
      </trkpt>
      <trkpt lat="43.70839" lon="6.74434">
        <ele>945</ele>
        <time>2015-07-11T10:38:03Z</time>
      </trkpt>
      <trkpt lat="43.70843" lon="6.7444">
        <ele>944</ele>
        <time>2015-07-11T10:38:09Z</time>
      </trkpt>
      <trkpt lat="43.70849" lon="6.74445">
        <ele>944</ele>
        <time>2015-07-11T10:38:15Z</time>
      </trkpt>
      <trkpt lat="43.70853" lon="6.74446">
        <ele>946</ele>
        <time>2015-07-11T10:38:49Z</time>
      </trkpt>
      <trkpt lat="43.70862" lon="6.74452">
        <ele>947</ele>
        <time>2015-07-11T10:38:55Z</time>
      </trkpt>
      <trkpt lat="43.7087" lon="6.74458">
        <ele>946</ele>
        <time>2015-07-11T10:39:01Z</time>
      </trkpt>
      <trkpt lat="43.7088" lon="6.74464">
        <ele>948</ele>
        <time>2015-07-11T10:39:07Z</time>
      </trkpt>
      <trkpt lat="43.70887" lon="6.74471">
        <ele>949</ele>
        <time>2015-07-11T10:39:13Z</time>
      </trkpt>
      <trkpt lat="43.70895" lon="6.74479">
        <ele>950</ele>
        <time>2015-07-11T10:39:19Z</time>
      </trkpt>
      <trkpt lat="43.70902" lon="6.74487">
        <ele>950</ele>
        <time>2015-07-11T10:39:25Z</time>
      </trkpt>
      <trkpt lat="43.70907" lon="6.74493">
        <ele>951</ele>
        <time>2015-07-11T10:39:30Z</time>
      </trkpt>
      <trkpt lat="43.70914" lon="6.74501">
        <ele>952</ele>
        <time>2015-07-11T10:39:37Z</time>
      </trkpt>
      <trkpt lat="43.7092" lon="6.74507">
        <ele>952</ele>
        <time>2015-07-11T10:39:42Z</time>
      </trkpt>
      <trkpt lat="43.70924" lon="6.74514">
        <ele>952</ele>
        <time>2015-07-11T10:39:47Z</time>
      </trkpt>
      <trkpt lat="43.70929" lon="6.74522">
        <ele>953</ele>
        <time>2015-07-11T10:39:53Z</time>
      </trkpt>
      <trkpt lat="43.70935" lon="6.74533">
        <ele>955</ele>
        <time>2015-07-11T10:40:00Z</time>
      </trkpt>
      <trkpt lat="43.7094" lon="6.74539">
        <ele>955</ele>
        <time>2015-07-11T10:40:05Z</time>
      </trkpt>
      <trkpt lat="43.70945" lon="6.74544">
        <ele>955</ele>
        <time>2015-07-11T10:40:12Z</time>
      </trkpt>
      <trkpt lat="43.70949" lon="6.74551">
        <ele>956</ele>
        <time>2015-07-11T10:40:17Z</time>
      </trkpt>
      <trkpt lat="43.70954" lon="6.74557">
        <ele>956</ele>
        <time>2015-07-11T10:40:22Z</time>
      </trkpt>
      <trkpt lat="43.70962" lon="6.74562">
        <ele>958</ele>
        <time>2015-07-11T10:40:29Z</time>
      </trkpt>
      <trkpt lat="43.70969" lon="6.74565">
        <ele>959</ele>
        <time>2015-07-11T10:40:34Z</time>
      </trkpt>
      <trkpt lat="43.70975" lon="6.74567">
        <ele>960</ele>
        <time>2015-07-11T10:40:40Z</time>
      </trkpt>
      <trkpt lat="43.70981" lon="6.74571">
        <ele>960</ele>
        <time>2015-07-11T10:40:46Z</time>
      </trkpt>
      <trkpt lat="43.70988" lon="6.74575">
        <ele>961</ele>
        <time>2015-07-11T10:40:53Z</time>
      </trkpt>
      <trkpt lat="43.70994" lon="6.7458">
        <ele>965</ele>
        <time>2015-07-11T10:41:00Z</time>
      </trkpt>
      <trkpt lat="43.71003" lon="6.74583">
        <ele>964</ele>
        <time>2015-07-11T10:41:06Z</time>
      </trkpt>
      <trkpt lat="43.7101" lon="6.74585">
        <ele>966</ele>
        <time>2015-07-11T10:41:11Z</time>
      </trkpt>
      <trkpt lat="43.7102" lon="6.74591">
        <ele>966</ele>
        <time>2015-07-11T10:41:18Z</time>
      </trkpt>
      <trkpt lat="43.71028" lon="6.74596">
        <ele>966</ele>
        <time>2015-07-11T10:41:24Z</time>
      </trkpt>
      <trkpt lat="43.71037" lon="6.74603">
        <ele>967</ele>
        <time>2015-07-11T10:41:30Z</time>
      </trkpt>
      <trkpt lat="43.71047" lon="6.7461">
        <ele>966</ele>
        <time>2015-07-11T10:41:37Z</time>
      </trkpt>
      <trkpt lat="43.71056" lon="6.74618">
        <ele>968</ele>
        <time>2015-07-11T10:41:43Z</time>
      </trkpt>
      <trkpt lat="43.71067" lon="6.74616">
        <ele>969</ele>
        <time>2015-07-11T10:41:49Z</time>
      </trkpt>
      <trkpt lat="43.7108" lon="6.74612">
        <ele>969</ele>
        <time>2015-07-11T10:41:54Z</time>
      </trkpt>
      <trkpt lat="43.71092" lon="6.74612">
        <ele>971</ele>
        <time>2015-07-11T10:41:59Z</time>
      </trkpt>
      <trkpt lat="43.71106" lon="6.74614">
        <ele>972</ele>
        <time>2015-07-11T10:42:05Z</time>
      </trkpt>
      <trkpt lat="43.71119" lon="6.74614">
        <ele>975</ele>
        <time>2015-07-11T10:42:11Z</time>
      </trkpt>
      <trkpt lat="43.71132" lon="6.74615">
        <ele>975</ele>
        <time>2015-07-11T10:42:17Z</time>
      </trkpt>
      <trkpt lat="43.71146" lon="6.74614">
        <ele>976</ele>
        <time>2015-07-11T10:42:23Z</time>
      </trkpt>
      <trkpt lat="43.71158" lon="6.74617">
        <ele>978</ele>
        <time>2015-07-11T10:42:29Z</time>
      </trkpt>
      <trkpt lat="43.7117" lon="6.74616">
        <ele>981</ele>
        <time>2015-07-11T10:42:35Z</time>
      </trkpt>
      <trkpt lat="43.71183" lon="6.74624">
        <ele>984</ele>
        <time>2015-07-11T10:42:41Z</time>
      </trkpt>
      <trkpt lat="43.71191" lon="6.74637">
        <ele>985</ele>
        <time>2015-07-11T10:42:46Z</time>
      </trkpt>
      <trkpt lat="43.71201" lon="6.74647">
        <ele>987</ele>
        <time>2015-07-11T10:42:52Z</time>
      </trkpt>
      <trkpt lat="43.71213" lon="6.74655">
        <ele>986</ele>
        <time>2015-07-11T10:42:58Z</time>
      </trkpt>
      <trkpt lat="43.71225" lon="6.74662">
        <ele>989</ele>
        <time>2015-07-11T10:43:04Z</time>
      </trkpt>
      <trkpt lat="43.71236" lon="6.74668">
        <ele>992</ele>
        <time>2015-07-11T10:43:09Z</time>
      </trkpt>
      <trkpt lat="43.71248" lon="6.74675">
        <ele>993</ele>
        <time>2015-07-11T10:43:15Z</time>
      </trkpt>
      <trkpt lat="43.71261" lon="6.74676">
        <ele>992</ele>
        <time>2015-07-11T10:43:20Z</time>
      </trkpt>
      <trkpt lat="43.71275" lon="6.74678">
        <ele>992</ele>
        <time>2015-07-11T10:43:26Z</time>
      </trkpt>
      <trkpt lat="43.71288" lon="6.74678">
        <ele>992</ele>
        <time>2015-07-11T10:43:31Z</time>
      </trkpt>
      <trkpt lat="43.713" lon="6.74679">
        <ele>989</ele>
        <time>2015-07-11T10:43:36Z</time>
      </trkpt>
      <trkpt lat="43.71313" lon="6.74681">
        <ele>989</ele>
        <time>2015-07-11T10:43:42Z</time>
      </trkpt>
      <trkpt lat="43.71324" lon="6.74671">
        <ele>990</ele>
        <time>2015-07-11T10:43:47Z</time>
      </trkpt>
      <trkpt lat="43.71328" lon="6.74652">
        <ele>992</ele>
        <time>2015-07-11T10:43:52Z</time>
      </trkpt>
      <trkpt lat="43.71329" lon="6.74634">
        <ele>989</ele>
        <time>2015-07-11T10:43:57Z</time>
      </trkpt>
      <trkpt lat="43.7133" lon="6.74619">
        <ele>988</ele>
        <time>2015-07-11T10:44:03Z</time>
      </trkpt>
      <trkpt lat="43.71334" lon="6.74607">
        <ele>991</ele>
        <time>2015-07-11T10:44:09Z</time>
      </trkpt>
      <trkpt lat="43.71336" lon="6.74599">
        <ele>991</ele>
        <time>2015-07-11T10:44:14Z</time>
      </trkpt>
      <trkpt lat="43.71339" lon="6.7459">
        <ele>991</ele>
        <time>2015-07-11T10:44:19Z</time>
      </trkpt>
      <trkpt lat="43.71343" lon="6.74579">
        <ele>992</ele>
        <time>2015-07-11T10:44:25Z</time>
      </trkpt>
      <trkpt lat="43.71347" lon="6.7457">
        <ele>992</ele>
        <time>2015-07-11T10:44:30Z</time>
      </trkpt>
      <trkpt lat="43.71347" lon="6.74556">
        <ele>991</ele>
        <time>2015-07-11T10:44:36Z</time>
      </trkpt>
      <trkpt lat="43.71346" lon="6.74535">
        <ele>1088</ele>
        <time>2015-07-11T10:44:42Z</time>
      </trkpt>
      <trkpt lat="43.71349" lon="6.74536">
        <ele>1000</ele>
        <time>2015-07-11T10:44:52Z</time>
      </trkpt>
      <trkpt lat="43.71347" lon="6.74538">
        <ele>990</ele>
        <time>2015-07-11T10:56:34Z</time>
      </trkpt>
      <trkpt lat="43.71345" lon="6.74534">
        <ele>990</ele>
        <time>2015-07-11T10:57:01Z</time>
      </trkpt>
      <trkpt lat="43.71344" lon="6.74538">
        <ele>991</ele>
        <time>2015-07-11T10:57:12Z</time>
      </trkpt>
      <trkpt lat="43.71347" lon="6.74537">
        <ele>992</ele>
        <time>2015-07-11T10:57:29Z</time>
      </trkpt>
      <trkpt lat="43.71345" lon="6.74534">
        <ele>1001</ele>
        <time>2015-07-11T10:59:14Z</time>
      </trkpt>
      <trkpt lat="43.71343" lon="6.7453">
        <ele>992</ele>
        <time>2015-07-11T10:59:29Z</time>
      </trkpt>
      <trkpt lat="43.71335" lon="6.74523">
        <ele>991</ele>
        <time>2015-07-11T10:59:35Z</time>
      </trkpt>
      <trkpt lat="43.71325" lon="6.74511">
        <ele>992</ele>
        <time>2015-07-11T10:59:41Z</time>
      </trkpt>
      <trkpt lat="43.71314" lon="6.74504">
        <ele>991</ele>
        <time>2015-07-11T10:59:47Z</time>
      </trkpt>
      <trkpt lat="43.71308" lon="6.74501">
        <ele>988</ele>
        <time>2015-07-11T10:59:52Z</time>
      </trkpt>
      <trkpt lat="43.71303" lon="6.74495">
        <ele>988</ele>
        <time>2015-07-11T10:59:58Z</time>
      </trkpt>
      <trkpt lat="43.71299" lon="6.74489">
        <ele>989</ele>
        <time>2015-07-11T11:00:03Z</time>
      </trkpt>
      <trkpt lat="43.71289" lon="6.74479">
        <ele>988</ele>
        <time>2015-07-11T11:00:10Z</time>
      </trkpt>
      <trkpt lat="43.71287" lon="6.74471">
        <ele>987</ele>
        <time>2015-07-11T11:00:22Z</time>
      </trkpt>
      <trkpt lat="43.71284" lon="6.74463">
        <ele>985</ele>
        <time>2015-07-11T11:00:29Z</time>
      </trkpt>
      <trkpt lat="43.71284" lon="6.74457">
        <ele>982</ele>
        <time>2015-07-11T11:00:35Z</time>
      </trkpt>
      <trkpt lat="43.71278" lon="6.74445">
        <ele>979</ele>
        <time>2015-07-11T11:00:40Z</time>
      </trkpt>
      <trkpt lat="43.71278" lon="6.74436">
        <ele>978</ele>
        <time>2015-07-11T11:00:46Z</time>
      </trkpt>
      <trkpt lat="43.71273" lon="6.74421">
        <ele>979</ele>
        <time>2015-07-11T11:00:52Z</time>
      </trkpt>
      <trkpt lat="43.71265" lon="6.74411">
        <ele>978</ele>
        <time>2015-07-11T11:00:57Z</time>
      </trkpt>
      <trkpt lat="43.71258" lon="6.74394">
        <ele>977</ele>
        <time>2015-07-11T11:01:03Z</time>
      </trkpt>
      <trkpt lat="43.71255" lon="6.74373">
        <ele>977</ele>
        <time>2015-07-11T11:01:08Z</time>
      </trkpt>
      <trkpt lat="43.71255" lon="6.74357">
        <ele>980</ele>
        <time>2015-07-11T11:01:13Z</time>
      </trkpt>
      <trkpt lat="43.71253" lon="6.74349">
        <ele>981</ele>
        <time>2015-07-11T11:01:26Z</time>
      </trkpt>
      <trkpt lat="43.71245" lon="6.74334">
        <ele>982</ele>
        <time>2015-07-11T11:01:32Z</time>
      </trkpt>
      <trkpt lat="43.71239" lon="6.74325">
        <ele>982</ele>
        <time>2015-07-11T11:01:35Z</time>
      </trkpt>
      <trkpt lat="43.7123" lon="6.7431">
        <ele>982</ele>
        <time>2015-07-11T11:01:40Z</time>
      </trkpt>
      <trkpt lat="43.7123" lon="6.74303">
        <ele>982</ele>
        <time>2015-07-11T11:01:42Z</time>
      </trkpt>
      <trkpt lat="43.71229" lon="6.74288">
        <ele>985</ele>
        <time>2015-07-11T11:01:47Z</time>
      </trkpt>
      <trkpt lat="43.71229" lon="6.74281">
        <ele>986</ele>
        <time>2015-07-11T11:01:49Z</time>
      </trkpt>
      <trkpt lat="43.71235" lon="6.74262">
        <ele>988</ele>
        <time>2015-07-11T11:01:55Z</time>
      </trkpt>
      <trkpt lat="43.7124" lon="6.74242">
        <ele>989</ele>
        <time>2015-07-11T11:02:01Z</time>
      </trkpt>
      <trkpt lat="43.71247" lon="6.74219">
        <ele>985</ele>
        <time>2015-07-11T11:02:06Z</time>
      </trkpt>
      <trkpt lat="43.71261" lon="6.74214">
        <ele>984</ele>
        <time>2015-07-11T11:02:11Z</time>
      </trkpt>
      <trkpt lat="43.71275" lon="6.74209">
        <ele>985</ele>
        <time>2015-07-11T11:02:16Z</time>
      </trkpt>
      <trkpt lat="43.71285" lon="6.74203">
        <ele>984</ele>
        <time>2015-07-11T11:02:21Z</time>
      </trkpt>
      <trkpt lat="43.71287" lon="6.74201">
        <ele>983</ele>
        <time>2015-07-11T11:02:29Z</time>
      </trkpt>
      <trkpt lat="43.7129" lon="6.74198">
        <ele>983</ele>
        <time>2015-07-11T11:02:35Z</time>
      </trkpt>
      <trkpt lat="43.71294" lon="6.74193">
        <ele>983</ele>
        <time>2015-07-11T11:02:37Z</time>
      </trkpt>
      <trkpt lat="43.71288" lon="6.74179">
        <ele>984</ele>
        <time>2015-07-11T11:02:42Z</time>
      </trkpt>
      <trkpt lat="43.71274" lon="6.74172">
        <ele>984</ele>
        <time>2015-07-11T11:02:48Z</time>
      </trkpt>
      <trkpt lat="43.71263" lon="6.74164">
        <ele>982</ele>
        <time>2015-07-11T11:02:53Z</time>
      </trkpt>
      <trkpt lat="43.71252" lon="6.74153">
        <ele>982</ele>
        <time>2015-07-11T11:02:58Z</time>
      </trkpt>
      <trkpt lat="43.7124" lon="6.74135">
        <ele>1219</ele>
        <time>2015-07-11T11:03:03Z</time>
      </trkpt>
      <trkpt lat="43.71228" lon="6.74116">
        <ele>1092</ele>
        <time>2015-07-11T11:03:08Z</time>
      </trkpt>
      <trkpt lat="43.71221" lon="6.74106">
        <ele>1056</ele>
        <time>2015-07-11T11:03:10Z</time>
      </trkpt>
      <trkpt lat="43.71215" lon="6.74097">
        <ele>1033</ele>
        <time>2015-07-11T11:03:12Z</time>
      </trkpt>
      <trkpt lat="43.71212" lon="6.74084">
        <ele>1002</ele>
        <time>2015-07-11T11:03:15Z</time>
      </trkpt>
      <trkpt lat="43.71201" lon="6.7406">
        <ele>990</ele>
        <time>2015-07-11T11:03:20Z</time>
      </trkpt>
      <trkpt lat="43.71188" lon="6.7404">
        <ele>984</ele>
        <time>2015-07-11T11:03:25Z</time>
      </trkpt>
      <trkpt lat="43.71187" lon="6.74033">
        <ele>982</ele>
        <time>2015-07-11T11:03:26Z</time>
      </trkpt>
      <trkpt lat="43.71184" lon="6.74024">
        <ele>975</ele>
        <time>2015-07-11T11:03:32Z</time>
      </trkpt>
      <trkpt lat="43.7118" lon="6.74018">
        <ele>973</ele>
        <time>2015-07-11T11:03:36Z</time>
      </trkpt>
      <trkpt lat="43.71177" lon="6.74005">
        <ele>974</ele>
        <time>2015-07-11T11:03:43Z</time>
      </trkpt>
      <trkpt lat="43.7118" lon="6.73995">
        <ele>973</ele>
        <time>2015-07-11T11:03:48Z</time>
      </trkpt>
      <trkpt lat="43.71183" lon="6.73987">
        <ele>970</ele>
        <time>2015-07-11T11:03:54Z</time>
      </trkpt>
      <trkpt lat="43.71185" lon="6.73983">
        <ele>970</ele>
        <time>2015-07-11T11:03:57Z</time>
      </trkpt>
      <trkpt lat="43.71184" lon="6.73978">
        <ele>970</ele>
        <time>2015-07-11T11:04:02Z</time>
      </trkpt>
      <trkpt lat="43.7118" lon="6.73968">
        <ele>972</ele>
        <time>2015-07-11T11:04:07Z</time>
      </trkpt>
      <trkpt lat="43.71178" lon="6.73963">
        <ele>972</ele>
        <time>2015-07-11T11:04:09Z</time>
      </trkpt>
      <trkpt lat="43.71177" lon="6.73953">
        <ele>968</ele>
        <time>2015-07-11T11:04:13Z</time>
      </trkpt>
      <trkpt lat="43.71176" lon="6.73942">
        <ele>967</ele>
        <time>2015-07-11T11:04:18Z</time>
      </trkpt>
      <trkpt lat="43.71171" lon="6.73924">
        <ele>968</ele>
        <time>2015-07-11T11:04:23Z</time>
      </trkpt>
      <trkpt lat="43.71165" lon="6.73914">
        <ele>968</ele>
        <time>2015-07-11T11:04:29Z</time>
      </trkpt>
      <trkpt lat="43.71157" lon="6.73923">
        <ele>969</ele>
        <time>2015-07-11T11:04:35Z</time>
      </trkpt>
      <trkpt lat="43.71145" lon="6.73931">
        <ele>967</ele>
        <time>2015-07-11T11:04:43Z</time>
      </trkpt>
      <trkpt lat="43.71127" lon="6.73936">
        <ele>966</ele>
        <time>2015-07-11T11:04:48Z</time>
      </trkpt>
      <trkpt lat="43.71101" lon="6.73938">
        <ele>962</ele>
        <time>2015-07-11T11:04:53Z</time>
      </trkpt>
      <trkpt lat="43.71086" lon="6.73932">
        <ele>958</ele>
        <time>2015-07-11T11:04:58Z</time>
      </trkpt>
      <trkpt lat="43.71091" lon="6.73953">
        <ele>956</ele>
        <time>2015-07-11T11:05:03Z</time>
      </trkpt>
      <trkpt lat="43.71097" lon="6.73968">
        <ele>952</ele>
        <time>2015-07-11T11:05:09Z</time>
      </trkpt>
      <trkpt lat="43.71081" lon="6.73976">
        <ele>949</ele>
        <time>2015-07-11T11:05:14Z</time>
      </trkpt>
      <trkpt lat="43.71085" lon="6.74">
        <ele>944</ele>
        <time>2015-07-11T11:05:19Z</time>
      </trkpt>
      <trkpt lat="43.71068" lon="6.74018">
        <ele>940</ele>
        <time>2015-07-11T11:05:24Z</time>
      </trkpt>
      <trkpt lat="43.71049" lon="6.74029">
        <ele>938</ele>
        <time>2015-07-11T11:05:29Z</time>
      </trkpt>
      <trkpt lat="43.71033" lon="6.74015">
        <ele>936</ele>
        <time>2015-07-11T11:05:34Z</time>
      </trkpt>
      <trkpt lat="43.71015" lon="6.74012">
        <ele>935</ele>
        <time>2015-07-11T11:05:40Z</time>
      </trkpt>
      <trkpt lat="43.71005" lon="6.73997">
        <ele>934</ele>
        <time>2015-07-11T11:05:45Z</time>
      </trkpt>
      <trkpt lat="43.70988" lon="6.73979">
        <ele>930</ele>
        <time>2015-07-11T11:05:50Z</time>
      </trkpt>
      <trkpt lat="43.70972" lon="6.73967">
        <ele>926</ele>
        <time>2015-07-11T11:05:55Z</time>
      </trkpt>
      <trkpt lat="43.70958" lon="6.73954">
        <ele>925</ele>
        <time>2015-07-11T11:06:00Z</time>
      </trkpt>
      <trkpt lat="43.70939" lon="6.73957">
        <ele>927</ele>
        <time>2015-07-11T11:06:05Z</time>
      </trkpt>
      <trkpt lat="43.70928" lon="6.73954">
        <ele>926</ele>
        <time>2015-07-11T11:06:11Z</time>
      </trkpt>
      <trkpt lat="43.70917" lon="6.73956">
        <ele>925</ele>
        <time>2015-07-11T11:06:16Z</time>
      </trkpt>
      <trkpt lat="43.70905" lon="6.73949">
        <ele>928</ele>
        <time>2015-07-11T11:06:22Z</time>
      </trkpt>
      <trkpt lat="43.70895" lon="6.73945">
        <ele>927</ele>
        <time>2015-07-11T11:06:28Z</time>
      </trkpt>
      <trkpt lat="43.70893" lon="6.7393">
        <ele>930</ele>
        <time>2015-07-11T11:06:35Z</time>
      </trkpt>
      <trkpt lat="43.70893" lon="6.73926">
        <ele>930</ele>
        <time>2015-07-11T11:07:22Z</time>
      </trkpt>
      <trkpt lat="43.70895" lon="6.7391">
        <ele>928</ele>
        <time>2015-07-11T11:07:28Z</time>
      </trkpt>
      <trkpt lat="43.70894" lon="6.73888">
        <ele>927</ele>
        <time>2015-07-11T11:07:34Z</time>
      </trkpt>
      <trkpt lat="43.70881" lon="6.73894">
        <ele>928</ele>
        <time>2015-07-11T11:07:39Z</time>
      </trkpt>
      <trkpt lat="43.70867" lon="6.73894">
        <ele>930</ele>
        <time>2015-07-11T11:07:44Z</time>
      </trkpt>
      <trkpt lat="43.70854" lon="6.73889">
        <ele>926</ele>
        <time>2015-07-11T11:07:49Z</time>
      </trkpt>
      <trkpt lat="43.70841" lon="6.73877">
        <ele>923</ele>
        <time>2015-07-11T11:07:55Z</time>
      </trkpt>
      <trkpt lat="43.70826" lon="6.73873">
        <ele>924</ele>
        <time>2015-07-11T11:08:00Z</time>
      </trkpt>
      <trkpt lat="43.70817" lon="6.73867">
        <ele>924</ele>
        <time>2015-07-11T11:08:05Z</time>
      </trkpt>
      <trkpt lat="43.70807" lon="6.73863">
        <ele>926</ele>
        <time>2015-07-11T11:08:11Z</time>
      </trkpt>
      <trkpt lat="43.70799" lon="6.73859">
        <ele>925</ele>
        <time>2015-07-11T11:08:16Z</time>
      </trkpt>
      <trkpt lat="43.7079" lon="6.73856">
        <ele>926</ele>
        <time>2015-07-11T11:08:22Z</time>
      </trkpt>
      <trkpt lat="43.70783" lon="6.73853">
        <ele>927</ele>
        <time>2015-07-11T11:08:27Z</time>
      </trkpt>
      <trkpt lat="43.70773" lon="6.73848">
        <ele>927</ele>
        <time>2015-07-11T11:08:34Z</time>
      </trkpt>
      <trkpt lat="43.70764" lon="6.73844">
        <ele>930</ele>
        <time>2015-07-11T11:08:41Z</time>
      </trkpt>
      <trkpt lat="43.70759" lon="6.73838">
        <ele>930</ele>
        <time>2015-07-11T11:08:45Z</time>
      </trkpt>
      <trkpt lat="43.70752" lon="6.73836">
        <ele>932</ele>
        <time>2015-07-11T11:08:52Z</time>
      </trkpt>
      <trkpt lat="43.70747" lon="6.73832">
        <ele>934</ele>
        <time>2015-07-11T11:08:58Z</time>
      </trkpt>
      <trkpt lat="43.70746" lon="6.73827">
        <ele>934</ele>
        <time>2015-07-11T11:09:08Z</time>
      </trkpt>
      <trkpt lat="43.70743" lon="6.73824">
        <ele>932</ele>
        <time>2015-07-11T11:09:35Z</time>
      </trkpt>
      <trkpt lat="43.70738" lon="6.73817">
        <ele>934</ele>
        <time>2015-07-11T11:09:41Z</time>
      </trkpt>
      <trkpt lat="43.70731" lon="6.73804">
        <ele>932</ele>
        <time>2015-07-11T11:09:47Z</time>
      </trkpt>
      <trkpt lat="43.70727" lon="6.73795">
        <ele>934</ele>
        <time>2015-07-11T11:09:52Z</time>
      </trkpt>
      <trkpt lat="43.70723" lon="6.73783">
        <ele>936</ele>
        <time>2015-07-11T11:09:58Z</time>
      </trkpt>
      <trkpt lat="43.70717" lon="6.73772">
        <ele>937</ele>
        <time>2015-07-11T11:10:05Z</time>
      </trkpt>
      <trkpt lat="43.70713" lon="6.73758">
        <ele>937</ele>
        <time>2015-07-11T11:10:12Z</time>
      </trkpt>
      <trkpt lat="43.70707" lon="6.73745">
        <ele>940</ele>
        <time>2015-07-11T11:10:18Z</time>
      </trkpt>
      <trkpt lat="43.70702" lon="6.73732">
        <ele>940</ele>
        <time>2015-07-11T11:10:24Z</time>
      </trkpt>
      <trkpt lat="43.70694" lon="6.73718">
        <ele>940</ele>
        <time>2015-07-11T11:10:30Z</time>
      </trkpt>
      <trkpt lat="43.70687" lon="6.73701">
        <ele>940</ele>
        <time>2015-07-11T11:10:35Z</time>
      </trkpt>
      <trkpt lat="43.7068" lon="6.73682">
        <ele>940</ele>
        <time>2015-07-11T11:10:41Z</time>
      </trkpt>
      <trkpt lat="43.70676" lon="6.73671">
        <ele>940</ele>
        <time>2015-07-11T11:10:46Z</time>
      </trkpt>
      <trkpt lat="43.70675" lon="6.73665">
        <ele>940</ele>
        <time>2015-07-11T11:10:48Z</time>
      </trkpt>
      <trkpt lat="43.70673" lon="6.7365">
        <ele>974</ele>
        <time>2015-07-11T11:10:54Z</time>
      </trkpt>
      <trkpt lat="43.70667" lon="6.73637">
        <ele>948</ele>
        <time>2015-07-11T11:10:58Z</time>
      </trkpt>
      <trkpt lat="43.7066" lon="6.73621">
        <ele>955</ele>
        <time>2015-07-11T11:11:03Z</time>
      </trkpt>
      <trkpt lat="43.70653" lon="6.73601">
        <ele>943</ele>
        <time>2015-07-11T11:11:08Z</time>
      </trkpt>
      <trkpt lat="43.70646" lon="6.7358">
        <ele>941</ele>
        <time>2015-07-11T11:11:14Z</time>
      </trkpt>
      <trkpt lat="43.70639" lon="6.73564">
        <ele>943</ele>
        <time>2015-07-11T11:11:20Z</time>
      </trkpt>
      <trkpt lat="43.7063" lon="6.73553">
        <ele>945</ele>
        <time>2015-07-11T11:11:25Z</time>
      </trkpt>
      <trkpt lat="43.70624" lon="6.73542">
        <ele>943</ele>
        <time>2015-07-11T11:11:30Z</time>
      </trkpt>
      <trkpt lat="43.70617" lon="6.7353">
        <ele>939</ele>
        <time>2015-07-11T11:11:37Z</time>
      </trkpt>
      <trkpt lat="43.70619" lon="6.73527">
        <ele>938</ele>
        <time>2015-07-11T11:11:47Z</time>
      </trkpt>
      <trkpt lat="43.70617" lon="6.73524">
        <ele>938</ele>
        <time>2015-07-11T11:11:57Z</time>
      </trkpt>
      <trkpt lat="43.70613" lon="6.73515">
        <ele>939</ele>
        <time>2015-07-11T11:12:02Z</time>
      </trkpt>
      <trkpt lat="43.70604" lon="6.73509">
        <ele>939</ele>
        <time>2015-07-11T11:12:08Z</time>
      </trkpt>
      <trkpt lat="43.70605" lon="6.73505">
        <ele>940</ele>
        <time>2015-07-11T11:13:11Z</time>
      </trkpt>
      <trkpt lat="43.70603" lon="6.73508">
        <ele>942</ele>
        <time>2015-07-11T11:13:20Z</time>
      </trkpt>
      <trkpt lat="43.70607" lon="6.73509">
        <ele>938</ele>
        <time>2015-07-11T11:17:43Z</time>
      </trkpt>
      <trkpt lat="43.70603" lon="6.73508">
        <ele>937</ele>
        <time>2015-07-11T11:17:48Z</time>
      </trkpt>
      <trkpt lat="43.70597" lon="6.73503">
        <ele>936</ele>
        <time>2015-07-11T11:17:53Z</time>
      </trkpt>
      <trkpt lat="43.70584" lon="6.73502">
        <ele>936</ele>
        <time>2015-07-11T11:17:59Z</time>
      </trkpt>
      <trkpt lat="43.70579" lon="6.73499">
        <ele>938</ele>
        <time>2015-07-11T11:18:11Z</time>
      </trkpt>
      <trkpt lat="43.70576" lon="6.73498">
        <ele>938</ele>
        <time>2015-07-11T11:18:27Z</time>
      </trkpt>
      <trkpt lat="43.70569" lon="6.73496">
        <ele>937</ele>
        <time>2015-07-11T11:18:33Z</time>
      </trkpt>
      <trkpt lat="43.70562" lon="6.73496">
        <ele>940</ele>
        <time>2015-07-11T11:18:39Z</time>
      </trkpt>
      <trkpt lat="43.70559" lon="6.73496">
        <ele>942</ele>
        <time>2015-07-11T11:18:52Z</time>
      </trkpt>
      <trkpt lat="43.70556" lon="6.73494">
        <ele>943</ele>
        <time>2015-07-11T11:18:57Z</time>
      </trkpt>
      <trkpt lat="43.7055" lon="6.73492">
        <ele>944</ele>
        <time>2015-07-11T11:19:03Z</time>
      </trkpt>
      <trkpt lat="43.70545" lon="6.73489">
        <ele>944</ele>
        <time>2015-07-11T11:19:10Z</time>
      </trkpt>
      <trkpt lat="43.70539" lon="6.73486">
        <ele>943</ele>
        <time>2015-07-11T11:19:15Z</time>
      </trkpt>
      <trkpt lat="43.70537" lon="6.73483">
        <ele>946</ele>
        <time>2015-07-11T11:19:18Z</time>
      </trkpt>
      <trkpt lat="43.70531" lon="6.73477">
        <ele>947</ele>
        <time>2015-07-11T11:19:24Z</time>
      </trkpt>
      <trkpt lat="43.70526" lon="6.73473">
        <ele>947</ele>
        <time>2015-07-11T11:19:31Z</time>
      </trkpt>
      <trkpt lat="43.70522" lon="6.73467">
        <ele>946</ele>
        <time>2015-07-11T11:19:36Z</time>
      </trkpt>
      <trkpt lat="43.70515" lon="6.73466">
        <ele>946</ele>
        <time>2015-07-11T11:19:42Z</time>
      </trkpt>
      <trkpt lat="43.70509" lon="6.73462">
        <ele>947</ele>
        <time>2015-07-11T11:19:48Z</time>
      </trkpt>
      <trkpt lat="43.70504" lon="6.73459">
        <ele>945</ele>
        <time>2015-07-11T11:19:58Z</time>
      </trkpt>
      <trkpt lat="43.70502" lon="6.73456">
        <ele>945</ele>
        <time>2015-07-11T11:20:05Z</time>
      </trkpt>
      <trkpt lat="43.70499" lon="6.73458">
        <ele>947</ele>
        <time>2015-07-11T11:20:14Z</time>
      </trkpt>
      <trkpt lat="43.70492" lon="6.73454">
        <ele>949</ele>
        <time>2015-07-11T11:20:20Z</time>
      </trkpt>
      <trkpt lat="43.70486" lon="6.73451">
        <ele>951</ele>
        <time>2015-07-11T11:20:25Z</time>
      </trkpt>
      <trkpt lat="43.70479" lon="6.73447">
        <ele>951</ele>
        <time>2015-07-11T11:20:30Z</time>
      </trkpt>
      <trkpt lat="43.70471" lon="6.7344">
        <ele>949</ele>
        <time>2015-07-11T11:20:35Z</time>
      </trkpt>
      <trkpt lat="43.70465" lon="6.73439">
        <ele>951</ele>
        <time>2015-07-11T11:20:40Z</time>
      </trkpt>
      <trkpt lat="43.70456" lon="6.73437">
        <ele>956</ele>
        <time>2015-07-11T11:21:09Z</time>
      </trkpt>
      <trkpt lat="43.70453" lon="6.73439">
        <ele>956</ele>
        <time>2015-07-11T11:21:52Z</time>
      </trkpt>
      <trkpt lat="43.70447" lon="6.73435">
        <ele>953</ele>
        <time>2015-07-11T11:21:57Z</time>
      </trkpt>
      <trkpt lat="43.70437" lon="6.73434">
        <ele>952</ele>
        <time>2015-07-11T11:22:04Z</time>
      </trkpt>
      <trkpt lat="43.70431" lon="6.73436">
        <ele>953</ele>
        <time>2015-07-11T11:22:13Z</time>
      </trkpt>
      <trkpt lat="43.70425" lon="6.73434">
        <ele>953</ele>
        <time>2015-07-11T11:22:19Z</time>
      </trkpt>
      <trkpt lat="43.70416" lon="6.73428">
        <ele>951</ele>
        <time>2015-07-11T11:22:25Z</time>
      </trkpt>
      <trkpt lat="43.70407" lon="6.73427">
        <ele>954</ele>
        <time>2015-07-11T11:22:31Z</time>
      </trkpt>
      <trkpt lat="43.70395" lon="6.73425">
        <ele>953</ele>
        <time>2015-07-11T11:22:36Z</time>
      </trkpt>
      <trkpt lat="43.70383" lon="6.73425">
        <ele>955</ele>
        <time>2015-07-11T11:22:42Z</time>
      </trkpt>
      <trkpt lat="43.70372" lon="6.7342">
        <ele>956</ele>
        <time>2015-07-11T11:22:48Z</time>
      </trkpt>
      <trkpt lat="43.70367" lon="6.73416">
        <ele>957</ele>
        <time>2015-07-11T11:22:53Z</time>
      </trkpt>
      <trkpt lat="43.70359" lon="6.73406">
        <ele>961</ele>
        <time>2015-07-11T11:22:59Z</time>
      </trkpt>
      <trkpt lat="43.70354" lon="6.734">
        <ele>960</ele>
        <time>2015-07-11T11:23:04Z</time>
      </trkpt>
      <trkpt lat="43.70348" lon="6.7339">
        <ele>963</ele>
        <time>2015-07-11T11:23:10Z</time>
      </trkpt>
      <trkpt lat="43.70347" lon="6.73386">
        <ele>964</ele>
        <time>2015-07-11T11:23:12Z</time>
      </trkpt>
      <trkpt lat="43.70342" lon="6.73374">
        <ele>965</ele>
        <time>2015-07-11T11:23:18Z</time>
      </trkpt>
      <trkpt lat="43.70338" lon="6.73365">
        <ele>964</ele>
        <time>2015-07-11T11:23:23Z</time>
      </trkpt>
      <trkpt lat="43.70332" lon="6.73352">
        <ele>965</ele>
        <time>2015-07-11T11:23:29Z</time>
      </trkpt>
      <trkpt lat="43.70322" lon="6.73339">
        <ele>967</ele>
        <time>2015-07-11T11:23:35Z</time>
      </trkpt>
      <trkpt lat="43.70321" lon="6.73333">
        <ele>968</ele>
        <time>2015-07-11T11:23:37Z</time>
      </trkpt>
      <trkpt lat="43.70319" lon="6.73331">
        <ele>969</ele>
        <time>2015-07-11T11:23:38Z</time>
      </trkpt>
      <trkpt lat="43.70312" lon="6.73318">
        <ele>965</ele>
        <time>2015-07-11T11:23:43Z</time>
      </trkpt>
      <trkpt lat="43.70308" lon="6.73315">
        <ele>965</ele>
        <time>2015-07-11T11:23:45Z</time>
      </trkpt>
      <trkpt lat="43.70302" lon="6.73303">
        <ele>963</ele>
        <time>2015-07-11T11:23:50Z</time>
      </trkpt>
      <trkpt lat="43.70296" lon="6.73292">
        <ele>962</ele>
        <time>2015-07-11T11:23:55Z</time>
      </trkpt>
      <trkpt lat="43.70288" lon="6.73278">
        <ele>964</ele>
        <time>2015-07-11T11:24:01Z</time>
      </trkpt>
      <trkpt lat="43.70282" lon="6.73266">
        <ele>963</ele>
        <time>2015-07-11T11:24:07Z</time>
      </trkpt>
      <trkpt lat="43.70276" lon="6.73254">
        <ele>965</ele>
        <time>2015-07-11T11:24:12Z</time>
      </trkpt>
      <trkpt lat="43.7027" lon="6.73237">
        <ele>964</ele>
        <time>2015-07-11T11:24:18Z</time>
      </trkpt>
      <trkpt lat="43.70261" lon="6.73222">
        <ele>963</ele>
        <time>2015-07-11T11:24:24Z</time>
      </trkpt>
      <trkpt lat="43.70256" lon="6.73199">
        <ele>965</ele>
        <time>2015-07-11T11:24:30Z</time>
      </trkpt>
      <trkpt lat="43.70252" lon="6.73186">
        <ele>965</ele>
        <time>2015-07-11T11:24:34Z</time>
      </trkpt>
      <trkpt lat="43.70247" lon="6.73172">
        <ele>964</ele>
        <time>2015-07-11T11:24:40Z</time>
      </trkpt>
      <trkpt lat="43.70244" lon="6.7316">
        <ele>963</ele>
        <time>2015-07-11T11:24:46Z</time>
      </trkpt>
      <trkpt lat="43.70235" lon="6.73147">
        <ele>958</ele>
        <time>2015-07-11T11:25:23Z</time>
      </trkpt>
      <trkpt lat="43.70225" lon="6.7314">
        <ele>952</ele>
        <time>2015-07-11T11:25:29Z</time>
      </trkpt>
      <trkpt lat="43.70214" lon="6.73136">
        <ele>950</ele>
        <time>2015-07-11T11:25:34Z</time>
      </trkpt>
      <trkpt lat="43.702" lon="6.73128">
        <ele>946</ele>
        <time>2015-07-11T11:25:39Z</time>
      </trkpt>
      <trkpt lat="43.70183" lon="6.7312">
        <ele>945</ele>
        <time>2015-07-11T11:25:45Z</time>
      </trkpt>
      <trkpt lat="43.70167" lon="6.73112">
        <ele>944</ele>
        <time>2015-07-11T11:25:50Z</time>
      </trkpt>
      <trkpt lat="43.70145" lon="6.73099">
        <ele>938</ele>
        <time>2015-07-11T11:25:55Z</time>
      </trkpt>
      <trkpt lat="43.70133" lon="6.73073">
        <ele>936</ele>
        <time>2015-07-11T11:26:00Z</time>
      </trkpt>
      <trkpt lat="43.70113" lon="6.7305">
        <ele>933</ele>
        <time>2015-07-11T11:26:05Z</time>
      </trkpt>
      <trkpt lat="43.70097" lon="6.73023">
        <ele>931</ele>
        <time>2015-07-11T11:26:10Z</time>
      </trkpt>
      <trkpt lat="43.70086" lon="6.7299">
        <ele>928</ele>
        <time>2015-07-11T11:26:15Z</time>
      </trkpt>
      <trkpt lat="43.70069" lon="6.72964">
        <ele>922</ele>
        <time>2015-07-11T11:26:20Z</time>
      </trkpt>
      <trkpt lat="43.70052" lon="6.72935">
        <ele>919</ele>
        <time>2015-07-11T11:26:25Z</time>
      </trkpt>
      <trkpt lat="43.70036" lon="6.72904">
        <ele>918</ele>
        <time>2015-07-11T11:26:30Z</time>
      </trkpt>
      <trkpt lat="43.70023" lon="6.72879">
        <ele>916</ele>
        <time>2015-07-11T11:26:35Z</time>
      </trkpt>
      <trkpt lat="43.70011" lon="6.7286">
        <ele>919</ele>
        <time>2015-07-11T11:26:40Z</time>
      </trkpt>
      <trkpt lat="43.70009" lon="6.72858">
        <ele>922</ele>
        <time>2015-07-11T11:26:45Z</time>
      </trkpt>
      <trkpt lat="43.70001" lon="6.72845">
        <ele>920</ele>
        <time>2015-07-11T11:26:50Z</time>
      </trkpt>
      <trkpt lat="43.69987" lon="6.72835">
        <ele>916</ele>
        <time>2015-07-11T11:26:55Z</time>
      </trkpt>
      <trkpt lat="43.69984" lon="6.72833">
        <ele>915</ele>
        <time>2015-07-11T11:26:56Z</time>
      </trkpt>
      <trkpt lat="43.69968" lon="6.72831">
        <ele>917</ele>
        <time>2015-07-11T11:27:01Z</time>
      </trkpt>
      <trkpt lat="43.6995" lon="6.72826">
        <ele>915</ele>
        <time>2015-07-11T11:27:06Z</time>
      </trkpt>
      <trkpt lat="43.6993" lon="6.72823">
        <ele>913</ele>
        <time>2015-07-11T11:27:11Z</time>
      </trkpt>
      <trkpt lat="43.69922" lon="6.72821">
        <ele>913</ele>
        <time>2015-07-11T11:27:13Z</time>
      </trkpt>
      <trkpt lat="43.6992" lon="6.72815">
        <ele>913</ele>
        <time>2015-07-11T11:27:14Z</time>
      </trkpt>
      <trkpt lat="43.69912" lon="6.72815">
        <ele>911</ele>
        <time>2015-07-11T11:27:16Z</time>
      </trkpt>
      <trkpt lat="43.69896" lon="6.7281">
        <ele>906</ele>
        <time>2015-07-11T11:27:21Z</time>
      </trkpt>
      <trkpt lat="43.69892" lon="6.72808">
        <ele>905</ele>
        <time>2015-07-11T11:27:22Z</time>
      </trkpt>
      <trkpt lat="43.69872" lon="6.72807">
        <ele>903</ele>
        <time>2015-07-11T11:27:27Z</time>
      </trkpt>
      <trkpt lat="43.69857" lon="6.72811">
        <ele>900</ele>
        <time>2015-07-11T11:27:32Z</time>
      </trkpt>
      <trkpt lat="43.69841" lon="6.72812">
        <ele>901</ele>
        <time>2015-07-11T11:27:38Z</time>
      </trkpt>
      <trkpt lat="43.69834" lon="6.72822">
        <ele>899</ele>
        <time>2015-07-11T11:27:43Z</time>
      </trkpt>
      <trkpt lat="43.69823" lon="6.72818">
        <ele>897</ele>
        <time>2015-07-11T11:27:49Z</time>
      </trkpt>
      <trkpt lat="43.69818" lon="6.72812">
        <ele>897</ele>
        <time>2015-07-11T11:27:55Z</time>
      </trkpt>
      <trkpt lat="43.69811" lon="6.72798">
        <ele>900</ele>
        <time>2015-07-11T11:28:00Z</time>
      </trkpt>
      <trkpt lat="43.69797" lon="6.72785">
        <ele>903</ele>
        <time>2015-07-11T11:28:05Z</time>
      </trkpt>
      <trkpt lat="43.69787" lon="6.72768">
        <ele>906</ele>
        <time>2015-07-11T11:28:11Z</time>
      </trkpt>
      <trkpt lat="43.69776" lon="6.72752">
        <ele>907</ele>
        <time>2015-07-11T11:28:16Z</time>
      </trkpt>
      <trkpt lat="43.69759" lon="6.72734">
        <ele>906</ele>
        <time>2015-07-11T11:28:21Z</time>
      </trkpt>
      <trkpt lat="43.69745" lon="6.72714">
        <ele>900</ele>
        <time>2015-07-11T11:28:26Z</time>
      </trkpt>
      <trkpt lat="43.69743" lon="6.72704">
        <ele>902</ele>
        <time>2015-07-11T11:28:28Z</time>
      </trkpt>
      <trkpt lat="43.69734" lon="6.7268">
        <ele>903</ele>
        <time>2015-07-11T11:28:33Z</time>
      </trkpt>
      <trkpt lat="43.69726" lon="6.72655">
        <ele>903</ele>
        <time>2015-07-11T11:28:38Z</time>
      </trkpt>
      <trkpt lat="43.69725" lon="6.72645">
        <ele>903</ele>
        <time>2015-07-11T11:28:40Z</time>
      </trkpt>
      <trkpt lat="43.69717" lon="6.72627">
        <ele>904</ele>
        <time>2015-07-11T11:28:45Z</time>
      </trkpt>
      <trkpt lat="43.69708" lon="6.72607">
        <ele>905</ele>
        <time>2015-07-11T11:28:50Z</time>
      </trkpt>
      <trkpt lat="43.69705" lon="6.72587">
        <ele>904</ele>
        <time>2015-07-11T11:28:55Z</time>
      </trkpt>
      <trkpt lat="43.69699" lon="6.72566">
        <ele>919</ele>
        <time>2015-07-11T11:29:00Z</time>
      </trkpt>
      <trkpt lat="43.69695" lon="6.72545">
        <ele>905</ele>
        <time>2015-07-11T11:29:05Z</time>
      </trkpt>
      <trkpt lat="43.69694" lon="6.72522">
        <ele>901</ele>
        <time>2015-07-11T11:29:10Z</time>
      </trkpt>
      <trkpt lat="43.69695" lon="6.725">
        <ele>899</ele>
        <time>2015-07-11T11:29:15Z</time>
      </trkpt>
      <trkpt lat="43.69692" lon="6.72475">
        <ele>897</ele>
        <time>2015-07-11T11:29:20Z</time>
      </trkpt>
      <trkpt lat="43.69673" lon="6.72458">
        <ele>895</ele>
        <time>2015-07-11T11:29:25Z</time>
      </trkpt>
      <trkpt lat="43.69654" lon="6.72452">
        <ele>893</ele>
        <time>2015-07-11T11:29:30Z</time>
      </trkpt>
      <trkpt lat="43.69641" lon="6.72469">
        <ele>892</ele>
        <time>2015-07-11T11:29:35Z</time>
      </trkpt>
      <trkpt lat="43.69632" lon="6.72486">
        <ele>891</ele>
        <time>2015-07-11T11:29:40Z</time>
      </trkpt>
      <trkpt lat="43.69616" lon="6.72507">
        <ele>890</ele>
        <time>2015-07-11T11:29:45Z</time>
      </trkpt>
      <trkpt lat="43.69601" lon="6.72528">
        <ele>886</ele>
        <time>2015-07-11T11:29:50Z</time>
      </trkpt>
      <trkpt lat="43.69583" lon="6.72556">
        <ele>882</ele>
        <time>2015-07-11T11:29:55Z</time>
      </trkpt>
      <trkpt lat="43.69562" lon="6.72575">
        <ele>879</ele>
        <time>2015-07-11T11:30:00Z</time>
      </trkpt>
      <trkpt lat="43.69545" lon="6.72592">
        <ele>876</ele>
        <time>2015-07-11T11:30:05Z</time>
      </trkpt>
      <trkpt lat="43.69547" lon="6.72609">
        <ele>876</ele>
        <time>2015-07-11T11:30:10Z</time>
      </trkpt>
      <trkpt lat="43.69554" lon="6.7263">
        <ele>878</ele>
        <time>2015-07-11T11:30:16Z</time>
      </trkpt>
      <trkpt lat="43.69553" lon="6.7265">
        <ele>877</ele>
        <time>2015-07-11T11:30:22Z</time>
      </trkpt>
      <trkpt lat="43.69554" lon="6.72672">
        <ele>877</ele>
        <time>2015-07-11T11:30:28Z</time>
      </trkpt>
      <trkpt lat="43.69547" lon="6.72688">
        <ele>876</ele>
        <time>2015-07-11T11:30:33Z</time>
      </trkpt>
      <trkpt lat="43.6955" lon="6.72684">
        <ele>876</ele>
        <time>2015-07-11T11:30:49Z</time>
      </trkpt>
      <trkpt lat="43.69555" lon="6.72668">
        <ele>877</ele>
        <time>2015-07-11T11:30:55Z</time>
      </trkpt>
      <trkpt lat="43.69555" lon="6.72646">
        <ele>877</ele>
        <time>2015-07-11T11:31:00Z</time>
      </trkpt>
      <trkpt lat="43.69569" lon="6.72648">
        <ele>878</ele>
        <time>2015-07-11T11:31:05Z</time>
      </trkpt>
      <trkpt lat="43.69575" lon="6.72672">
        <ele>878</ele>
        <time>2015-07-11T11:31:10Z</time>
      </trkpt>
      <trkpt lat="43.69577" lon="6.72684">
        <ele>878</ele>
        <time>2015-07-11T11:31:15Z</time>
      </trkpt>
      <trkpt lat="43.69578" lon="6.72688">
        <ele>879</ele>
        <time>2015-07-11T11:31:20Z</time>
      </trkpt>
      <trkpt lat="43.69579" lon="6.72693">
        <ele>880</ele>
        <time>2015-07-11T11:35:02Z</time>
      </trkpt>
      <trkpt lat="43.69581" lon="6.72696">
        <ele>881</ele>
        <time>2015-07-11T11:35:09Z</time>
      </trkpt>
      <trkpt lat="43.69577" lon="6.72693">
        <ele>883</ele>
        <time>2015-07-11T11:35:55Z</time>
      </trkpt>
      <trkpt lat="43.69578" lon="6.72689">
        <ele>882</ele>
        <time>2015-07-11T11:36:00Z</time>
      </trkpt>
      <trkpt lat="43.69577" lon="6.72685">
        <ele>882</ele>
        <time>2015-07-11T11:36:08Z</time>
      </trkpt>
      <trkpt lat="43.69574" lon="6.72683">
        <ele>882</ele>
        <time>2015-07-11T11:37:35Z</time>
      </trkpt>
      <trkpt lat="43.69573" lon="6.72667">
        <ele>882</ele>
        <time>2015-07-11T11:37:40Z</time>
      </trkpt>
      <trkpt lat="43.69567" lon="6.72646">
        <ele>880</ele>
        <time>2015-07-11T11:37:45Z</time>
      </trkpt>
      <trkpt lat="43.69555" lon="6.72638">
        <ele>879</ele>
        <time>2015-07-11T11:37:50Z</time>
      </trkpt>
      <trkpt lat="43.69553" lon="6.72658">
        <ele>880</ele>
        <time>2015-07-11T11:37:55Z</time>
      </trkpt>
      <trkpt lat="43.69553" lon="6.72678">
        <ele>879</ele>
        <time>2015-07-11T11:38:00Z</time>
      </trkpt>
      <trkpt lat="43.69538" lon="6.72696">
        <ele>878</ele>
        <time>2015-07-11T11:38:05Z</time>
      </trkpt>
      <trkpt lat="43.69519" lon="6.7271">
        <ele>876</ele>
        <time>2015-07-11T11:38:10Z</time>
      </trkpt>
      <trkpt lat="43.695" lon="6.72725">
        <ele>876</ele>
        <time>2015-07-11T11:38:15Z</time>
      </trkpt>
      <trkpt lat="43.69479" lon="6.72743">
        <ele>874</ele>
        <time>2015-07-11T11:38:20Z</time>
      </trkpt>
      <trkpt lat="43.69456" lon="6.72758">
        <ele>873</ele>
        <time>2015-07-11T11:38:25Z</time>
      </trkpt>
      <trkpt lat="43.69434" lon="6.72773">
        <ele>873</ele>
        <time>2015-07-11T11:38:30Z</time>
      </trkpt>
      <trkpt lat="43.69418" lon="6.72782">
        <ele>872</ele>
        <time>2015-07-11T11:38:35Z</time>
      </trkpt>
      <trkpt lat="43.69396" lon="6.72783">
        <ele>869</ele>
        <time>2015-07-11T11:38:41Z</time>
      </trkpt>
      <trkpt lat="43.69378" lon="6.7279">
        <ele>869</ele>
        <time>2015-07-11T11:38:46Z</time>
      </trkpt>
      <trkpt lat="43.69364" lon="6.72798">
        <ele>866</ele>
        <time>2015-07-11T11:38:51Z</time>
      </trkpt>
      <trkpt lat="43.69352" lon="6.72809">
        <ele>867</ele>
        <time>2015-07-11T11:38:54Z</time>
      </trkpt>
      <trkpt lat="43.69346" lon="6.72833">
        <ele>869</ele>
        <time>2015-07-11T11:38:59Z</time>
      </trkpt>
      <trkpt lat="43.6935" lon="6.72861">
        <ele>871</ele>
        <time>2015-07-11T11:39:04Z</time>
      </trkpt>
      <trkpt lat="43.69351" lon="6.72888">
        <ele>870</ele>
        <time>2015-07-11T11:39:09Z</time>
      </trkpt>
      <trkpt lat="43.69345" lon="6.72916">
        <ele>869</ele>
        <time>2015-07-11T11:39:14Z</time>
      </trkpt>
      <trkpt lat="43.69336" lon="6.72944">
        <ele>869</ele>
        <time>2015-07-11T11:39:19Z</time>
      </trkpt>
      <trkpt lat="43.69325" lon="6.72969">
        <ele>868</ele>
        <time>2015-07-11T11:39:24Z</time>
      </trkpt>
      <trkpt lat="43.69308" lon="6.7299">
        <ele>866</ele>
        <time>2015-07-11T11:39:29Z</time>
      </trkpt>
      <trkpt lat="43.69292" lon="6.73009">
        <ele>866</ele>
        <time>2015-07-11T11:39:34Z</time>
      </trkpt>
      <trkpt lat="43.69272" lon="6.73009">
        <ele>864</ele>
        <time>2015-07-11T11:39:39Z</time>
      </trkpt>
      <trkpt lat="43.69254" lon="6.73021">
        <ele>863</ele>
        <time>2015-07-11T11:39:44Z</time>
      </trkpt>
      <trkpt lat="43.69248" lon="6.73042">
        <ele>862</ele>
        <time>2015-07-11T11:39:49Z</time>
      </trkpt>
      <trkpt lat="43.69243" lon="6.73067">
        <ele>860</ele>
        <time>2015-07-11T11:39:54Z</time>
      </trkpt>
      <trkpt lat="43.6924" lon="6.73094">
        <ele>858</ele>
        <time>2015-07-11T11:39:59Z</time>
      </trkpt>
      <trkpt lat="43.69232" lon="6.73119">
        <ele>857</ele>
        <time>2015-07-11T11:40:04Z</time>
      </trkpt>
      <trkpt lat="43.69209" lon="6.73125">
        <ele>853</ele>
        <time>2015-07-11T11:40:09Z</time>
      </trkpt>
      <trkpt lat="43.69184" lon="6.73122">
        <ele>849</ele>
        <time>2015-07-11T11:40:14Z</time>
      </trkpt>
      <trkpt lat="43.69165" lon="6.73134">
        <ele>846</ele>
        <time>2015-07-11T11:40:19Z</time>
      </trkpt>
      <trkpt lat="43.69149" lon="6.73144">
        <ele>844</ele>
        <time>2015-07-11T11:40:24Z</time>
      </trkpt>
      <trkpt lat="43.69131" lon="6.73165">
        <ele>840</ele>
        <time>2015-07-11T11:40:29Z</time>
      </trkpt>
      <trkpt lat="43.69123" lon="6.73193">
        <ele>839</ele>
        <time>2015-07-11T11:40:34Z</time>
      </trkpt>
      <trkpt lat="43.69111" lon="6.7321">
        <ele>837</ele>
        <time>2015-07-11T11:40:39Z</time>
      </trkpt>
      <trkpt lat="43.69104" lon="6.73239">
        <ele>834</ele>
        <time>2015-07-11T11:40:44Z</time>
      </trkpt>
      <trkpt lat="43.691" lon="6.73281">
        <ele>831</ele>
        <time>2015-07-11T11:40:49Z</time>
      </trkpt>
      <trkpt lat="43.69095" lon="6.73324">
        <ele>829</ele>
        <time>2015-07-11T11:40:54Z</time>
      </trkpt>
      <trkpt lat="43.69085" lon="6.73367">
        <ele>825</ele>
        <time>2015-07-11T11:40:59Z</time>
      </trkpt>
      <trkpt lat="43.69074" lon="6.73407">
        <ele>822</ele>
        <time>2015-07-11T11:41:04Z</time>
      </trkpt>
      <trkpt lat="43.69067" lon="6.73411">
        <ele>822</ele>
        <time>2015-07-11T11:41:11Z</time>
      </trkpt>
      <trkpt lat="43.69053" lon="6.73415">
        <ele>822</ele>
        <time>2015-07-11T11:41:16Z</time>
      </trkpt>
      <trkpt lat="43.69055" lon="6.73433">
        <ele>821</ele>
        <time>2015-07-11T11:41:21Z</time>
      </trkpt>
      <trkpt lat="43.69072" lon="6.73448">
        <ele>822</ele>
        <time>2015-07-11T11:41:26Z</time>
      </trkpt>
      <trkpt lat="43.69083" lon="6.73463">
        <ele>825</ele>
        <time>2015-07-11T11:41:31Z</time>
      </trkpt>
      <trkpt lat="43.69088" lon="6.73486">
        <ele>822</ele>
        <time>2015-07-11T11:41:37Z</time>
      </trkpt>
      <trkpt lat="43.69081" lon="6.73504">
        <ele>819</ele>
        <time>2015-07-11T11:41:42Z</time>
      </trkpt>
      <trkpt lat="43.69078" lon="6.73521">
        <ele>820</ele>
        <time>2015-07-11T11:41:47Z</time>
      </trkpt>
      <trkpt lat="43.69077" lon="6.73541">
        <ele>820</ele>
        <time>2015-07-11T11:41:52Z</time>
      </trkpt>
      <trkpt lat="43.69078" lon="6.73569">
        <ele>820</ele>
        <time>2015-07-11T11:41:57Z</time>
      </trkpt>
      <trkpt lat="43.69077" lon="6.73598">
        <ele>819</ele>
        <time>2015-07-11T11:42:02Z</time>
      </trkpt>
      <trkpt lat="43.69077" lon="6.7362">
        <ele>817</ele>
        <time>2015-07-11T11:42:07Z</time>
      </trkpt>
      <trkpt lat="43.69079" lon="6.73631">
        <ele>818</ele>
        <time>2015-07-11T11:42:15Z</time>
      </trkpt>
      <trkpt lat="43.69078" lon="6.73635">
        <ele>818</ele>
        <time>2015-07-11T11:42:22Z</time>
      </trkpt>
      <trkpt lat="43.69076" lon="6.73638">
        <ele>821</ele>
        <time>2015-07-11T11:42:27Z</time>
      </trkpt>
      <trkpt lat="43.69074" lon="6.73649">
        <ele>820</ele>
        <time>2015-07-11T11:42:36Z</time>
      </trkpt>
      <trkpt lat="43.69064" lon="6.73674">
        <ele>816</ele>
        <time>2015-07-11T11:42:41Z</time>
      </trkpt>
      <trkpt lat="43.69062" lon="6.73727">
        <ele>809</ele>
        <time>2015-07-11T11:42:46Z</time>
      </trkpt>
      <trkpt lat="43.69058" lon="6.73763">
        <ele>806</ele>
        <time>2015-07-11T11:42:51Z</time>
      </trkpt>
      <trkpt lat="43.69039" lon="6.73761">
        <ele>809</ele>
        <time>2015-07-11T11:43:04Z</time>
      </trkpt>
      <trkpt lat="43.69027" lon="6.73757">
        <ele>808</ele>
        <time>2015-07-11T11:43:09Z</time>
      </trkpt>
      <trkpt lat="43.69014" lon="6.7375">
        <ele>806</ele>
        <time>2015-07-11T11:43:14Z</time>
      </trkpt>
      <trkpt lat="43.68995" lon="6.73737">
        <ele>807</ele>
        <time>2015-07-11T11:43:19Z</time>
      </trkpt>
      <trkpt lat="43.68973" lon="6.73715">
        <ele>804</ele>
        <time>2015-07-11T11:43:24Z</time>
      </trkpt>
      <trkpt lat="43.68965" lon="6.73703">
        <ele>802</ele>
        <time>2015-07-11T11:43:28Z</time>
      </trkpt>
      <trkpt lat="43.68959" lon="6.73703">
        <ele>799</ele>
        <time>2015-07-11T11:43:35Z</time>
      </trkpt>
      <trkpt lat="43.68942" lon="6.7372">
        <ele>796</ele>
        <time>2015-07-11T11:43:40Z</time>
      </trkpt>
      <trkpt lat="43.68924" lon="6.73747">
        <ele>792</ele>
        <time>2015-07-11T11:43:45Z</time>
      </trkpt>
      <trkpt lat="43.68905" lon="6.73738">
        <ele>790</ele>
        <time>2015-07-11T11:43:50Z</time>
      </trkpt>
      <trkpt lat="43.68891" lon="6.73741">
        <ele>787</ele>
        <time>2015-07-11T11:43:55Z</time>
      </trkpt>
      <trkpt lat="43.6888" lon="6.7375">
        <ele>783</ele>
        <time>2015-07-11T11:44:00Z</time>
      </trkpt>
      <trkpt lat="43.68872" lon="6.73766">
        <ele>780</ele>
        <time>2015-07-11T11:44:05Z</time>
      </trkpt>
      <trkpt lat="43.68875" lon="6.73796">
        <ele>779</ele>
        <time>2015-07-11T11:44:10Z</time>
      </trkpt>
      <trkpt lat="43.68866" lon="6.73802">
        <ele>777</ele>
        <time>2015-07-11T11:44:15Z</time>
      </trkpt>
      <trkpt lat="43.68866" lon="6.73823">
        <ele>775</ele>
        <time>2015-07-11T11:44:20Z</time>
      </trkpt>
      <trkpt lat="43.68854" lon="6.73847">
        <ele>771</ele>
        <time>2015-07-11T11:44:25Z</time>
      </trkpt>
      <trkpt lat="43.68842" lon="6.73854">
        <ele>769</ele>
        <time>2015-07-11T11:44:30Z</time>
      </trkpt>
      <trkpt lat="43.68835" lon="6.73856">
        <ele>766</ele>
        <time>2015-07-11T11:44:35Z</time>
      </trkpt>
      <trkpt lat="43.6883" lon="6.73876">
        <ele>765</ele>
        <time>2015-07-11T11:44:40Z</time>
      </trkpt>
      <trkpt lat="43.6882" lon="6.73897">
        <ele>761</ele>
        <time>2015-07-11T11:44:45Z</time>
      </trkpt>
      <trkpt lat="43.68816" lon="6.73905">
        <ele>760</ele>
        <time>2015-07-11T11:44:47Z</time>
      </trkpt>
      <trkpt lat="43.68808" lon="6.73929">
        <ele>756</ele>
        <time>2015-07-11T11:44:52Z</time>
      </trkpt>
      <trkpt lat="43.688" lon="6.73954">
        <ele>753</ele>
        <time>2015-07-11T11:44:57Z</time>
      </trkpt>
      <trkpt lat="43.68782" lon="6.73957">
        <ele>747</ele>
        <time>2015-07-11T11:45:02Z</time>
      </trkpt>
      <trkpt lat="43.68769" lon="6.73935">
        <ele>743</ele>
        <time>2015-07-11T11:45:07Z</time>
      </trkpt>
      <trkpt lat="43.6876" lon="6.73947">
        <ele>741</ele>
        <time>2015-07-11T11:45:12Z</time>
      </trkpt>
      <trkpt lat="43.68754" lon="6.73979">
        <ele>738</ele>
        <time>2015-07-11T11:45:17Z</time>
      </trkpt>
      <trkpt lat="43.68745" lon="6.74014">
        <ele>736</ele>
        <time>2015-07-11T11:45:22Z</time>
      </trkpt>
      <trkpt lat="43.68735" lon="6.73998">
        <ele>736</ele>
        <time>2015-07-11T11:45:27Z</time>
      </trkpt>
      <trkpt lat="43.68724" lon="6.73991">
        <ele>735</ele>
        <time>2015-07-11T11:45:32Z</time>
      </trkpt>
      <trkpt lat="43.68711" lon="6.74019">
        <ele>733</ele>
        <time>2015-07-11T11:45:37Z</time>
      </trkpt>
      <trkpt lat="43.68709" lon="6.74026">
        <ele>732</ele>
        <time>2015-07-11T11:45:38Z</time>
      </trkpt>
      <trkpt lat="43.68695" lon="6.74054">
        <ele>727</ele>
        <time>2015-07-11T11:45:43Z</time>
      </trkpt>
      <trkpt lat="43.68681" lon="6.74076">
        <ele>723</ele>
        <time>2015-07-11T11:45:48Z</time>
      </trkpt>
      <trkpt lat="43.68668" lon="6.74058">
        <ele>721</ele>
        <time>2015-07-11T11:45:53Z</time>
      </trkpt>
      <trkpt lat="43.68664" lon="6.74039">
        <ele>719</ele>
        <time>2015-07-11T11:45:56Z</time>
      </trkpt>
      <trkpt lat="43.68654" lon="6.74044">
        <ele>716</ele>
        <time>2015-07-11T11:46:01Z</time>
      </trkpt>
      <trkpt lat="43.68641" lon="6.74072">
        <ele>712</ele>
        <time>2015-07-11T11:46:06Z</time>
      </trkpt>
      <trkpt lat="43.68631" lon="6.74067">
        <ele>711</ele>
        <time>2015-07-11T11:46:10Z</time>
      </trkpt>
      <trkpt lat="43.68623" lon="6.74083">
        <ele>710</ele>
        <time>2015-07-11T11:46:16Z</time>
      </trkpt>
      <trkpt lat="43.68614" lon="6.74081">
        <ele>703</ele>
        <time>2015-07-11T11:46:22Z</time>
      </trkpt>
      <trkpt lat="43.68616" lon="6.74086">
        <ele>705</ele>
        <time>2015-07-11T11:46:23Z</time>
      </trkpt>
      <trkpt lat="43.68621" lon="6.74112">
        <ele>702</ele>
        <time>2015-07-11T11:46:28Z</time>
      </trkpt>
      <trkpt lat="43.68626" lon="6.7414">
        <ele>701</ele>
        <time>2015-07-11T11:46:33Z</time>
      </trkpt>
      <trkpt lat="43.68632" lon="6.74145">
        <ele>700</ele>
        <time>2015-07-11T11:46:34Z</time>
      </trkpt>
      <trkpt lat="43.68647" lon="6.74173">
        <ele>700</ele>
        <time>2015-07-11T11:46:39Z</time>
      </trkpt>
      <trkpt lat="43.68652" lon="6.74183">
        <ele>700</ele>
        <time>2015-07-11T11:46:41Z</time>
      </trkpt>
      <trkpt lat="43.68656" lon="6.74209">
        <ele>695</ele>
        <time>2015-07-11T11:46:46Z</time>
      </trkpt>
      <trkpt lat="43.68674" lon="6.74241">
        <ele>695</ele>
        <time>2015-07-11T11:46:51Z</time>
      </trkpt>
      <trkpt lat="43.68681" lon="6.7426">
        <ele>696</ele>
        <time>2015-07-11T11:46:55Z</time>
      </trkpt>
      <trkpt lat="43.68676" lon="6.74282">
        <ele>694</ele>
        <time>2015-07-11T11:47:00Z</time>
      </trkpt>
      <trkpt lat="43.68673" lon="6.7429">
        <ele>693</ele>
        <time>2015-07-11T11:47:02Z</time>
      </trkpt>
      <trkpt lat="43.68664" lon="6.74298">
        <ele>693</ele>
        <time>2015-07-11T11:47:05Z</time>
      </trkpt>
      <trkpt lat="43.68653" lon="6.74292">
        <ele>691</ele>
        <time>2015-07-11T11:47:09Z</time>
      </trkpt>
      <trkpt lat="43.68648" lon="6.74308">
        <ele>685</ele>
        <time>2015-07-11T11:47:14Z</time>
      </trkpt>
      <trkpt lat="43.68634" lon="6.74305">
        <ele>679</ele>
        <time>2015-07-11T11:47:19Z</time>
      </trkpt>
      <trkpt lat="43.68631" lon="6.74313">
        <ele>674</ele>
        <time>2015-07-11T11:47:24Z</time>
      </trkpt>
      <trkpt lat="43.68622" lon="6.74316">
        <ele>671</ele>
        <time>2015-07-11T11:47:30Z</time>
      </trkpt>
      <trkpt lat="43.68613" lon="6.74313">
        <ele>671</ele>
        <time>2015-07-11T11:47:36Z</time>
      </trkpt>
      <trkpt lat="43.68603" lon="6.74301">
        <ele>671</ele>
        <time>2015-07-11T11:47:42Z</time>
      </trkpt>
      <trkpt lat="43.686" lon="6.74301">
        <ele>670</ele>
        <time>2015-07-11T11:47:43Z</time>
      </trkpt>
      <trkpt lat="43.68597" lon="6.74297">
        <ele>670</ele>
        <time>2015-07-11T11:48:03Z</time>
      </trkpt>
      <trkpt lat="43.68592" lon="6.74294">
        <ele>670</ele>
        <time>2015-07-11T11:48:18Z</time>
      </trkpt>
      <trkpt lat="43.68574" lon="6.74285">
        <ele>668</ele>
        <time>2015-07-11T11:48:23Z</time>
      </trkpt>
      <trkpt lat="43.68559" lon="6.7428">
        <ele>669</ele>
        <time>2015-07-11T11:48:28Z</time>
      </trkpt>
      <trkpt lat="43.6854" lon="6.74275">
        <ele>666</ele>
        <time>2015-07-11T11:48:33Z</time>
      </trkpt>
      <trkpt lat="43.68519" lon="6.7427">
        <ele>664</ele>
        <time>2015-07-11T11:48:38Z</time>
      </trkpt>
      <trkpt lat="43.68511" lon="6.7427">
        <ele>661</ele>
        <time>2015-07-11T11:48:52Z</time>
      </trkpt>
      <trkpt lat="43.68509" lon="6.74273">
        <ele>661</ele>
        <time>2015-07-11T11:49:01Z</time>
      </trkpt>
      <trkpt lat="43.68491" lon="6.74277">
        <ele>659</ele>
        <time>2015-07-11T11:49:06Z</time>
      </trkpt>
      <trkpt lat="43.68474" lon="6.74275">
        <ele>655</ele>
        <time>2015-07-11T11:49:11Z</time>
      </trkpt>
      <trkpt lat="43.68455" lon="6.74258">
        <ele>656</ele>
        <time>2015-07-11T11:49:16Z</time>
      </trkpt>
      <trkpt lat="43.68452" lon="6.74263">
        <ele>656</ele>
        <time>2015-07-11T11:49:17Z</time>
      </trkpt>
      <trkpt lat="43.68447" lon="6.74274">
        <ele>651</ele>
        <time>2015-07-11T11:49:23Z</time>
      </trkpt>
      <trkpt lat="43.68456" lon="6.7429">
        <ele>651</ele>
        <time>2015-07-11T11:49:29Z</time>
      </trkpt>
      <trkpt lat="43.68466" lon="6.74304">
        <ele>653</ele>
        <time>2015-07-11T11:49:35Z</time>
      </trkpt>
      <trkpt lat="43.68474" lon="6.74321">
        <ele>652</ele>
        <time>2015-07-11T11:49:41Z</time>
      </trkpt>
      <trkpt lat="43.68484" lon="6.7434">
        <ele>654</ele>
        <time>2015-07-11T11:49:46Z</time>
      </trkpt>
      <trkpt lat="43.68495" lon="6.74363">
        <ele>655</ele>
        <time>2015-07-11T11:49:51Z</time>
      </trkpt>
      <trkpt lat="43.68504" lon="6.74381">
        <ele>654</ele>
        <time>2015-07-11T11:49:57Z</time>
      </trkpt>
      <trkpt lat="43.68511" lon="6.74394">
        <ele>654</ele>
        <time>2015-07-11T11:50:02Z</time>
      </trkpt>
      <trkpt lat="43.68518" lon="6.74414">
        <ele>654</ele>
        <time>2015-07-11T11:50:07Z</time>
      </trkpt>
      <trkpt lat="43.68529" lon="6.74442">
        <ele>651</ele>
        <time>2015-07-11T11:50:12Z</time>
      </trkpt>
      <trkpt lat="43.68548" lon="6.74466">
        <ele>648</ele>
        <time>2015-07-11T11:50:17Z</time>
      </trkpt>
      <trkpt lat="43.6855" lon="6.74477">
        <ele>646</ele>
        <time>2015-07-11T11:50:19Z</time>
      </trkpt>
      <trkpt lat="43.68545" lon="6.74481">
        <ele>645</ele>
        <time>2015-07-11T11:50:21Z</time>
      </trkpt>
      <trkpt lat="43.68522" lon="6.74475">
        <ele>640</ele>
        <time>2015-07-11T11:50:26Z</time>
      </trkpt>
      <trkpt lat="43.68512" lon="6.74487">
        <ele>636</ele>
        <time>2015-07-11T11:50:31Z</time>
      </trkpt>
      <trkpt lat="43.68522" lon="6.74508">
        <ele>631</ele>
        <time>2015-07-11T11:50:36Z</time>
      </trkpt>
      <trkpt lat="43.68494" lon="6.74529">
        <ele>627</ele>
        <time>2015-07-11T11:50:41Z</time>
      </trkpt>
      <trkpt lat="43.6848" lon="6.74537">
        <ele>621</ele>
        <time>2015-07-11T11:50:47Z</time>
      </trkpt>
      <trkpt lat="43.68459" lon="6.7454">
        <ele>618</ele>
        <time>2015-07-11T11:50:52Z</time>
      </trkpt>
      <trkpt lat="43.68445" lon="6.74544">
        <ele>616</ele>
        <time>2015-07-11T11:51:00Z</time>
      </trkpt>
      <trkpt lat="43.68427" lon="6.74548">
        <ele>614</ele>
        <time>2015-07-11T11:51:05Z</time>
      </trkpt>
      <trkpt lat="43.68425" lon="6.74551">
        <ele>614</ele>
        <time>2015-07-11T11:51:10Z</time>
      </trkpt>
      <trkpt lat="43.68421" lon="6.7455">
        <ele>613</ele>
        <time>2015-07-11T11:51:19Z</time>
      </trkpt>
      <trkpt lat="43.68402" lon="6.74549">
        <ele>609</ele>
        <time>2015-07-11T11:51:24Z</time>
      </trkpt>
      <trkpt lat="43.68382" lon="6.74553">
        <ele>610</ele>
        <time>2015-07-11T11:51:29Z</time>
      </trkpt>
      <trkpt lat="43.68379" lon="6.74566">
        <ele>607</ele>
        <time>2015-07-11T11:51:34Z</time>
      </trkpt>
      <trkpt lat="43.68375" lon="6.74571">
        <ele>603</ele>
        <time>2015-07-11T11:51:40Z</time>
      </trkpt>
      <trkpt lat="43.68372" lon="6.7458">
        <ele>693</ele>
        <time>2015-07-11T11:51:44Z</time>
      </trkpt>
      <trkpt lat="43.6837" lon="6.74584">
        <ele>666</ele>
        <time>2015-07-11T11:51:45Z</time>
      </trkpt>
      <trkpt lat="43.68368" lon="6.746">
        <ele>615</ele>
        <time>2015-07-11T11:51:49Z</time>
      </trkpt>
      <trkpt lat="43.68356" lon="6.74625">
        <ele>594</ele>
        <time>2015-07-11T11:51:54Z</time>
      </trkpt>
      <trkpt lat="43.68346" lon="6.74646">
        <ele>588</ele>
        <time>2015-07-11T11:51:59Z</time>
      </trkpt>
      <trkpt lat="43.68338" lon="6.74672">
        <ele>583</ele>
        <time>2015-07-11T11:52:04Z</time>
      </trkpt>
      <trkpt lat="43.68336" lon="6.74677">
        <ele>583</ele>
        <time>2015-07-11T11:52:05Z</time>
      </trkpt>
      <trkpt lat="43.68324" lon="6.74697">
        <ele>577</ele>
        <time>2015-07-11T11:52:10Z</time>
      </trkpt>
      <trkpt lat="43.6831" lon="6.74711">
        <ele>575</ele>
        <time>2015-07-11T11:52:16Z</time>
      </trkpt>
      <trkpt lat="43.68297" lon="6.74721">
        <ele>572</ele>
        <time>2015-07-11T11:52:21Z</time>
      </trkpt>
      <trkpt lat="43.68282" lon="6.74728">
        <ele>569</ele>
        <time>2015-07-11T11:52:26Z</time>
      </trkpt>
      <trkpt lat="43.68265" lon="6.74725">
        <ele>567</ele>
        <time>2015-07-11T11:52:31Z</time>
      </trkpt>
      <trkpt lat="43.68259" lon="6.74713">
        <ele>567</ele>
        <time>2015-07-11T11:52:36Z</time>
      </trkpt>
      <trkpt lat="43.68249" lon="6.74696">
        <ele>566</ele>
        <time>2015-07-11T11:52:41Z</time>
      </trkpt>
      <trkpt lat="43.6824" lon="6.74675">
        <ele>566</ele>
        <time>2015-07-11T11:52:47Z</time>
      </trkpt>
      <trkpt lat="43.68233" lon="6.74671">
        <ele>565</ele>
        <time>2015-07-11T11:53:01Z</time>
      </trkpt>
      <trkpt lat="43.68234" lon="6.74668">
        <ele>563</ele>
        <time>2015-07-11T11:55:19Z</time>
      </trkpt>
      <trkpt lat="43.68236" lon="6.74671">
        <ele>557</ele>
        <time>2015-07-11T11:57:13Z</time>
      </trkpt>
      <trkpt lat="43.68234" lon="6.74667">
        <ele>558</ele>
        <time>2015-07-11T11:57:24Z</time>
      </trkpt>
      <trkpt lat="43.68233" lon="6.74663">
        <ele>558</ele>
        <time>2015-07-11T11:58:09Z</time>
      </trkpt>
      <trkpt lat="43.68225" lon="6.7465">
        <ele>559</ele>
        <time>2015-07-11T11:58:15Z</time>
      </trkpt>
      <trkpt lat="43.68213" lon="6.74641">
        <ele>559</ele>
        <time>2015-07-11T11:58:21Z</time>
      </trkpt>
      <trkpt lat="43.68198" lon="6.7464">
        <ele>559</ele>
        <time>2015-07-11T11:58:26Z</time>
      </trkpt>
      <trkpt lat="43.68184" lon="6.74642">
        <ele>559</ele>
        <time>2015-07-11T11:58:31Z</time>
      </trkpt>
      <trkpt lat="43.68168" lon="6.74645">
        <ele>559</ele>
        <time>2015-07-11T11:58:36Z</time>
      </trkpt>
      <trkpt lat="43.68153" lon="6.74645">
        <ele>559</ele>
        <time>2015-07-11T11:58:41Z</time>
      </trkpt>
      <trkpt lat="43.68142" lon="6.74641">
        <ele>561</ele>
        <time>2015-07-11T11:58:47Z</time>
      </trkpt>
      <trkpt lat="43.68133" lon="6.74636">
        <ele>562</ele>
        <time>2015-07-11T11:58:53Z</time>
      </trkpt>
      <trkpt lat="43.68122" lon="6.74634">
        <ele>563</ele>
        <time>2015-07-11T11:58:59Z</time>
      </trkpt>
      <trkpt lat="43.68111" lon="6.74632">
        <ele>566</ele>
        <time>2015-07-11T11:59:05Z</time>
      </trkpt>
      <trkpt lat="43.68098" lon="6.74626">
        <ele>566</ele>
        <time>2015-07-11T11:59:11Z</time>
      </trkpt>
      <trkpt lat="43.6809" lon="6.74618">
        <ele>568</ele>
        <time>2015-07-11T11:59:17Z</time>
      </trkpt>
      <trkpt lat="43.68085" lon="6.74605">
        <ele>573</ele>
        <time>2015-07-11T11:59:24Z</time>
      </trkpt>
      <trkpt lat="43.6808" lon="6.74596">
        <ele>574</ele>
        <time>2015-07-11T11:59:29Z</time>
      </trkpt>
      <trkpt lat="43.68074" lon="6.74586">
        <ele>575</ele>
        <time>2015-07-11T11:59:35Z</time>
      </trkpt>
      <trkpt lat="43.68065" lon="6.74575">
        <ele>576</ele>
        <time>2015-07-11T11:59:41Z</time>
      </trkpt>
      <trkpt lat="43.68056" lon="6.74564">
        <ele>576</ele>
        <time>2015-07-11T11:59:46Z</time>
      </trkpt>
      <trkpt lat="43.68049" lon="6.74547">
        <ele>577</ele>
        <time>2015-07-11T11:59:52Z</time>
      </trkpt>
      <trkpt lat="43.68042" lon="6.74533">
        <ele>577</ele>
        <time>2015-07-11T11:59:57Z</time>
      </trkpt>
      <trkpt lat="43.68037" lon="6.74517">
        <ele>577</ele>
        <time>2015-07-11T12:00:02Z</time>
      </trkpt>
      <trkpt lat="43.68033" lon="6.74503">
        <ele>579</ele>
        <time>2015-07-11T12:00:08Z</time>
      </trkpt>
      <trkpt lat="43.6803" lon="6.74487">
        <ele>581</ele>
        <time>2015-07-11T12:00:14Z</time>
      </trkpt>
      <trkpt lat="43.68028" lon="6.74471">
        <ele>582</ele>
        <time>2015-07-11T12:00:20Z</time>
      </trkpt>
      <trkpt lat="43.68026" lon="6.74454">
        <ele>582</ele>
        <time>2015-07-11T12:00:26Z</time>
      </trkpt>
      <trkpt lat="43.68022" lon="6.74439">
        <ele>583</ele>
        <time>2015-07-11T12:00:32Z</time>
      </trkpt>
      <trkpt lat="43.68019" lon="6.74424">
        <ele>582</ele>
        <time>2015-07-11T12:00:38Z</time>
      </trkpt>
      <trkpt lat="43.68016" lon="6.74411">
        <ele>583</ele>
        <time>2015-07-11T12:00:45Z</time>
      </trkpt>
      <trkpt lat="43.68016" lon="6.74396">
        <ele>583</ele>
        <time>2015-07-11T12:00:51Z</time>
      </trkpt>
      <trkpt lat="43.68012" lon="6.74377">
        <ele>584</ele>
        <time>2015-07-11T12:00:57Z</time>
      </trkpt>
      <trkpt lat="43.68004" lon="6.74352">
        <ele>584</ele>
        <time>2015-07-11T12:01:02Z</time>
      </trkpt>
      <trkpt lat="43.67986" lon="6.74346">
        <ele>583</ele>
        <time>2015-07-11T12:01:07Z</time>
      </trkpt>
      <trkpt lat="43.6798" lon="6.74352">
        <ele>584</ele>
        <time>2015-07-11T12:01:12Z</time>
      </trkpt>
      <trkpt lat="43.67975" lon="6.74361">
        <ele>585</ele>
        <time>2015-07-11T12:01:17Z</time>
      </trkpt>
      <trkpt lat="43.67964" lon="6.74372">
        <ele>585</ele>
        <time>2015-07-11T12:01:23Z</time>
      </trkpt>
      <trkpt lat="43.67955" lon="6.74382">
        <ele>582</ele>
        <time>2015-07-11T12:01:29Z</time>
      </trkpt>
      <trkpt lat="43.67946" lon="6.74393">
        <ele>583</ele>
        <time>2015-07-11T12:01:34Z</time>
      </trkpt>
      <trkpt lat="43.67928" lon="6.74407">
        <ele>582</ele>
        <time>2015-07-11T12:01:39Z</time>
      </trkpt>
      <trkpt lat="43.67904" lon="6.74414">
        <ele>580</ele>
        <time>2015-07-11T12:01:44Z</time>
      </trkpt>
      <trkpt lat="43.6788" lon="6.74416">
        <ele>580</ele>
        <time>2015-07-11T12:01:49Z</time>
      </trkpt>
      <trkpt lat="43.67846" lon="6.74422">
        <ele>579</ele>
        <time>2015-07-11T12:01:54Z</time>
      </trkpt>
      <trkpt lat="43.67827" lon="6.74416">
        <ele>580</ele>
        <time>2015-07-11T12:01:59Z</time>
      </trkpt>
      <trkpt lat="43.67817" lon="6.74406">
        <ele>582</ele>
        <time>2015-07-11T12:02:04Z</time>
      </trkpt>
      <trkpt lat="43.67804" lon="6.74397">
        <ele>584</ele>
        <time>2015-07-11T12:02:09Z</time>
      </trkpt>
      <trkpt lat="43.67797" lon="6.7439">
        <ele>584</ele>
        <time>2015-07-11T12:02:12Z</time>
      </trkpt>
      <trkpt lat="43.67785" lon="6.74379">
        <ele>583</ele>
        <time>2015-07-11T12:02:17Z</time>
      </trkpt>
      <trkpt lat="43.67774" lon="6.74369">
        <ele>583</ele>
        <time>2015-07-11T12:02:22Z</time>
      </trkpt>
      <trkpt lat="43.67761" lon="6.74362">
        <ele>581</ele>
        <time>2015-07-11T12:02:27Z</time>
      </trkpt>
      <trkpt lat="43.67746" lon="6.74352">
        <ele>579</ele>
        <time>2015-07-11T12:02:32Z</time>
      </trkpt>
      <trkpt lat="43.67729" lon="6.74337">
        <ele>577</ele>
        <time>2015-07-11T12:02:37Z</time>
      </trkpt>
      <trkpt lat="43.67717" lon="6.74322">
        <ele>576</ele>
        <time>2015-07-11T12:02:40Z</time>
      </trkpt>
      <trkpt lat="43.67703" lon="6.74295">
        <ele>576</ele>
        <time>2015-07-11T12:02:45Z</time>
      </trkpt>
      <trkpt lat="43.67688" lon="6.74278">
        <ele>576</ele>
        <time>2015-07-11T12:02:50Z</time>
      </trkpt>
      <trkpt lat="43.67678" lon="6.7426">
        <ele>575</ele>
        <time>2015-07-11T12:02:55Z</time>
      </trkpt>
      <trkpt lat="43.67687" lon="6.74246">
        <ele>577</ele>
        <time>2015-07-11T12:03:00Z</time>
      </trkpt>
      <trkpt lat="43.67699" lon="6.74237">
        <ele>578</ele>
        <time>2015-07-11T12:03:05Z</time>
      </trkpt>
      <trkpt lat="43.67713" lon="6.7423">
        <ele>579</ele>
        <time>2015-07-11T12:03:10Z</time>
      </trkpt>
      <trkpt lat="43.67728" lon="6.74225">
        <ele>580</ele>
        <time>2015-07-11T12:03:15Z</time>
      </trkpt>
      <trkpt lat="43.67731" lon="6.74206">
        <ele>581</ele>
        <time>2015-07-11T12:03:20Z</time>
      </trkpt>
      <trkpt lat="43.67728" lon="6.74187">
        <ele>582</ele>
        <time>2015-07-11T12:03:25Z</time>
      </trkpt>
      <trkpt lat="43.67722" lon="6.74167">
        <ele>582</ele>
        <time>2015-07-11T12:03:30Z</time>
      </trkpt>
      <trkpt lat="43.67718" lon="6.74148">
        <ele>583</ele>
        <time>2015-07-11T12:03:35Z</time>
      </trkpt>
      <trkpt lat="43.67718" lon="6.74131">
        <ele>584</ele>
        <time>2015-07-11T12:03:40Z</time>
      </trkpt>
      <trkpt lat="43.67718" lon="6.74113">
        <ele>584</ele>
        <time>2015-07-11T12:03:46Z</time>
      </trkpt>
      <trkpt lat="43.67717" lon="6.74095">
        <ele>585</ele>
        <time>2015-07-11T12:03:52Z</time>
      </trkpt>
      <trkpt lat="43.67716" lon="6.7408">
        <ele>585</ele>
        <time>2015-07-11T12:03:57Z</time>
      </trkpt>
      <trkpt lat="43.67716" lon="6.74064">
        <ele>587</ele>
        <time>2015-07-11T12:04:03Z</time>
      </trkpt>
      <trkpt lat="43.67716" lon="6.74049">
        <ele>588</ele>
        <time>2015-07-11T12:04:09Z</time>
      </trkpt>
      <trkpt lat="43.67717" lon="6.74034">
        <ele>589</ele>
        <time>2015-07-11T12:04:15Z</time>
      </trkpt>
      <trkpt lat="43.67719" lon="6.7402">
        <ele>591</ele>
        <time>2015-07-11T12:04:21Z</time>
      </trkpt>
      <trkpt lat="43.6772" lon="6.74007">
        <ele>592</ele>
        <time>2015-07-11T12:04:27Z</time>
      </trkpt>
      <trkpt lat="43.67723" lon="6.73995">
        <ele>594</ele>
        <time>2015-07-11T12:04:33Z</time>
      </trkpt>
      <trkpt lat="43.67726" lon="6.73982">
        <ele>595</ele>
        <time>2015-07-11T12:04:39Z</time>
      </trkpt>
      <trkpt lat="43.6773" lon="6.73969">
        <ele>597</ele>
        <time>2015-07-11T12:04:45Z</time>
      </trkpt>
      <trkpt lat="43.67734" lon="6.73956">
        <ele>597</ele>
        <time>2015-07-11T12:04:51Z</time>
      </trkpt>
      <trkpt lat="43.67739" lon="6.73946">
        <ele>599</ele>
        <time>2015-07-11T12:04:57Z</time>
      </trkpt>
      <trkpt lat="43.67742" lon="6.73938">
        <ele>601</ele>
        <time>2015-07-11T12:05:03Z</time>
      </trkpt>
      <trkpt lat="43.67744" lon="6.7393">
        <ele>602</ele>
        <time>2015-07-11T12:05:09Z</time>
      </trkpt>
      <trkpt lat="43.67744" lon="6.7392">
        <ele>605</ele>
        <time>2015-07-11T12:05:15Z</time>
      </trkpt>
      <trkpt lat="43.67745" lon="6.73911">
        <ele>606</ele>
        <time>2015-07-11T12:05:21Z</time>
      </trkpt>
      <trkpt lat="43.67748" lon="6.73903">
        <ele>606</ele>
        <time>2015-07-11T12:05:26Z</time>
      </trkpt>
      <trkpt lat="43.67753" lon="6.73896">
        <ele>606</ele>
        <time>2015-07-11T12:05:31Z</time>
      </trkpt>
      <trkpt lat="43.67758" lon="6.7389">
        <ele>608</ele>
        <time>2015-07-11T12:05:36Z</time>
      </trkpt>
      <trkpt lat="43.67763" lon="6.73884">
        <ele>608</ele>
        <time>2015-07-11T12:05:41Z</time>
      </trkpt>
      <trkpt lat="43.67768" lon="6.73879">
        <ele>608</ele>
        <time>2015-07-11T12:05:46Z</time>
      </trkpt>
      <trkpt lat="43.67774" lon="6.73874">
        <ele>610</ele>
        <time>2015-07-11T12:05:52Z</time>
      </trkpt>
      <trkpt lat="43.6778" lon="6.73865">
        <ele>611</ele>
        <time>2015-07-11T12:05:58Z</time>
      </trkpt>
      <trkpt lat="43.67789" lon="6.7386">
        <ele>609</ele>
        <time>2015-07-11T12:06:04Z</time>
      </trkpt>
      <trkpt lat="43.67794" lon="6.73851">
        <ele>607</ele>
        <time>2015-07-11T12:06:10Z</time>
      </trkpt>
      <trkpt lat="43.67799" lon="6.73845">
        <ele>610</ele>
        <time>2015-07-11T12:06:16Z</time>
      </trkpt>
      <trkpt lat="43.67801" lon="6.73836">
        <ele>613</ele>
        <time>2015-07-11T12:06:22Z</time>
      </trkpt>
      <trkpt lat="43.678" lon="6.73827">
        <ele>615</ele>
        <time>2015-07-11T12:06:27Z</time>
      </trkpt>
      <trkpt lat="43.67803" lon="6.73819">
        <ele>616</ele>
        <time>2015-07-11T12:06:32Z</time>
      </trkpt>
      <trkpt lat="43.67806" lon="6.73812">
        <ele>617</ele>
        <time>2015-07-11T12:06:38Z</time>
      </trkpt>
      <trkpt lat="43.67805" lon="6.73803">
        <ele>617</ele>
        <time>2015-07-11T12:06:44Z</time>
      </trkpt>
      <trkpt lat="43.67805" lon="6.73795">
        <ele>619</ele>
        <time>2015-07-11T12:06:49Z</time>
      </trkpt>
      <trkpt lat="43.6781" lon="6.7379">
        <ele>619</ele>
        <time>2015-07-11T12:06:54Z</time>
      </trkpt>
      <trkpt lat="43.67811" lon="6.73786">
        <ele>620</ele>
        <time>2015-07-11T12:06:59Z</time>
      </trkpt>
      <trkpt lat="43.67814" lon="6.73782">
        <ele>621</ele>
        <time>2015-07-11T12:07:04Z</time>
      </trkpt>
      <trkpt lat="43.6782" lon="6.73778">
        <ele>624</ele>
        <time>2015-07-11T12:07:10Z</time>
      </trkpt>
      <trkpt lat="43.67824" lon="6.73775">
        <ele>625</ele>
        <time>2015-07-11T12:07:15Z</time>
      </trkpt>
      <trkpt lat="43.67829" lon="6.73771">
        <ele>625</ele>
        <time>2015-07-11T12:07:20Z</time>
      </trkpt>
      <trkpt lat="43.67836" lon="6.73761">
        <ele>627</ele>
        <time>2015-07-11T12:07:28Z</time>
      </trkpt>
      <trkpt lat="43.67841" lon="6.73758">
        <ele>627</ele>
        <time>2015-07-11T12:07:33Z</time>
      </trkpt>
      <trkpt lat="43.67848" lon="6.73749">
        <ele>626</ele>
        <time>2015-07-11T12:07:40Z</time>
      </trkpt>
      <trkpt lat="43.67853" lon="6.73739">
        <ele>628</ele>
        <time>2015-07-11T12:07:47Z</time>
      </trkpt>
      <trkpt lat="43.67859" lon="6.73736">
        <ele>629</ele>
        <time>2015-07-11T12:07:53Z</time>
      </trkpt>
      <trkpt lat="43.67863" lon="6.73731">
        <ele>630</ele>
        <time>2015-07-11T12:07:58Z</time>
      </trkpt>
      <trkpt lat="43.67868" lon="6.73725">
        <ele>632</ele>
        <time>2015-07-11T12:08:04Z</time>
      </trkpt>
      <trkpt lat="43.67873" lon="6.7372">
        <ele>635</ele>
        <time>2015-07-11T12:08:11Z</time>
      </trkpt>
      <trkpt lat="43.6788" lon="6.73713">
        <ele>635</ele>
        <time>2015-07-11T12:08:16Z</time>
      </trkpt>
      <trkpt lat="43.67886" lon="6.73708">
        <ele>635</ele>
        <time>2015-07-11T12:08:21Z</time>
      </trkpt>
      <trkpt lat="43.67893" lon="6.73704">
        <ele>635</ele>
        <time>2015-07-11T12:08:27Z</time>
      </trkpt>
      <trkpt lat="43.67896" lon="6.73697">
        <ele>635</ele>
        <time>2015-07-11T12:08:33Z</time>
      </trkpt>
      <trkpt lat="43.67901" lon="6.73691">
        <ele>635</ele>
        <time>2015-07-11T12:08:39Z</time>
      </trkpt>
      <trkpt lat="43.67904" lon="6.73685">
        <ele>636</ele>
        <time>2015-07-11T12:08:45Z</time>
      </trkpt>
      <trkpt lat="43.67911" lon="6.73675">
        <ele>635</ele>
        <time>2015-07-11T12:08:52Z</time>
      </trkpt>
      <trkpt lat="43.67912" lon="6.7367">
        <ele>634</ele>
        <time>2015-07-11T12:08:54Z</time>
      </trkpt>
      <trkpt lat="43.67917" lon="6.73664">
        <ele>635</ele>
        <time>2015-07-11T12:09:01Z</time>
      </trkpt>
      <trkpt lat="43.67921" lon="6.73657">
        <ele>635</ele>
        <time>2015-07-11T12:09:07Z</time>
      </trkpt>
      <trkpt lat="43.67925" lon="6.73649">
        <ele>635</ele>
        <time>2015-07-11T12:09:12Z</time>
      </trkpt>
      <trkpt lat="43.6793" lon="6.73641">
        <ele>635</ele>
        <time>2015-07-11T12:09:18Z</time>
      </trkpt>
      <trkpt lat="43.67935" lon="6.73635">
        <ele>635</ele>
        <time>2015-07-11T12:09:23Z</time>
      </trkpt>
      <trkpt lat="43.6794" lon="6.73631">
        <ele>640</ele>
        <time>2015-07-11T12:09:29Z</time>
      </trkpt>
      <trkpt lat="43.67945" lon="6.73628">
        <ele>641</ele>
        <time>2015-07-11T12:09:34Z</time>
      </trkpt>
      <trkpt lat="43.67946" lon="6.73619">
        <ele>643</ele>
        <time>2015-07-11T12:09:40Z</time>
      </trkpt>
      <trkpt lat="43.67949" lon="6.73611">
        <ele>644</ele>
        <time>2015-07-11T12:09:46Z</time>
      </trkpt>
      <trkpt lat="43.67954" lon="6.73602">
        <ele>645</ele>
        <time>2015-07-11T12:09:53Z</time>
      </trkpt>
      <trkpt lat="43.67957" lon="6.73593">
        <ele>645</ele>
        <time>2015-07-11T12:09:59Z</time>
      </trkpt>
      <trkpt lat="43.67961" lon="6.73586">
        <ele>646</ele>
        <time>2015-07-11T12:10:05Z</time>
      </trkpt>
      <trkpt lat="43.67965" lon="6.73579">
        <ele>646</ele>
        <time>2015-07-11T12:10:10Z</time>
      </trkpt>
      <trkpt lat="43.67972" lon="6.73576">
        <ele>650</ele>
        <time>2015-07-11T12:10:16Z</time>
      </trkpt>
      <trkpt lat="43.67978" lon="6.73571">
        <ele>651</ele>
        <time>2015-07-11T12:10:22Z</time>
      </trkpt>
      <trkpt lat="43.67982" lon="6.73565">
        <ele>653</ele>
        <time>2015-07-11T12:10:28Z</time>
      </trkpt>
      <trkpt lat="43.67988" lon="6.73559">
        <ele>654</ele>
        <time>2015-07-11T12:10:34Z</time>
      </trkpt>
      <trkpt lat="43.6799" lon="6.73551">
        <ele>655</ele>
        <time>2015-07-11T12:10:40Z</time>
      </trkpt>
      <trkpt lat="43.67991" lon="6.73543">
        <ele>655</ele>
        <time>2015-07-11T12:10:46Z</time>
      </trkpt>
      <trkpt lat="43.67992" lon="6.73535">
        <ele>657</ele>
        <time>2015-07-11T12:10:52Z</time>
      </trkpt>
      <trkpt lat="43.67996" lon="6.73527">
        <ele>657</ele>
        <time>2015-07-11T12:10:58Z</time>
      </trkpt>
      <trkpt lat="43.68002" lon="6.73521">
        <ele>658</ele>
        <time>2015-07-11T12:11:04Z</time>
      </trkpt>
      <trkpt lat="43.68003" lon="6.73517">
        <ele>659</ele>
        <time>2015-07-11T12:11:06Z</time>
      </trkpt>
      <trkpt lat="43.68009" lon="6.73514">
        <ele>658</ele>
        <time>2015-07-11T12:11:11Z</time>
      </trkpt>
      <trkpt lat="43.68012" lon="6.73507">
        <ele>659</ele>
        <time>2015-07-11T12:11:17Z</time>
      </trkpt>
      <trkpt lat="43.68017" lon="6.73502">
        <ele>659</ele>
        <time>2015-07-11T12:11:23Z</time>
      </trkpt>
      <trkpt lat="43.6802" lon="6.73494">
        <ele>661</ele>
        <time>2015-07-11T12:11:29Z</time>
      </trkpt>
      <trkpt lat="43.68026" lon="6.73488">
        <ele>663</ele>
        <time>2015-07-11T12:11:35Z</time>
      </trkpt>
      <trkpt lat="43.68033" lon="6.73483">
        <ele>665</ele>
        <time>2015-07-11T12:11:41Z</time>
      </trkpt>
      <trkpt lat="43.68039" lon="6.73474">
        <ele>665</ele>
        <time>2015-07-11T12:11:47Z</time>
      </trkpt>
      <trkpt lat="43.68045" lon="6.73464">
        <ele>666</ele>
        <time>2015-07-11T12:11:54Z</time>
      </trkpt>
      <trkpt lat="43.6805" lon="6.73453">
        <ele>667</ele>
        <time>2015-07-11T12:12:00Z</time>
      </trkpt>
      <trkpt lat="43.68056" lon="6.73442">
        <ele>666</ele>
        <time>2015-07-11T12:12:06Z</time>
      </trkpt>
      <trkpt lat="43.68065" lon="6.73428">
        <ele>667</ele>
        <time>2015-07-11T12:12:11Z</time>
      </trkpt>
      <trkpt lat="43.68067" lon="6.73423">
        <ele>667</ele>
        <time>2015-07-11T12:12:23Z</time>
      </trkpt>
      <trkpt lat="43.68071" lon="6.7342">
        <ele>670</ele>
        <time>2015-07-11T12:12:25Z</time>
      </trkpt>
      <trkpt lat="43.68073" lon="6.73412">
        <ele>670</ele>
        <time>2015-07-11T12:12:38Z</time>
      </trkpt>
      <trkpt lat="43.68072" lon="6.73409">
        <ele>670</ele>
        <time>2015-07-11T12:12:59Z</time>
      </trkpt>
      <trkpt lat="43.68072" lon="6.73405">
        <ele>670</ele>
        <time>2015-07-11T12:15:44Z</time>
      </trkpt>
      <trkpt lat="43.68072" lon="6.734">
        <ele>671</ele>
        <time>2015-07-11T12:15:49Z</time>
      </trkpt>
      <trkpt lat="43.68071" lon="6.73392">
        <ele>672</ele>
        <time>2015-07-11T12:15:55Z</time>
      </trkpt>
      <trkpt lat="43.68071" lon="6.73387">
        <ele>672</ele>
        <time>2015-07-11T12:15:58Z</time>
      </trkpt>
      <trkpt lat="43.68074" lon="6.7338">
        <ele>674</ele>
        <time>2015-07-11T12:16:04Z</time>
      </trkpt>
      <trkpt lat="43.68076" lon="6.7337">
        <ele>674</ele>
        <time>2015-07-11T12:16:11Z</time>
      </trkpt>
      <trkpt lat="43.68078" lon="6.73361">
        <ele>675</ele>
        <time>2015-07-11T12:16:19Z</time>
      </trkpt>
      <trkpt lat="43.68077" lon="6.73356">
        <ele>675</ele>
        <time>2015-07-11T12:16:21Z</time>
      </trkpt>
      <trkpt lat="43.68077" lon="6.73344">
        <ele>674</ele>
        <time>2015-07-11T12:16:28Z</time>
      </trkpt>
      <trkpt lat="43.68076" lon="6.73334">
        <ele>674</ele>
        <time>2015-07-11T12:16:34Z</time>
      </trkpt>
      <trkpt lat="43.68075" lon="6.73322">
        <ele>675</ele>
        <time>2015-07-11T12:16:41Z</time>
      </trkpt>
      <trkpt lat="43.68077" lon="6.73312">
        <ele>676</ele>
        <time>2015-07-11T12:16:47Z</time>
      </trkpt>
      <trkpt lat="43.68079" lon="6.73303">
        <ele>675</ele>
        <time>2015-07-11T12:16:52Z</time>
      </trkpt>
      <trkpt lat="43.68082" lon="6.73293">
        <ele>675</ele>
        <time>2015-07-11T12:16:57Z</time>
      </trkpt>
      <trkpt lat="43.68084" lon="6.73289">
        <ele>678</ele>
        <time>2015-07-11T12:17:01Z</time>
      </trkpt>
      <trkpt lat="43.68088" lon="6.73281">
        <ele>680</ele>
        <time>2015-07-11T12:17:08Z</time>
      </trkpt>
      <trkpt lat="43.6809" lon="6.73273">
        <ele>682</ele>
        <time>2015-07-11T12:17:14Z</time>
      </trkpt>
      <trkpt lat="43.68092" lon="6.73264">
        <ele>685</ele>
        <time>2015-07-11T12:17:30Z</time>
      </trkpt>
      <trkpt lat="43.68093" lon="6.73259">
        <ele>687</ele>
        <time>2015-07-11T12:17:33Z</time>
      </trkpt>
      <trkpt lat="43.68093" lon="6.73253">
        <ele>686</ele>
        <time>2015-07-11T12:17:35Z</time>
      </trkpt>
      <trkpt lat="43.68093" lon="6.73243">
        <ele>682</ele>
        <time>2015-07-11T12:17:39Z</time>
      </trkpt>
      <trkpt lat="43.68096" lon="6.73241">
        <ele>680</ele>
        <time>2015-07-11T12:17:51Z</time>
      </trkpt>
      <trkpt lat="43.68096" lon="6.73237">
        <ele>682</ele>
        <time>2015-07-11T12:18:12Z</time>
      </trkpt>
      <trkpt lat="43.68099" lon="6.73227">
        <ele>678</ele>
        <time>2015-07-11T12:18:19Z</time>
      </trkpt>
      <trkpt lat="43.681" lon="6.73224">
        <ele>680</ele>
        <time>2015-07-11T12:18:21Z</time>
      </trkpt>
      <trkpt lat="43.68103" lon="6.73214">
        <ele>683</ele>
        <time>2015-07-11T12:18:28Z</time>
      </trkpt>
      <trkpt lat="43.68106" lon="6.73204">
        <ele>684</ele>
        <time>2015-07-11T12:18:34Z</time>
      </trkpt>
      <trkpt lat="43.68111" lon="6.73198">
        <ele>685</ele>
        <time>2015-07-11T12:18:40Z</time>
      </trkpt>
      <trkpt lat="43.68118" lon="6.73194">
        <ele>687</ele>
        <time>2015-07-11T12:18:46Z</time>
      </trkpt>
      <trkpt lat="43.68124" lon="6.73188">
        <ele>689</ele>
        <time>2015-07-11T12:18:55Z</time>
      </trkpt>
      <trkpt lat="43.68127" lon="6.73185">
        <ele>689</ele>
        <time>2015-07-11T12:18:56Z</time>
      </trkpt>
      <trkpt lat="43.68127" lon="6.73176">
        <ele>686</ele>
        <time>2015-07-11T12:19:17Z</time>
      </trkpt>
      <trkpt lat="43.6813" lon="6.73174">
        <ele>687</ele>
        <time>2015-07-11T12:19:27Z</time>
      </trkpt>
      <trkpt lat="43.68134" lon="6.73165">
        <ele>687</ele>
        <time>2015-07-11T12:19:33Z</time>
      </trkpt>
      <trkpt lat="43.6814" lon="6.73162">
        <ele>685</ele>
        <time>2015-07-11T12:19:39Z</time>
      </trkpt>
      <trkpt lat="43.68137" lon="6.73133">
        <ele>679</ele>
        <time>2015-07-11T12:19:56Z</time>
      </trkpt>
      <trkpt lat="43.68131" lon="6.73119">
        <ele>678</ele>
        <time>2015-07-11T12:19:59Z</time>
      </trkpt>
      <trkpt lat="43.68128" lon="6.7311">
        <ele>680</ele>
        <time>2015-07-11T12:20:01Z</time>
      </trkpt>
      <trkpt lat="43.68123" lon="6.73088">
        <ele>682</ele>
        <time>2015-07-11T12:20:06Z</time>
      </trkpt>
      <trkpt lat="43.68115" lon="6.73068">
        <ele>686</ele>
        <time>2015-07-11T12:20:11Z</time>
      </trkpt>
      <trkpt lat="43.68109" lon="6.73048">
        <ele>686</ele>
        <time>2015-07-11T12:20:16Z</time>
      </trkpt>
      <trkpt lat="43.68102" lon="6.7303">
        <ele>686</ele>
        <time>2015-07-11T12:20:21Z</time>
      </trkpt>
      <trkpt lat="43.68095" lon="6.7301">
        <ele>687</ele>
        <time>2015-07-11T12:20:26Z</time>
      </trkpt>
      <trkpt lat="43.68086" lon="6.72987">
        <ele>688</ele>
        <time>2015-07-11T12:20:32Z</time>
      </trkpt>
      <trkpt lat="43.68083" lon="6.72966">
        <ele>687</ele>
        <time>2015-07-11T12:20:37Z</time>
      </trkpt>
      <trkpt lat="43.6808" lon="6.72942">
        <ele>687</ele>
        <time>2015-07-11T12:20:42Z</time>
      </trkpt>
      <trkpt lat="43.68078" lon="6.72916">
        <ele>688</ele>
        <time>2015-07-11T12:20:47Z</time>
      </trkpt>
      <trkpt lat="43.68077" lon="6.72892">
        <ele>688</ele>
        <time>2015-07-11T12:20:52Z</time>
      </trkpt>
      <trkpt lat="43.68079" lon="6.72865">
        <ele>687</ele>
        <time>2015-07-11T12:20:57Z</time>
      </trkpt>
      <trkpt lat="43.68083" lon="6.72842">
        <ele>688</ele>
        <time>2015-07-11T12:21:02Z</time>
      </trkpt>
      <trkpt lat="43.68085" lon="6.72822">
        <ele>689</ele>
        <time>2015-07-11T12:21:07Z</time>
      </trkpt>
      <trkpt lat="43.68087" lon="6.72805">
        <ele>690</ele>
        <time>2015-07-11T12:21:13Z</time>
      </trkpt>
      <trkpt lat="43.68092" lon="6.72785">
        <ele>689</ele>
        <time>2015-07-11T12:21:18Z</time>
      </trkpt>
      <trkpt lat="43.68103" lon="6.72772">
        <ele>690</ele>
        <time>2015-07-11T12:21:24Z</time>
      </trkpt>
      <trkpt lat="43.68163" lon="6.7275">
        <ele>691</ele>
        <time>2015-07-11T12:21:53Z</time>
      </trkpt>
      <trkpt lat="43.68166" lon="6.72744">
        <ele>692</ele>
        <time>2015-07-11T12:21:55Z</time>
      </trkpt>
      <trkpt lat="43.68167" lon="6.72736">
        <ele>696</ele>
        <time>2015-07-11T12:21:58Z</time>
      </trkpt>
      <trkpt lat="43.68176" lon="6.72725">
        <ele>696</ele>
        <time>2015-07-11T12:22:04Z</time>
      </trkpt>
      <trkpt lat="43.68186" lon="6.72716">
        <ele>698</ele>
        <time>2015-07-11T12:22:10Z</time>
      </trkpt>
      <trkpt lat="43.68197" lon="6.72708">
        <ele>700</ele>
        <time>2015-07-11T12:22:16Z</time>
      </trkpt>
      <trkpt lat="43.68208" lon="6.72706">
        <ele>701</ele>
        <time>2015-07-11T12:22:22Z</time>
      </trkpt>
      <trkpt lat="43.68216" lon="6.72715">
        <ele>702</ele>
        <time>2015-07-11T12:22:28Z</time>
      </trkpt>
      <trkpt lat="43.68219" lon="6.72729">
        <ele>703</ele>
        <time>2015-07-11T12:22:34Z</time>
      </trkpt>
      <trkpt lat="43.68219" lon="6.72744">
        <ele>704</ele>
        <time>2015-07-11T12:22:40Z</time>
      </trkpt>
      <trkpt lat="43.68217" lon="6.72759">
        <ele>704</ele>
        <time>2015-07-11T12:22:46Z</time>
      </trkpt>
      <trkpt lat="43.68218" lon="6.72774">
        <ele>705</ele>
        <time>2015-07-11T12:22:52Z</time>
      </trkpt>
      <trkpt lat="43.68219" lon="6.72785">
        <ele>705</ele>
        <time>2015-07-11T12:22:57Z</time>
      </trkpt>
      <trkpt lat="43.68221" lon="6.72797">
        <ele>706</ele>
        <time>2015-07-11T12:23:02Z</time>
      </trkpt>
      <trkpt lat="43.68222" lon="6.72802">
        <ele>707</ele>
        <time>2015-07-11T12:23:04Z</time>
      </trkpt>
      <trkpt lat="43.68223" lon="6.72808">
        <ele>707</ele>
        <time>2015-07-11T12:23:06Z</time>
      </trkpt>
      <trkpt lat="43.68226" lon="6.72823">
        <ele>710</ele>
        <time>2015-07-11T12:23:12Z</time>
      </trkpt>
      <trkpt lat="43.68229" lon="6.72838">
        <ele>710</ele>
        <time>2015-07-11T12:23:18Z</time>
      </trkpt>
      <trkpt lat="43.68234" lon="6.72854">
        <ele>710</ele>
        <time>2015-07-11T12:23:24Z</time>
      </trkpt>
      <trkpt lat="43.68239" lon="6.72869">
        <ele>709</ele>
        <time>2015-07-11T12:23:30Z</time>
      </trkpt>
      <trkpt lat="43.68245" lon="6.72883">
        <ele>711</ele>
        <time>2015-07-11T12:23:36Z</time>
      </trkpt>
      <trkpt lat="43.68285" lon="6.72963">
        <ele>717</ele>
        <time>2015-07-11T12:24:10Z</time>
      </trkpt>
      <trkpt lat="43.68288" lon="6.7297">
        <ele>715</ele>
        <time>2015-07-11T12:24:14Z</time>
      </trkpt>
      <trkpt lat="43.68293" lon="6.72985">
        <ele>716</ele>
        <time>2015-07-11T12:24:20Z</time>
      </trkpt>
      <trkpt lat="43.68296" lon="6.72999">
        <ele>716</ele>
        <time>2015-07-11T12:24:26Z</time>
      </trkpt>
      <trkpt lat="43.68298" lon="6.73013">
        <ele>719</ele>
        <time>2015-07-11T12:24:32Z</time>
      </trkpt>
      <trkpt lat="43.683" lon="6.73029">
        <ele>720</ele>
        <time>2015-07-11T12:24:38Z</time>
      </trkpt>
      <trkpt lat="43.68302" lon="6.73045">
        <ele>722</ele>
        <time>2015-07-11T12:24:44Z</time>
      </trkpt>
      <trkpt lat="43.68305" lon="6.73061">
        <ele>722</ele>
        <time>2015-07-11T12:24:50Z</time>
      </trkpt>
      <trkpt lat="43.6831" lon="6.73076">
        <ele>724</ele>
        <time>2015-07-11T12:24:56Z</time>
      </trkpt>
      <trkpt lat="43.68316" lon="6.7309">
        <ele>723</ele>
        <time>2015-07-11T12:25:02Z</time>
      </trkpt>
      <trkpt lat="43.68321" lon="6.73104">
        <ele>723</ele>
        <time>2015-07-11T12:25:08Z</time>
      </trkpt>
      <trkpt lat="43.68326" lon="6.73118">
        <ele>724</ele>
        <time>2015-07-11T12:25:14Z</time>
      </trkpt>
      <trkpt lat="43.6833" lon="6.73132">
        <ele>725</ele>
        <time>2015-07-11T12:25:20Z</time>
      </trkpt>
      <trkpt lat="43.68336" lon="6.73146">
        <ele>725</ele>
        <time>2015-07-11T12:25:26Z</time>
      </trkpt>
      <trkpt lat="43.68341" lon="6.7316">
        <ele>726</ele>
        <time>2015-07-11T12:25:32Z</time>
      </trkpt>
      <trkpt lat="43.68346" lon="6.73174">
        <ele>726</ele>
        <time>2015-07-11T12:25:38Z</time>
      </trkpt>
      <trkpt lat="43.68352" lon="6.73186">
        <ele>728</ele>
        <time>2015-07-11T12:25:44Z</time>
      </trkpt>
      <trkpt lat="43.68358" lon="6.73199">
        <ele>729</ele>
        <time>2015-07-11T12:25:50Z</time>
      </trkpt>
      <trkpt lat="43.68364" lon="6.73212">
        <ele>730</ele>
        <time>2015-07-11T12:25:56Z</time>
      </trkpt>
      <trkpt lat="43.6837" lon="6.73225">
        <ele>730</ele>
        <time>2015-07-11T12:26:02Z</time>
      </trkpt>
      <trkpt lat="43.68376" lon="6.73235">
        <ele>733</ele>
        <time>2015-07-11T12:26:08Z</time>
      </trkpt>
      <trkpt lat="43.68382" lon="6.73246">
        <ele>733</ele>
        <time>2015-07-11T12:26:14Z</time>
      </trkpt>
      <trkpt lat="43.68388" lon="6.73257">
        <ele>734</ele>
        <time>2015-07-11T12:26:20Z</time>
      </trkpt>
      <trkpt lat="43.68394" lon="6.73267">
        <ele>736</ele>
        <time>2015-07-11T12:26:26Z</time>
      </trkpt>
      <trkpt lat="43.684" lon="6.73275">
        <ele>738</ele>
        <time>2015-07-11T12:26:32Z</time>
      </trkpt>
      <trkpt lat="43.6841" lon="6.73275">
        <ele>738</ele>
        <time>2015-07-11T12:26:38Z</time>
      </trkpt>
      <trkpt lat="43.68413" lon="6.73265">
        <ele>738</ele>
        <time>2015-07-11T12:26:44Z</time>
      </trkpt>
      <trkpt lat="43.68413" lon="6.73254">
        <ele>738</ele>
        <time>2015-07-11T12:26:50Z</time>
      </trkpt>
      <trkpt lat="43.68413" lon="6.7324">
        <ele>738</ele>
        <time>2015-07-11T12:26:56Z</time>
      </trkpt>
      <trkpt lat="43.68414" lon="6.73226">
        <ele>739</ele>
        <time>2015-07-11T12:27:02Z</time>
      </trkpt>
      <trkpt lat="43.68414" lon="6.73213">
        <ele>740</ele>
        <time>2015-07-11T12:27:08Z</time>
      </trkpt>
      <trkpt lat="43.68412" lon="6.73199">
        <ele>741</ele>
        <time>2015-07-11T12:27:14Z</time>
      </trkpt>
      <trkpt lat="43.68409" lon="6.73184">
        <ele>743</ele>
        <time>2015-07-11T12:27:20Z</time>
      </trkpt>
      <trkpt lat="43.68407" lon="6.73166">
        <ele>743</ele>
        <time>2015-07-11T12:27:26Z</time>
      </trkpt>
      <trkpt lat="43.68406" lon="6.7315">
        <ele>744</ele>
        <time>2015-07-11T12:27:32Z</time>
      </trkpt>
      <trkpt lat="43.68407" lon="6.73133">
        <ele>745</ele>
        <time>2015-07-11T12:27:38Z</time>
      </trkpt>
      <trkpt lat="43.68409" lon="6.73117">
        <ele>745</ele>
        <time>2015-07-11T12:27:44Z</time>
      </trkpt>
      <trkpt lat="43.68412" lon="6.73102">
        <ele>746</ele>
        <time>2015-07-11T12:27:50Z</time>
      </trkpt>
      <trkpt lat="43.68415" lon="6.73087">
        <ele>746</ele>
        <time>2015-07-11T12:27:56Z</time>
      </trkpt>
      <trkpt lat="43.68419" lon="6.73071">
        <ele>746</ele>
        <time>2015-07-11T12:28:02Z</time>
      </trkpt>
      <trkpt lat="43.68424" lon="6.73056">
        <ele>747</ele>
        <time>2015-07-11T12:28:08Z</time>
      </trkpt>
      <trkpt lat="43.68431" lon="6.73042">
        <ele>747</ele>
        <time>2015-07-11T12:28:14Z</time>
      </trkpt>
      <trkpt lat="43.68439" lon="6.73028">
        <ele>749</ele>
        <time>2015-07-11T12:28:20Z</time>
      </trkpt>
      <trkpt lat="43.68445" lon="6.73015">
        <ele>750</ele>
        <time>2015-07-11T12:28:26Z</time>
      </trkpt>
      <trkpt lat="43.68452" lon="6.73001">
        <ele>751</ele>
        <time>2015-07-11T12:28:32Z</time>
      </trkpt>
      <trkpt lat="43.68458" lon="6.72987">
        <ele>752</ele>
        <time>2015-07-11T12:28:38Z</time>
      </trkpt>
      <trkpt lat="43.68464" lon="6.72974">
        <ele>753</ele>
        <time>2015-07-11T12:28:44Z</time>
      </trkpt>
      <trkpt lat="43.6847" lon="6.7296">
        <ele>753</ele>
        <time>2015-07-11T12:28:50Z</time>
      </trkpt>
      <trkpt lat="43.68477" lon="6.72946">
        <ele>754</ele>
        <time>2015-07-11T12:28:56Z</time>
      </trkpt>
      <trkpt lat="43.68485" lon="6.72934">
        <ele>756</ele>
        <time>2015-07-11T12:29:02Z</time>
      </trkpt>
      <trkpt lat="43.68493" lon="6.72921">
        <ele>757</ele>
        <time>2015-07-11T12:29:08Z</time>
      </trkpt>
      <trkpt lat="43.685" lon="6.72907">
        <ele>759</ele>
        <time>2015-07-11T12:29:14Z</time>
      </trkpt>
      <trkpt lat="43.68508" lon="6.72896">
        <ele>760</ele>
        <time>2015-07-11T12:29:20Z</time>
      </trkpt>
      <trkpt lat="43.68517" lon="6.72885">
        <ele>761</ele>
        <time>2015-07-11T12:29:26Z</time>
      </trkpt>
      <trkpt lat="43.68524" lon="6.72873">
        <ele>761</ele>
        <time>2015-07-11T12:29:32Z</time>
      </trkpt>
      <trkpt lat="43.68532" lon="6.72862">
        <ele>762</ele>
        <time>2015-07-11T12:29:38Z</time>
      </trkpt>
      <trkpt lat="43.6854" lon="6.72851">
        <ele>764</ele>
        <time>2015-07-11T12:29:44Z</time>
      </trkpt>
      <trkpt lat="43.68549" lon="6.7284">
        <ele>765</ele>
        <time>2015-07-11T12:29:50Z</time>
      </trkpt>
      <trkpt lat="43.68558" lon="6.72832">
        <ele>765</ele>
        <time>2015-07-11T12:29:56Z</time>
      </trkpt>
      <trkpt lat="43.6857" lon="6.72825">
        <ele>765</ele>
        <time>2015-07-11T12:30:02Z</time>
      </trkpt>
      <trkpt lat="43.68584" lon="6.72823">
        <ele>766</ele>
        <time>2015-07-11T12:30:08Z</time>
      </trkpt>
      <trkpt lat="43.68597" lon="6.72823">
        <ele>767</ele>
        <time>2015-07-11T12:30:13Z</time>
      </trkpt>
      <trkpt lat="43.6861" lon="6.72824">
        <ele>768</ele>
        <time>2015-07-11T12:30:18Z</time>
      </trkpt>
      <trkpt lat="43.68626" lon="6.72821">
        <ele>770</ele>
        <time>2015-07-11T12:30:24Z</time>
      </trkpt>
      <trkpt lat="43.6864" lon="6.72816">
        <ele>772</ele>
        <time>2015-07-11T12:30:30Z</time>
      </trkpt>
      <trkpt lat="43.68652" lon="6.72807">
        <ele>774</ele>
        <time>2015-07-11T12:30:36Z</time>
      </trkpt>
      <trkpt lat="43.68663" lon="6.72794">
        <ele>775</ele>
        <time>2015-07-11T12:30:42Z</time>
      </trkpt>
      <trkpt lat="43.6867" lon="6.72782">
        <ele>776</ele>
        <time>2015-07-11T12:30:48Z</time>
      </trkpt>
      <trkpt lat="43.6868" lon="6.7277">
        <ele>776</ele>
        <time>2015-07-11T12:30:54Z</time>
      </trkpt>
      <trkpt lat="43.68692" lon="6.72762">
        <ele>776</ele>
        <time>2015-07-11T12:31:00Z</time>
      </trkpt>
      <trkpt lat="43.68692" lon="6.72766">
        <ele>778</ele>
        <time>2015-07-11T12:33:51Z</time>
      </trkpt>
      <trkpt lat="43.68694" lon="6.72763">
        <ele>775</ele>
        <time>2015-07-11T12:34:15Z</time>
      </trkpt>
      <trkpt lat="43.68698" lon="6.72755">
        <ele>775</ele>
        <time>2015-07-11T12:34:20Z</time>
      </trkpt>
      <trkpt lat="43.68709" lon="6.72745">
        <ele>775</ele>
        <time>2015-07-11T12:34:25Z</time>
      </trkpt>
      <trkpt lat="43.68723" lon="6.72734">
        <ele>776</ele>
        <time>2015-07-11T12:34:30Z</time>
      </trkpt>
      <trkpt lat="43.68736" lon="6.72723">
        <ele>776</ele>
        <time>2015-07-11T12:34:35Z</time>
      </trkpt>
      <trkpt lat="43.68752" lon="6.72712">
        <ele>777</ele>
        <time>2015-07-11T12:34:40Z</time>
      </trkpt>
      <trkpt lat="43.68766" lon="6.727">
        <ele>777</ele>
        <time>2015-07-11T12:34:45Z</time>
      </trkpt>
      <trkpt lat="43.68781" lon="6.72688">
        <ele>778</ele>
        <time>2015-07-11T12:34:50Z</time>
      </trkpt>
      <trkpt lat="43.68797" lon="6.72678">
        <ele>779</ele>
        <time>2015-07-11T12:34:55Z</time>
      </trkpt>
      <trkpt lat="43.68813" lon="6.72674">
        <ele>780</ele>
        <time>2015-07-11T12:35:00Z</time>
      </trkpt>
      <trkpt lat="43.68829" lon="6.72673">
        <ele>782</ele>
        <time>2015-07-11T12:35:05Z</time>
      </trkpt>
      <trkpt lat="43.68843" lon="6.72671">
        <ele>782</ele>
        <time>2015-07-11T12:35:10Z</time>
      </trkpt>
      <trkpt lat="43.68857" lon="6.72668">
        <ele>783</ele>
        <time>2015-07-11T12:35:15Z</time>
      </trkpt>
      <trkpt lat="43.6887" lon="6.72668">
        <ele>782</ele>
        <time>2015-07-11T12:35:20Z</time>
      </trkpt>
      <trkpt lat="43.68886" lon="6.7267">
        <ele>782</ele>
        <time>2015-07-11T12:35:25Z</time>
      </trkpt>
      <trkpt lat="43.68903" lon="6.72674">
        <ele>782</ele>
        <time>2015-07-11T12:35:30Z</time>
      </trkpt>
      <trkpt lat="43.6892" lon="6.72677">
        <ele>782</ele>
        <time>2015-07-11T12:35:35Z</time>
      </trkpt>
      <trkpt lat="43.68935" lon="6.72677">
        <ele>784</ele>
        <time>2015-07-11T12:35:40Z</time>
      </trkpt>
      <trkpt lat="43.68949" lon="6.72673">
        <ele>784</ele>
        <time>2015-07-11T12:35:45Z</time>
      </trkpt>
      <trkpt lat="43.68958" lon="6.72659">
        <ele>785</ele>
        <time>2015-07-11T12:35:50Z</time>
      </trkpt>
      <trkpt lat="43.68954" lon="6.72636">
        <ele>787</ele>
        <time>2015-07-11T12:35:55Z</time>
      </trkpt>
      <trkpt lat="43.68948" lon="6.72615">
        <ele>787</ele>
        <time>2015-07-11T12:36:00Z</time>
      </trkpt>
      <trkpt lat="43.68945" lon="6.72595">
        <ele>789</ele>
        <time>2015-07-11T12:36:05Z</time>
      </trkpt>
      <trkpt lat="43.68945" lon="6.72575">
        <ele>791</ele>
        <time>2015-07-11T12:36:11Z</time>
      </trkpt>
      <trkpt lat="43.68954" lon="6.72558">
        <ele>793</ele>
        <time>2015-07-11T12:36:17Z</time>
      </trkpt>
      <trkpt lat="43.68965" lon="6.72545">
        <ele>793</ele>
        <time>2015-07-11T12:36:22Z</time>
      </trkpt>
      <trkpt lat="43.68979" lon="6.72532">
        <ele>792</ele>
        <time>2015-07-11T12:36:27Z</time>
      </trkpt>
      <trkpt lat="43.68996" lon="6.7252">
        <ele>792</ele>
        <time>2015-07-11T12:36:32Z</time>
      </trkpt>
      <trkpt lat="43.69013" lon="6.72508">
        <ele>792</ele>
        <time>2015-07-11T12:36:37Z</time>
      </trkpt>
      <trkpt lat="43.69023" lon="6.72489">
        <ele>791</ele>
        <time>2015-07-11T12:36:42Z</time>
      </trkpt>
      <trkpt lat="43.69015" lon="6.7247">
        <ele>791</ele>
        <time>2015-07-11T12:36:47Z</time>
      </trkpt>
      <trkpt lat="43.69" lon="6.72457">
        <ele>792</ele>
        <time>2015-07-11T12:36:53Z</time>
      </trkpt>
      <trkpt lat="43.68988" lon="6.72444">
        <ele>792</ele>
        <time>2015-07-11T12:36:59Z</time>
      </trkpt>
      <trkpt lat="43.68975" lon="6.72436">
        <ele>794</ele>
        <time>2015-07-11T12:37:05Z</time>
      </trkpt>
      <trkpt lat="43.68963" lon="6.72431">
        <ele>796</ele>
        <time>2015-07-11T12:37:11Z</time>
      </trkpt>
      <trkpt lat="43.68951" lon="6.72423">
        <ele>798</ele>
        <time>2015-07-11T12:37:17Z</time>
      </trkpt>
      <trkpt lat="43.68947" lon="6.72407">
        <ele>798</ele>
        <time>2015-07-11T12:37:22Z</time>
      </trkpt>
      <trkpt lat="43.68948" lon="6.72389">
        <ele>799</ele>
        <time>2015-07-11T12:37:27Z</time>
      </trkpt>
      <trkpt lat="43.68951" lon="6.72369">
        <ele>798</ele>
        <time>2015-07-11T12:37:32Z</time>
      </trkpt>
      <trkpt lat="43.68955" lon="6.72348">
        <ele>798</ele>
        <time>2015-07-11T12:37:37Z</time>
      </trkpt>
      <trkpt lat="43.68961" lon="6.72325">
        <ele>800</ele>
        <time>2015-07-11T12:37:43Z</time>
      </trkpt>
      <trkpt lat="43.68969" lon="6.72311">
        <ele>801</ele>
        <time>2015-07-11T12:37:48Z</time>
      </trkpt>
      <trkpt lat="43.68979" lon="6.72298">
        <ele>802</ele>
        <time>2015-07-11T12:37:53Z</time>
      </trkpt>
      <trkpt lat="43.68989" lon="6.72283">
        <ele>802</ele>
        <time>2015-07-11T12:37:59Z</time>
      </trkpt>
      <trkpt lat="43.68997" lon="6.7227">
        <ele>804</ele>
        <time>2015-07-11T12:38:04Z</time>
      </trkpt>
      <trkpt lat="43.69008" lon="6.72257">
        <ele>805</ele>
        <time>2015-07-11T12:38:10Z</time>
      </trkpt>
      <trkpt lat="43.69018" lon="6.72244">
        <ele>805</ele>
        <time>2015-07-11T12:38:15Z</time>
      </trkpt>
      <trkpt lat="43.69032" lon="6.72229">
        <ele>805</ele>
        <time>2015-07-11T12:38:20Z</time>
      </trkpt>
      <trkpt lat="43.69046" lon="6.72215">
        <ele>806</ele>
        <time>2015-07-11T12:38:25Z</time>
      </trkpt>
      <trkpt lat="43.69057" lon="6.72205">
        <ele>807</ele>
        <time>2015-07-11T12:38:30Z</time>
      </trkpt>
      <trkpt lat="43.69067" lon="6.72195">
        <ele>808</ele>
        <time>2015-07-11T12:38:36Z</time>
      </trkpt>
      <trkpt lat="43.69076" lon="6.72185">
        <ele>808</ele>
        <time>2015-07-11T12:38:42Z</time>
      </trkpt>
      <trkpt lat="43.69085" lon="6.72175">
        <ele>808</ele>
        <time>2015-07-11T12:38:48Z</time>
      </trkpt>
      <trkpt lat="43.69094" lon="6.72163">
        <ele>809</ele>
        <time>2015-07-11T12:38:54Z</time>
      </trkpt>
      <trkpt lat="43.69102" lon="6.72149">
        <ele>809</ele>
        <time>2015-07-11T12:39:00Z</time>
      </trkpt>
      <trkpt lat="43.6911" lon="6.72135">
        <ele>809</ele>
        <time>2015-07-11T12:39:06Z</time>
      </trkpt>
      <trkpt lat="43.69118" lon="6.72122">
        <ele>811</ele>
        <time>2015-07-11T12:39:12Z</time>
      </trkpt>
      <trkpt lat="43.69128" lon="6.72113">
        <ele>812</ele>
        <time>2015-07-11T12:39:18Z</time>
      </trkpt>
      <trkpt lat="43.69138" lon="6.72106">
        <ele>813</ele>
        <time>2015-07-11T12:39:24Z</time>
      </trkpt>
      <trkpt lat="43.69145" lon="6.72094">
        <ele>816</ele>
        <time>2015-07-11T12:39:30Z</time>
      </trkpt>
      <trkpt lat="43.69155" lon="6.7209">
        <ele>816</ele>
        <time>2015-07-11T12:39:36Z</time>
      </trkpt>
      <trkpt lat="43.6916" lon="6.72089">
        <ele>817</ele>
        <time>2015-07-11T12:39:48Z</time>
      </trkpt>
      <trkpt lat="43.69163" lon="6.72087">
        <ele>817</ele>
        <time>2015-07-11T12:43:25Z</time>
      </trkpt>
      <trkpt lat="43.69167" lon="6.72081">
        <ele>817</ele>
        <time>2015-07-11T12:43:34Z</time>
      </trkpt>
      <trkpt lat="43.6917" lon="6.72079">
        <ele>823</ele>
        <time>2015-07-11T12:43:45Z</time>
      </trkpt>
      <trkpt lat="43.69175" lon="6.72074">
        <ele>824</ele>
        <time>2015-07-11T12:43:52Z</time>
      </trkpt>
      <trkpt lat="43.69177" lon="6.72071">
        <ele>826</ele>
        <time>2015-07-11T12:43:58Z</time>
      </trkpt>
      <trkpt lat="43.6918" lon="6.7207">
        <ele>828</ele>
        <time>2015-07-11T12:44:04Z</time>
      </trkpt>
      <trkpt lat="43.69185" lon="6.72066">
        <ele>828</ele>
        <time>2015-07-11T12:44:10Z</time>
      </trkpt>
      <trkpt lat="43.69187" lon="6.72062">
        <ele>829</ele>
        <time>2015-07-11T12:44:15Z</time>
      </trkpt>
      <trkpt lat="43.69192" lon="6.72058">
        <ele>833</ele>
        <time>2015-07-11T12:44:24Z</time>
      </trkpt>
      <trkpt lat="43.69198" lon="6.72055">
        <ele>834</ele>
        <time>2015-07-11T12:44:32Z</time>
      </trkpt>
      <trkpt lat="43.69203" lon="6.72051">
        <ele>832</ele>
        <time>2015-07-11T12:44:39Z</time>
      </trkpt>
      <trkpt lat="43.69205" lon="6.72043">
        <ele>833</ele>
        <time>2015-07-11T12:44:49Z</time>
      </trkpt>
      <trkpt lat="43.69205" lon="6.72039">
        <ele>833</ele>
        <time>2015-07-11T12:44:54Z</time>
      </trkpt>
      <trkpt lat="43.69203" lon="6.72031">
        <ele>833</ele>
        <time>2015-07-11T12:45:00Z</time>
      </trkpt>
      <trkpt lat="43.69203" lon="6.72026">
        <ele>833</ele>
        <time>2015-07-11T12:45:06Z</time>
      </trkpt>
      <trkpt lat="43.69202" lon="6.72018">
        <ele>833</ele>
        <time>2015-07-11T12:45:14Z</time>
      </trkpt>
      <trkpt lat="43.692" lon="6.72014">
        <ele>833</ele>
        <time>2015-07-11T12:45:24Z</time>
      </trkpt>
      <trkpt lat="43.69205" lon="6.72011">
        <ele>836</ele>
        <time>2015-07-11T12:45:33Z</time>
      </trkpt>
      <trkpt lat="43.69208" lon="6.72011">
        <ele>838</ele>
        <time>2015-07-11T12:45:39Z</time>
      </trkpt>
      <trkpt lat="43.69211" lon="6.72012">
        <ele>838</ele>
        <time>2015-07-11T12:45:44Z</time>
      </trkpt>
      <trkpt lat="43.69216" lon="6.7201">
        <ele>840</ele>
        <time>2015-07-11T12:45:53Z</time>
      </trkpt>
      <trkpt lat="43.69215" lon="6.72006">
        <ele>840</ele>
        <time>2015-07-11T12:45:58Z</time>
      </trkpt>
      <trkpt lat="43.69215" lon="6.72002">
        <ele>840</ele>
        <time>2015-07-11T12:46:04Z</time>
      </trkpt>
      <trkpt lat="43.69212" lon="6.71994">
        <ele>840</ele>
        <time>2015-07-11T12:46:13Z</time>
      </trkpt>
      <trkpt lat="43.69208" lon="6.71986">
        <ele>841</ele>
        <time>2015-07-11T12:46:20Z</time>
      </trkpt>
      <trkpt lat="43.69208" lon="6.71982">
        <ele>842</ele>
        <time>2015-07-11T12:46:26Z</time>
      </trkpt>
      <trkpt lat="43.69206" lon="6.71977">
        <ele>841</ele>
        <time>2015-07-11T12:46:33Z</time>
      </trkpt>
      <trkpt lat="43.69205" lon="6.71973">
        <ele>841</ele>
        <time>2015-07-11T12:46:38Z</time>
      </trkpt>
      <trkpt lat="43.69203" lon="6.71969">
        <ele>842</ele>
        <time>2015-07-11T12:46:43Z</time>
      </trkpt>
      <trkpt lat="43.69202" lon="6.71961">
        <ele>842</ele>
        <time>2015-07-11T12:46:51Z</time>
      </trkpt>
      <trkpt lat="43.69203" lon="6.71956">
        <ele>842</ele>
        <time>2015-07-11T12:46:56Z</time>
      </trkpt>
      <trkpt lat="43.69203" lon="6.71953">
        <ele>843</ele>
        <time>2015-07-11T12:47:01Z</time>
      </trkpt>
      <trkpt lat="43.69201" lon="6.71945">
        <ele>842</ele>
        <time>2015-07-11T12:47:09Z</time>
      </trkpt>
      <trkpt lat="43.69197" lon="6.71939">
        <ele>842</ele>
        <time>2015-07-11T12:47:16Z</time>
      </trkpt>
      <trkpt lat="43.69196" lon="6.7193">
        <ele>841</ele>
        <time>2015-07-11T12:47:21Z</time>
      </trkpt>
      <trkpt lat="43.69193" lon="6.71921">
        <ele>842</ele>
        <time>2015-07-11T12:47:27Z</time>
      </trkpt>
      <trkpt lat="43.69192" lon="6.71917">
        <ele>846</ele>
        <time>2015-07-11T12:47:32Z</time>
      </trkpt>
      <trkpt lat="43.69191" lon="6.71909">
        <ele>845</ele>
        <time>2015-07-11T12:47:37Z</time>
      </trkpt>
      <trkpt lat="43.69189" lon="6.71907">
        <ele>847</ele>
        <time>2015-07-11T12:47:42Z</time>
      </trkpt>
      <trkpt lat="43.69185" lon="6.71899">
        <ele>846</ele>
        <time>2015-07-11T12:47:48Z</time>
      </trkpt>
      <trkpt lat="43.69183" lon="6.71891">
        <ele>848</ele>
        <time>2015-07-11T12:47:57Z</time>
      </trkpt>
      <trkpt lat="43.69182" lon="6.71883">
        <ele>852</ele>
        <time>2015-07-11T12:48:03Z</time>
      </trkpt>
      <trkpt lat="43.6918" lon="6.71875">
        <ele>852</ele>
        <time>2015-07-11T12:48:10Z</time>
      </trkpt>
      <trkpt lat="43.69178" lon="6.71866">
        <ele>852</ele>
        <time>2015-07-11T12:48:16Z</time>
      </trkpt>
      <trkpt lat="43.69176" lon="6.71859">
        <ele>853</ele>
        <time>2015-07-11T12:48:21Z</time>
      </trkpt>
      <trkpt lat="43.69175" lon="6.71849">
        <ele>855</ele>
        <time>2015-07-11T12:48:28Z</time>
      </trkpt>
      <trkpt lat="43.69173" lon="6.7184">
        <ele>854</ele>
        <time>2015-07-11T12:48:34Z</time>
      </trkpt>
      <trkpt lat="43.69173" lon="6.71836">
        <ele>854</ele>
        <time>2015-07-11T12:48:46Z</time>
      </trkpt>
      <trkpt lat="43.69171" lon="6.71826">
        <ele>856</ele>
        <time>2015-07-11T12:48:51Z</time>
      </trkpt>
      <trkpt lat="43.6917" lon="6.71811">
        <ele>856</ele>
        <time>2015-07-11T12:48:57Z</time>
      </trkpt>
      <trkpt lat="43.6917" lon="6.71796">
        <ele>856</ele>
        <time>2015-07-11T12:49:03Z</time>
      </trkpt>
      <trkpt lat="43.69166" lon="6.71778">
        <ele>856</ele>
        <time>2015-07-11T12:49:09Z</time>
      </trkpt>
      <trkpt lat="43.69164" lon="6.7176">
        <ele>857</ele>
        <time>2015-07-11T12:49:15Z</time>
      </trkpt>
      <trkpt lat="43.69165" lon="6.7174">
        <ele>856</ele>
        <time>2015-07-11T12:49:21Z</time>
      </trkpt>
      <trkpt lat="43.6917" lon="6.71723">
        <ele>855</ele>
        <time>2015-07-11T12:49:27Z</time>
      </trkpt>
      <trkpt lat="43.69174" lon="6.71708">
        <ele>858</ele>
        <time>2015-07-11T12:49:33Z</time>
      </trkpt>
      <trkpt lat="43.69179" lon="6.7169">
        <ele>858</ele>
        <time>2015-07-11T12:49:38Z</time>
      </trkpt>
      <trkpt lat="43.69187" lon="6.71669">
        <ele>852</ele>
        <time>2015-07-11T12:49:43Z</time>
      </trkpt>
      <trkpt lat="43.692" lon="6.71642">
        <ele>854</ele>
        <time>2015-07-11T12:49:48Z</time>
      </trkpt>
      <trkpt lat="43.69214" lon="6.71616">
        <ele>854</ele>
        <time>2015-07-11T12:49:53Z</time>
      </trkpt>
      <trkpt lat="43.69226" lon="6.71591">
        <ele>854</ele>
        <time>2015-07-11T12:49:58Z</time>
      </trkpt>
      <trkpt lat="43.69236" lon="6.71568">
        <ele>855</ele>
        <time>2015-07-11T12:50:03Z</time>
      </trkpt>
      <trkpt lat="43.69243" lon="6.71548">
        <ele>855</ele>
        <time>2015-07-11T12:50:08Z</time>
      </trkpt>
      <trkpt lat="43.69246" lon="6.71525">
        <ele>854</ele>
        <time>2015-07-11T12:50:13Z</time>
      </trkpt>
      <trkpt lat="43.6924" lon="6.715">
        <ele>856</ele>
        <time>2015-07-11T12:50:18Z</time>
      </trkpt>
      <trkpt lat="43.69234" lon="6.71482">
        <ele>857</ele>
        <time>2015-07-11T12:50:23Z</time>
      </trkpt>
      <trkpt lat="43.69239" lon="6.7146">
        <ele>856</ele>
        <time>2015-07-11T12:50:28Z</time>
      </trkpt>
      <trkpt lat="43.69238" lon="6.71435">
        <ele>858</ele>
        <time>2015-07-11T12:50:33Z</time>
      </trkpt>
      <trkpt lat="43.69223" lon="6.71422">
        <ele>859</ele>
        <time>2015-07-11T12:50:38Z</time>
      </trkpt>
      <trkpt lat="43.69208" lon="6.71407">
        <ele>859</ele>
        <time>2015-07-11T12:50:43Z</time>
      </trkpt>
      <trkpt lat="43.69194" lon="6.71391">
        <ele>857</ele>
        <time>2015-07-11T12:50:48Z</time>
      </trkpt>
      <trkpt lat="43.69179" lon="6.71378">
        <ele>857</ele>
        <time>2015-07-11T12:50:53Z</time>
      </trkpt>
      <trkpt lat="43.69163" lon="6.71368">
        <ele>860</ele>
        <time>2015-07-11T12:50:58Z</time>
      </trkpt>
      <trkpt lat="43.69146" lon="6.71357">
        <ele>861</ele>
        <time>2015-07-11T12:51:03Z</time>
      </trkpt>
      <trkpt lat="43.69126" lon="6.71347">
        <ele>859</ele>
        <time>2015-07-11T12:51:08Z</time>
      </trkpt>
      <trkpt lat="43.69106" lon="6.71339">
        <ele>858</ele>
        <time>2015-07-11T12:51:13Z</time>
      </trkpt>
      <trkpt lat="43.69088" lon="6.71331">
        <ele>858</ele>
        <time>2015-07-11T12:51:18Z</time>
      </trkpt>
      <trkpt lat="43.69068" lon="6.71329">
        <ele>858</ele>
        <time>2015-07-11T12:51:23Z</time>
      </trkpt>
      <trkpt lat="43.69065" lon="6.71326">
        <ele>858</ele>
        <time>2015-07-11T12:51:24Z</time>
      </trkpt>
      <trkpt lat="43.69048" lon="6.71319">
        <ele>858</ele>
        <time>2015-07-11T12:51:29Z</time>
      </trkpt>
      <trkpt lat="43.69032" lon="6.71312">
        <ele>858</ele>
        <time>2015-07-11T12:51:34Z</time>
      </trkpt>
      <trkpt lat="43.69013" lon="6.71305">
        <ele>859</ele>
        <time>2015-07-11T12:51:39Z</time>
      </trkpt>
      <trkpt lat="43.68997" lon="6.7131">
        <ele>855</ele>
        <time>2015-07-11T12:51:44Z</time>
      </trkpt>
      <trkpt lat="43.68982" lon="6.71316">
        <ele>854</ele>
        <time>2015-07-11T12:51:50Z</time>
      </trkpt>
      <trkpt lat="43.68973" lon="6.71335">
        <ele>854</ele>
        <time>2015-07-11T12:51:56Z</time>
      </trkpt>
      <trkpt lat="43.68974" lon="6.7135">
        <ele>855</ele>
        <time>2015-07-11T12:52:01Z</time>
      </trkpt>
      <trkpt lat="43.68985" lon="6.71361">
        <ele>854</ele>
        <time>2015-07-11T12:52:06Z</time>
      </trkpt>
      <trkpt lat="43.68998" lon="6.71366">
        <ele>853</ele>
        <time>2015-07-11T12:52:11Z</time>
      </trkpt>
      <trkpt lat="43.69016" lon="6.71367">
        <ele>854</ele>
        <time>2015-07-11T12:52:16Z</time>
      </trkpt>
      <trkpt lat="43.69035" lon="6.71371">
        <ele>856</ele>
        <time>2015-07-11T12:52:21Z</time>
      </trkpt>
      <trkpt lat="43.69053" lon="6.71371">
        <ele>857</ele>
        <time>2015-07-11T12:52:27Z</time>
      </trkpt>
      <trkpt lat="43.69064" lon="6.71377">
        <ele>860</ele>
        <time>2015-07-11T12:52:33Z</time>
      </trkpt>
      <trkpt lat="43.69066" lon="6.7139">
        <ele>860</ele>
        <time>2015-07-11T12:52:42Z</time>
      </trkpt>
      <trkpt lat="43.69069" lon="6.71391">
        <ele>859</ele>
        <time>2015-07-11T12:52:54Z</time>
      </trkpt>
      <trkpt lat="43.6907" lon="6.71395">
        <ele>853</ele>
        <time>2015-07-11T12:53:25Z</time>
      </trkpt>
      <trkpt lat="43.69066" lon="6.71395">
        <ele>856</ele>
        <time>2015-07-11T12:54:30Z</time>
      </trkpt>
    </trkseg>
  </trk>
</gpx>